<?xml version="1.0" encoding="UTF-8" standalone="no" ?>
<gpx xmlns="http://www.topografix.com/GPX/1/1" xmlns:xsi="http://www.w3.org/2001/XMLSchema-instance" xsi:schemaLocation="http://www.topografix.com/GPX/1/1 http://www.topografix.com/GPX/1/1/gpx.xsd" version="1.1" creator="VisuGPX - https://www.visugpx.com">
  <metadata>
    <name>2013_08_VTT_Danne et 4 Vents - Brunenthal_22km</name>
    <desc><![CDATA[Variante du circuit VTT - Phalsnourg numéro 5: Danne et Quatre Vents - Brunenthal. ]]></desc>
  </metadata>
  <trk>
    <name><![CDATA[2013_08_VTT_Danne et 4 Vents - Brunenthal_22km_1]]></name>
    <trkseg>
      <trkpt lat="48.74589" lon="7.25858">
        <ele>353</ele>
        <time>2013-08-07T12:20:46.933Z</time>
      </trkpt>
      <trkpt lat="48.74598" lon="7.25846">
        <ele>353</ele>
        <time>2013-08-07T12:21:26.202Z</time>
      </trkpt>
      <trkpt lat="48.74612" lon="7.25848">
        <ele>352</ele>
        <time>2013-08-07T12:21:28.256Z</time>
      </trkpt>
      <trkpt lat="48.74622" lon="7.25856">
        <ele>352</ele>
        <time>2013-08-07T12:21:30.268Z</time>
      </trkpt>
      <trkpt lat="48.74633" lon="7.25856">
        <ele>352</ele>
        <time>2013-08-07T12:21:51.258Z</time>
      </trkpt>
      <trkpt lat="48.74643" lon="7.25863">
        <ele>352</ele>
        <time>2013-08-07T12:21:54.253Z</time>
      </trkpt>
      <trkpt lat="48.74651" lon="7.25868">
        <ele>352</ele>
        <time>2013-08-07T12:21:57.256Z</time>
      </trkpt>
      <trkpt lat="48.7466" lon="7.25872">
        <ele>352</ele>
        <time>2013-08-07T12:22:00.259Z</time>
      </trkpt>
      <trkpt lat="48.74671" lon="7.25881">
        <ele>350</ele>
        <time>2013-08-07T12:22:44.270Z</time>
      </trkpt>
      <trkpt lat="48.74682" lon="7.2589">
        <ele>350</ele>
        <time>2013-08-07T12:22:49.270Z</time>
      </trkpt>
      <trkpt lat="48.74694" lon="7.25895">
        <ele>350</ele>
        <time>2013-08-07T12:22:52.262Z</time>
      </trkpt>
      <trkpt lat="48.74705" lon="7.25899">
        <ele>350</ele>
        <time>2013-08-07T12:22:55.267Z</time>
      </trkpt>
      <trkpt lat="48.74717" lon="7.25902">
        <ele>350</ele>
        <time>2013-08-07T12:22:58.268Z</time>
      </trkpt>
      <trkpt lat="48.7473" lon="7.25907">
        <ele>350</ele>
        <time>2013-08-07T12:23:01.246Z</time>
      </trkpt>
      <trkpt lat="48.74739" lon="7.25912">
        <ele>350</ele>
        <time>2013-08-07T12:23:03.259Z</time>
      </trkpt>
      <trkpt lat="48.74751" lon="7.25919">
        <ele>351</ele>
        <time>2013-08-07T12:23:06.251Z</time>
      </trkpt>
      <trkpt lat="48.74759" lon="7.2593">
        <ele>351</ele>
        <time>2013-08-07T12:23:09.256Z</time>
      </trkpt>
      <trkpt lat="48.74762" lon="7.25944">
        <ele>351</ele>
        <time>2013-08-07T12:23:11.253Z</time>
      </trkpt>
      <trkpt lat="48.7476" lon="7.25958">
        <ele>351</ele>
        <time>2013-08-07T12:23:13.244Z</time>
      </trkpt>
      <trkpt lat="48.74754" lon="7.25969">
        <ele>352</ele>
        <time>2013-08-07T12:23:16.248Z</time>
      </trkpt>
      <trkpt lat="48.74749" lon="7.25983">
        <ele>354</ele>
        <time>2013-08-07T12:23:19.263Z</time>
      </trkpt>
      <trkpt lat="48.74747" lon="7.25999">
        <ele>354</ele>
        <time>2013-08-07T12:23:22.259Z</time>
      </trkpt>
      <trkpt lat="48.74747" lon="7.26017">
        <ele>357</ele>
        <time>2013-08-07T12:23:26.253Z</time>
      </trkpt>
      <trkpt lat="48.7475" lon="7.26033">
        <ele>354</ele>
        <time>2013-08-07T12:23:30.262Z</time>
      </trkpt>
      <trkpt lat="48.74754" lon="7.26048">
        <ele>355</ele>
        <time>2013-08-07T12:23:34.259Z</time>
      </trkpt>
      <trkpt lat="48.7476" lon="7.26065">
        <ele>356</ele>
        <time>2013-08-07T12:23:38.266Z</time>
      </trkpt>
      <trkpt lat="48.74764" lon="7.26078">
        <ele>356</ele>
        <time>2013-08-07T12:23:43.262Z</time>
      </trkpt>
      <trkpt lat="48.7477" lon="7.26089">
        <ele>357</ele>
        <time>2013-08-07T12:23:47.252Z</time>
      </trkpt>
      <trkpt lat="48.74775" lon="7.26104">
        <ele>357</ele>
        <time>2013-08-07T12:23:51.261Z</time>
      </trkpt>
      <trkpt lat="48.7478" lon="7.2612">
        <ele>357</ele>
        <time>2013-08-07T12:23:55.256Z</time>
      </trkpt>
      <trkpt lat="48.74786" lon="7.26134">
        <ele>357</ele>
        <time>2013-08-07T12:23:58.255Z</time>
      </trkpt>
      <trkpt lat="48.74791" lon="7.26149">
        <ele>357</ele>
        <time>2013-08-07T12:24:01.254Z</time>
      </trkpt>
      <trkpt lat="48.74798" lon="7.26161">
        <ele>357</ele>
        <time>2013-08-07T12:24:05.257Z</time>
      </trkpt>
      <trkpt lat="48.748" lon="7.26176">
        <ele>358</ele>
        <time>2013-08-07T12:24:08.255Z</time>
      </trkpt>
      <trkpt lat="48.74804" lon="7.2619">
        <ele>358</ele>
        <time>2013-08-07T12:24:11.260Z</time>
      </trkpt>
      <trkpt lat="48.74806" lon="7.26209">
        <ele>358</ele>
        <time>2013-08-07T12:24:14.259Z</time>
      </trkpt>
      <trkpt lat="48.74812" lon="7.26225">
        <ele>358</ele>
        <time>2013-08-07T12:24:17.252Z</time>
      </trkpt>
      <trkpt lat="48.74816" lon="7.26237">
        <ele>357</ele>
        <time>2013-08-07T12:24:20.255Z</time>
      </trkpt>
      <trkpt lat="48.7482" lon="7.2625">
        <ele>357</ele>
        <time>2013-08-07T12:24:23.264Z</time>
      </trkpt>
      <trkpt lat="48.74824" lon="7.26266">
        <ele>357</ele>
        <time>2013-08-07T12:24:26.262Z</time>
      </trkpt>
      <trkpt lat="48.74827" lon="7.26281">
        <ele>357</ele>
        <time>2013-08-07T12:24:28.254Z</time>
      </trkpt>
      <trkpt lat="48.74834" lon="7.26292">
        <ele>353</ele>
        <time>2013-08-07T12:24:30.258Z</time>
      </trkpt>
      <trkpt lat="48.74845" lon="7.26299">
        <ele>352</ele>
        <time>2013-08-07T12:24:32.254Z</time>
      </trkpt>
      <trkpt lat="48.74855" lon="7.26301">
        <ele>352</ele>
        <time>2013-08-07T12:24:34.269Z</time>
      </trkpt>
      <trkpt lat="48.74869" lon="7.26293">
        <ele>352</ele>
        <time>2013-08-07T12:24:36.269Z</time>
      </trkpt>
      <trkpt lat="48.74881" lon="7.26285">
        <ele>351</ele>
        <time>2013-08-07T12:24:38.258Z</time>
      </trkpt>
      <trkpt lat="48.74891" lon="7.26273">
        <ele>351</ele>
        <time>2013-08-07T12:24:40.256Z</time>
      </trkpt>
      <trkpt lat="48.74901" lon="7.26262">
        <ele>351</ele>
        <time>2013-08-07T12:24:42.254Z</time>
      </trkpt>
      <trkpt lat="48.74912" lon="7.26252">
        <ele>351</ele>
        <time>2013-08-07T12:24:44.258Z</time>
      </trkpt>
      <trkpt lat="48.74922" lon="7.26246">
        <ele>351</ele>
        <time>2013-08-07T12:24:46.255Z</time>
      </trkpt>
      <trkpt lat="48.74936" lon="7.26238">
        <ele>352</ele>
        <time>2013-08-07T12:24:48.259Z</time>
      </trkpt>
      <trkpt lat="48.74948" lon="7.2623">
        <ele>352</ele>
        <time>2013-08-07T12:24:50.258Z</time>
      </trkpt>
      <trkpt lat="48.74956" lon="7.26226">
        <ele>352</ele>
        <time>2013-08-07T12:24:52.258Z</time>
      </trkpt>
      <trkpt lat="48.74965" lon="7.26222">
        <ele>352</ele>
        <time>2013-08-07T12:24:54.254Z</time>
      </trkpt>
      <trkpt lat="48.74977" lon="7.26216">
        <ele>352</ele>
        <time>2013-08-07T12:24:57.250Z</time>
      </trkpt>
      <trkpt lat="48.74987" lon="7.2621">
        <ele>352</ele>
        <time>2013-08-07T12:25:00.259Z</time>
      </trkpt>
      <trkpt lat="48.74998" lon="7.26204">
        <ele>352</ele>
        <time>2013-08-07T12:25:04.255Z</time>
      </trkpt>
      <trkpt lat="48.75007" lon="7.26199">
        <ele>353</ele>
        <time>2013-08-07T12:25:07.259Z</time>
      </trkpt>
      <trkpt lat="48.75015" lon="7.26192">
        <ele>353</ele>
        <time>2013-08-07T12:25:10.304Z</time>
      </trkpt>
      <trkpt lat="48.75023" lon="7.26183">
        <ele>353</ele>
        <time>2013-08-07T12:25:14.289Z</time>
      </trkpt>
      <trkpt lat="48.75031" lon="7.26172">
        <ele>353</ele>
        <time>2013-08-07T12:25:19.226Z</time>
      </trkpt>
      <trkpt lat="48.75038" lon="7.26158">
        <ele>354</ele>
        <time>2013-08-07T12:25:23.205Z</time>
      </trkpt>
      <trkpt lat="48.75044" lon="7.26147">
        <ele>354</ele>
        <time>2013-08-07T12:25:26.261Z</time>
      </trkpt>
      <trkpt lat="48.75051" lon="7.26135">
        <ele>354</ele>
        <time>2013-08-07T12:25:29.261Z</time>
      </trkpt>
      <trkpt lat="48.75059" lon="7.26125">
        <ele>354</ele>
        <time>2013-08-07T12:25:32.256Z</time>
      </trkpt>
      <trkpt lat="48.75066" lon="7.26116">
        <ele>354</ele>
        <time>2013-08-07T12:25:35.259Z</time>
      </trkpt>
      <trkpt lat="48.75075" lon="7.26106">
        <ele>354</ele>
        <time>2013-08-07T12:25:39.258Z</time>
      </trkpt>
      <trkpt lat="48.75085" lon="7.26098">
        <ele>354</ele>
        <time>2013-08-07T12:25:42.259Z</time>
      </trkpt>
      <trkpt lat="48.75095" lon="7.26091">
        <ele>354</ele>
        <time>2013-08-07T12:25:45.262Z</time>
      </trkpt>
      <trkpt lat="48.75104" lon="7.26086">
        <ele>354</ele>
        <time>2013-08-07T12:25:48.262Z</time>
      </trkpt>
      <trkpt lat="48.75113" lon="7.26082">
        <ele>353</ele>
        <time>2013-08-07T12:25:51.378Z</time>
      </trkpt>
      <trkpt lat="48.75123" lon="7.26077">
        <ele>353</ele>
        <time>2013-08-07T12:25:54.261Z</time>
      </trkpt>
      <trkpt lat="48.75132" lon="7.26071">
        <ele>353</ele>
        <time>2013-08-07T12:25:57.251Z</time>
      </trkpt>
      <trkpt lat="48.75141" lon="7.26063">
        <ele>353</ele>
        <time>2013-08-07T12:26:00.259Z</time>
      </trkpt>
      <trkpt lat="48.75149" lon="7.26054">
        <ele>353</ele>
        <time>2013-08-07T12:26:03.250Z</time>
      </trkpt>
      <trkpt lat="48.75157" lon="7.26045">
        <ele>353</ele>
        <time>2013-08-07T12:26:06.250Z</time>
      </trkpt>
      <trkpt lat="48.75166" lon="7.26035">
        <ele>353</ele>
        <time>2013-08-07T12:26:10.204Z</time>
      </trkpt>
      <trkpt lat="48.75173" lon="7.26027">
        <ele>352</ele>
        <time>2013-08-07T12:26:13.252Z</time>
      </trkpt>
      <trkpt lat="48.75182" lon="7.26037">
        <ele>352</ele>
        <time>2013-08-07T12:26:19.252Z</time>
      </trkpt>
      <trkpt lat="48.75184" lon="7.26052">
        <ele>352</ele>
        <time>2013-08-07T12:26:23.258Z</time>
      </trkpt>
      <trkpt lat="48.75187" lon="7.26069">
        <ele>352</ele>
        <time>2013-08-07T12:26:27.246Z</time>
      </trkpt>
      <trkpt lat="48.75189" lon="7.26086">
        <ele>353</ele>
        <time>2013-08-07T12:26:31.256Z</time>
      </trkpt>
      <trkpt lat="48.75191" lon="7.26099">
        <ele>353</ele>
        <time>2013-08-07T12:26:34.262Z</time>
      </trkpt>
      <trkpt lat="48.75192" lon="7.26114">
        <ele>353</ele>
        <time>2013-08-07T12:26:37.240Z</time>
      </trkpt>
      <trkpt lat="48.75194" lon="7.26128">
        <ele>353</ele>
        <time>2013-08-07T12:26:40.263Z</time>
      </trkpt>
      <trkpt lat="48.75195" lon="7.26141">
        <ele>353</ele>
        <time>2013-08-07T12:26:43.260Z</time>
      </trkpt>
      <trkpt lat="48.75196" lon="7.26157">
        <ele>353</ele>
        <time>2013-08-07T12:26:46.251Z</time>
      </trkpt>
      <trkpt lat="48.75199" lon="7.26172">
        <ele>354</ele>
        <time>2013-08-07T12:26:49.262Z</time>
      </trkpt>
      <trkpt lat="48.75202" lon="7.26187">
        <ele>354</ele>
        <time>2013-08-07T12:26:52.256Z</time>
      </trkpt>
      <trkpt lat="48.75206" lon="7.262">
        <ele>354</ele>
        <time>2013-08-07T12:26:55.262Z</time>
      </trkpt>
      <trkpt lat="48.75209" lon="7.26214">
        <ele>354</ele>
        <time>2013-08-07T12:26:58.258Z</time>
      </trkpt>
      <trkpt lat="48.75212" lon="7.26229">
        <ele>354</ele>
        <time>2013-08-07T12:27:01.262Z</time>
      </trkpt>
      <trkpt lat="48.75216" lon="7.26244">
        <ele>354</ele>
        <time>2013-08-07T12:27:04.261Z</time>
      </trkpt>
      <trkpt lat="48.7522" lon="7.26259">
        <ele>354</ele>
        <time>2013-08-07T12:27:07.246Z</time>
      </trkpt>
      <trkpt lat="48.75224" lon="7.26273">
        <ele>353</ele>
        <time>2013-08-07T12:27:10.260Z</time>
      </trkpt>
      <trkpt lat="48.75227" lon="7.26286">
        <ele>353</ele>
        <time>2013-08-07T12:27:13.259Z</time>
      </trkpt>
      <trkpt lat="48.75231" lon="7.26298">
        <ele>353</ele>
        <time>2013-08-07T12:27:16.263Z</time>
      </trkpt>
      <trkpt lat="48.75235" lon="7.26312">
        <ele>353</ele>
        <time>2013-08-07T12:27:19.262Z</time>
      </trkpt>
      <trkpt lat="48.75239" lon="7.26326">
        <ele>353</ele>
        <time>2013-08-07T12:27:22.264Z</time>
      </trkpt>
      <trkpt lat="48.75243" lon="7.26341">
        <ele>353</ele>
        <time>2013-08-07T12:27:25.260Z</time>
      </trkpt>
      <trkpt lat="48.75246" lon="7.26354">
        <ele>352</ele>
        <time>2013-08-07T12:27:28.242Z</time>
      </trkpt>
      <trkpt lat="48.7525" lon="7.26373">
        <ele>352</ele>
        <time>2013-08-07T12:27:31.243Z</time>
      </trkpt>
      <trkpt lat="48.75253" lon="7.26386">
        <ele>350</ele>
        <time>2013-08-07T12:27:33.247Z</time>
      </trkpt>
      <trkpt lat="48.75255" lon="7.264">
        <ele>350</ele>
        <time>2013-08-07T12:27:35.250Z</time>
      </trkpt>
      <trkpt lat="48.75258" lon="7.26415">
        <ele>351</ele>
        <time>2013-08-07T12:27:38.243Z</time>
      </trkpt>
      <trkpt lat="48.75261" lon="7.26431">
        <ele>349</ele>
        <time>2013-08-07T12:27:42.249Z</time>
      </trkpt>
      <trkpt lat="48.75264" lon="7.26447">
        <ele>348</ele>
        <time>2013-08-07T12:27:46.253Z</time>
      </trkpt>
      <trkpt lat="48.75267" lon="7.26462">
        <ele>348</ele>
        <time>2013-08-07T12:27:49.252Z</time>
      </trkpt>
      <trkpt lat="48.75271" lon="7.26478">
        <ele>347</ele>
        <time>2013-08-07T12:27:52.259Z</time>
      </trkpt>
      <trkpt lat="48.75274" lon="7.26495">
        <ele>347</ele>
        <time>2013-08-07T12:27:55.243Z</time>
      </trkpt>
      <trkpt lat="48.75277" lon="7.26509">
        <ele>345</ele>
        <time>2013-08-07T12:27:58.246Z</time>
      </trkpt>
      <trkpt lat="48.75279" lon="7.26524">
        <ele>344</ele>
        <time>2013-08-07T12:28:04.248Z</time>
      </trkpt>
      <trkpt lat="48.75282" lon="7.26539">
        <ele>344</ele>
        <time>2013-08-07T12:28:08.240Z</time>
      </trkpt>
      <trkpt lat="48.75284" lon="7.26557">
        <ele>343</ele>
        <time>2013-08-07T12:28:11.243Z</time>
      </trkpt>
      <trkpt lat="48.75286" lon="7.26571">
        <ele>343</ele>
        <time>2013-08-07T12:28:14.251Z</time>
      </trkpt>
      <trkpt lat="48.75284" lon="7.26558">
        <ele>343</ele>
        <time>2013-08-07T12:28:35.256Z</time>
      </trkpt>
      <trkpt lat="48.75282" lon="7.26574">
        <ele>343</ele>
        <time>2013-08-07T12:28:47.249Z</time>
      </trkpt>
      <trkpt lat="48.75285" lon="7.26587">
        <ele>339</ele>
        <time>2013-08-07T12:28:50.252Z</time>
      </trkpt>
      <trkpt lat="48.75285" lon="7.26571">
        <ele>343</ele>
        <time>2013-08-07T12:29:18.251Z</time>
      </trkpt>
      <trkpt lat="48.75286" lon="7.26556">
        <ele>343</ele>
        <time>2013-08-07T12:30:09.208Z</time>
      </trkpt>
      <trkpt lat="48.75287" lon="7.26542">
        <ele>343</ele>
        <time>2013-08-07T12:30:16.253Z</time>
      </trkpt>
      <trkpt lat="48.75284" lon="7.26528">
        <ele>344</ele>
        <time>2013-08-07T12:30:21.254Z</time>
      </trkpt>
      <trkpt lat="48.75281" lon="7.26512">
        <ele>344</ele>
        <time>2013-08-07T12:30:26.215Z</time>
      </trkpt>
      <trkpt lat="48.75278" lon="7.26497">
        <ele>347</ele>
        <time>2013-08-07T12:30:30.251Z</time>
      </trkpt>
      <trkpt lat="48.75269" lon="7.26489">
        <ele>347</ele>
        <time>2013-08-07T12:30:37.257Z</time>
      </trkpt>
      <trkpt lat="48.75258" lon="7.26493">
        <ele>348</ele>
        <time>2013-08-07T12:30:41.258Z</time>
      </trkpt>
      <trkpt lat="48.75248" lon="7.26495">
        <ele>348</ele>
        <time>2013-08-07T12:30:44.278Z</time>
      </trkpt>
      <trkpt lat="48.75238" lon="7.26496">
        <ele>348</ele>
        <time>2013-08-07T12:30:48.254Z</time>
      </trkpt>
      <trkpt lat="48.75227" lon="7.26498">
        <ele>349</ele>
        <time>2013-08-07T12:30:52.263Z</time>
      </trkpt>
      <trkpt lat="48.75216" lon="7.26499">
        <ele>348</ele>
        <time>2013-08-07T12:30:56.253Z</time>
      </trkpt>
      <trkpt lat="48.75205" lon="7.26501">
        <ele>346</ele>
        <time>2013-08-07T12:31:00.252Z</time>
      </trkpt>
      <trkpt lat="48.75192" lon="7.26502">
        <ele>346</ele>
        <time>2013-08-07T12:31:04.279Z</time>
      </trkpt>
      <trkpt lat="48.75181" lon="7.26501">
        <ele>346</ele>
        <time>2013-08-07T12:31:07.256Z</time>
      </trkpt>
      <trkpt lat="48.75171" lon="7.26507">
        <ele>346</ele>
        <time>2013-08-07T12:31:10.272Z</time>
      </trkpt>
      <trkpt lat="48.75168" lon="7.26521">
        <ele>345</ele>
        <time>2013-08-07T12:31:13.258Z</time>
      </trkpt>
      <trkpt lat="48.75171" lon="7.26536">
        <ele>345</ele>
        <time>2013-08-07T12:31:16.263Z</time>
      </trkpt>
      <trkpt lat="48.75175" lon="7.26552">
        <ele>344</ele>
        <time>2013-08-07T12:31:19.265Z</time>
      </trkpt>
      <trkpt lat="48.75181" lon="7.26564">
        <ele>344</ele>
        <time>2013-08-07T12:31:23.224Z</time>
      </trkpt>
      <trkpt lat="48.75185" lon="7.26578">
        <ele>344</ele>
        <time>2013-08-07T12:31:26.264Z</time>
      </trkpt>
      <trkpt lat="48.75189" lon="7.26592">
        <ele>341</ele>
        <time>2013-08-07T12:31:29.265Z</time>
      </trkpt>
      <trkpt lat="48.75188" lon="7.2661">
        <ele>340</ele>
        <time>2013-08-07T12:31:34.263Z</time>
      </trkpt>
      <trkpt lat="48.75188" lon="7.26628">
        <ele>339</ele>
        <time>2013-08-07T12:31:37.236Z</time>
      </trkpt>
      <trkpt lat="48.75191" lon="7.26641">
        <ele>339</ele>
        <time>2013-08-07T12:31:40.263Z</time>
      </trkpt>
      <trkpt lat="48.75199" lon="7.2665">
        <ele>338</ele>
        <time>2013-08-07T12:31:44.265Z</time>
      </trkpt>
      <trkpt lat="48.75209" lon="7.26656">
        <ele>338</ele>
        <time>2013-08-07T12:31:51.277Z</time>
      </trkpt>
      <trkpt lat="48.75219" lon="7.26655">
        <ele>338</ele>
        <time>2013-08-07T12:31:55.264Z</time>
      </trkpt>
      <trkpt lat="48.75229" lon="7.26655">
        <ele>338</ele>
        <time>2013-08-07T12:31:58.259Z</time>
      </trkpt>
      <trkpt lat="48.7524" lon="7.26654">
        <ele>338</ele>
        <time>2013-08-07T12:32:01.260Z</time>
      </trkpt>
      <trkpt lat="48.75252" lon="7.26655">
        <ele>336</ele>
        <time>2013-08-07T12:32:04.261Z</time>
      </trkpt>
      <trkpt lat="48.75263" lon="7.26658">
        <ele>336</ele>
        <time>2013-08-07T12:32:07.258Z</time>
      </trkpt>
      <trkpt lat="48.75273" lon="7.26662">
        <ele>336</ele>
        <time>2013-08-07T12:32:10.260Z</time>
      </trkpt>
      <trkpt lat="48.75282" lon="7.26668">
        <ele>327</ele>
        <time>2013-08-07T12:32:14.264Z</time>
      </trkpt>
      <trkpt lat="48.7529" lon="7.26673">
        <ele>326</ele>
        <time>2013-08-07T12:32:18.263Z</time>
      </trkpt>
      <trkpt lat="48.7531" lon="7.26668">
        <ele>326</ele>
        <time>2013-08-07T12:32:31.262Z</time>
      </trkpt>
      <trkpt lat="48.75325" lon="7.26665">
        <ele>331</ele>
        <time>2013-08-07T12:32:33.263Z</time>
      </trkpt>
      <trkpt lat="48.75334" lon="7.26667">
        <ele>328</ele>
        <time>2013-08-07T12:32:35.264Z</time>
      </trkpt>
      <trkpt lat="48.75344" lon="7.26671">
        <ele>323</ele>
        <time>2013-08-07T12:32:39.262Z</time>
      </trkpt>
      <trkpt lat="48.75354" lon="7.26671">
        <ele>320</ele>
        <time>2013-08-07T12:32:43.263Z</time>
      </trkpt>
      <trkpt lat="48.75363" lon="7.2667">
        <ele>318</ele>
        <time>2013-08-07T12:32:47.263Z</time>
      </trkpt>
      <trkpt lat="48.75373" lon="7.26667">
        <ele>327</ele>
        <time>2013-08-07T12:32:51.266Z</time>
      </trkpt>
      <trkpt lat="48.75383" lon="7.26663">
        <ele>326</ele>
        <time>2013-08-07T12:32:56.259Z</time>
      </trkpt>
      <trkpt lat="48.75395" lon="7.2666">
        <ele>325</ele>
        <time>2013-08-07T12:33:02.261Z</time>
      </trkpt>
      <trkpt lat="48.75405" lon="7.26658">
        <ele>323</ele>
        <time>2013-08-07T12:33:05.268Z</time>
      </trkpt>
      <trkpt lat="48.75414" lon="7.26652">
        <ele>323</ele>
        <time>2013-08-07T12:33:09.266Z</time>
      </trkpt>
      <trkpt lat="48.75422" lon="7.26644">
        <ele>317</ele>
        <time>2013-08-07T12:33:15.277Z</time>
      </trkpt>
      <trkpt lat="48.7544" lon="7.26646">
        <ele>316</ele>
        <time>2013-08-07T12:33:59.265Z</time>
      </trkpt>
      <trkpt lat="48.75453" lon="7.26648">
        <ele>315</ele>
        <time>2013-08-07T12:34:27.262Z</time>
      </trkpt>
      <trkpt lat="48.75463" lon="7.26645">
        <ele>314</ele>
        <time>2013-08-07T12:35:37.268Z</time>
      </trkpt>
      <trkpt lat="48.75472" lon="7.2664">
        <ele>313</ele>
        <time>2013-08-07T12:35:50.263Z</time>
      </trkpt>
      <trkpt lat="48.75478" lon="7.26622">
        <ele>314</ele>
        <time>2013-08-07T12:36:01.262Z</time>
      </trkpt>
      <trkpt lat="48.75478" lon="7.26608">
        <ele>315</ele>
        <time>2013-08-07T12:36:07.265Z</time>
      </trkpt>
      <trkpt lat="48.75485" lon="7.26596">
        <ele>315</ele>
        <time>2013-08-07T12:36:16.258Z</time>
      </trkpt>
      <trkpt lat="48.75494" lon="7.26587">
        <ele>314</ele>
        <time>2013-08-07T12:36:20.263Z</time>
      </trkpt>
      <trkpt lat="48.75501" lon="7.26578">
        <ele>313</ele>
        <time>2013-08-07T12:36:22.269Z</time>
      </trkpt>
      <trkpt lat="48.75512" lon="7.26564">
        <ele>313</ele>
        <time>2013-08-07T12:36:24.264Z</time>
      </trkpt>
      <trkpt lat="48.75525" lon="7.26553">
        <ele>313</ele>
        <time>2013-08-07T12:36:26.272Z</time>
      </trkpt>
      <trkpt lat="48.75538" lon="7.26545">
        <ele>313</ele>
        <time>2013-08-07T12:36:28.260Z</time>
      </trkpt>
      <trkpt lat="48.75547" lon="7.26539">
        <ele>313</ele>
        <time>2013-08-07T12:36:29.262Z</time>
      </trkpt>
      <trkpt lat="48.7556" lon="7.26529">
        <ele>313</ele>
        <time>2013-08-07T12:36:31.261Z</time>
      </trkpt>
      <trkpt lat="48.7557" lon="7.26524">
        <ele>314</ele>
        <time>2013-08-07T12:36:34.260Z</time>
      </trkpt>
      <trkpt lat="48.75582" lon="7.26515">
        <ele>315</ele>
        <time>2013-08-07T12:36:37.254Z</time>
      </trkpt>
      <trkpt lat="48.75592" lon="7.26507">
        <ele>313</ele>
        <time>2013-08-07T12:36:39.258Z</time>
      </trkpt>
      <trkpt lat="48.75605" lon="7.265">
        <ele>316</ele>
        <time>2013-08-07T12:36:41.261Z</time>
      </trkpt>
      <trkpt lat="48.75614" lon="7.26495">
        <ele>315</ele>
        <time>2013-08-07T12:36:43.260Z</time>
      </trkpt>
      <trkpt lat="48.75625" lon="7.26491">
        <ele>314</ele>
        <time>2013-08-07T12:36:46.261Z</time>
      </trkpt>
      <trkpt lat="48.75639" lon="7.26489">
        <ele>312</ele>
        <time>2013-08-07T12:36:51.256Z</time>
      </trkpt>
      <trkpt lat="48.75651" lon="7.26486">
        <ele>310</ele>
        <time>2013-08-07T12:36:58.266Z</time>
      </trkpt>
      <trkpt lat="48.7566" lon="7.26476">
        <ele>311</ele>
        <time>2013-08-07T12:37:10.265Z</time>
      </trkpt>
      <trkpt lat="48.75668" lon="7.26467">
        <ele>303</ele>
        <time>2013-08-07T12:37:18.265Z</time>
      </trkpt>
      <trkpt lat="48.75677" lon="7.26454">
        <ele>304</ele>
        <time>2013-08-07T12:37:27.259Z</time>
      </trkpt>
      <trkpt lat="48.75684" lon="7.26442">
        <ele>305</ele>
        <time>2013-08-07T12:37:33.268Z</time>
      </trkpt>
      <trkpt lat="48.7569" lon="7.26427">
        <ele>306</ele>
        <time>2013-08-07T12:37:43.266Z</time>
      </trkpt>
      <trkpt lat="48.75699" lon="7.26415">
        <ele>310</ele>
        <time>2013-08-07T12:37:45.269Z</time>
      </trkpt>
      <trkpt lat="48.75706" lon="7.26405">
        <ele>310</ele>
        <time>2013-08-07T12:37:47.262Z</time>
      </trkpt>
      <trkpt lat="48.75713" lon="7.26397">
        <ele>309</ele>
        <time>2013-08-07T12:37:49.274Z</time>
      </trkpt>
      <trkpt lat="48.75722" lon="7.26391">
        <ele>309</ele>
        <time>2013-08-07T12:37:54.268Z</time>
      </trkpt>
      <trkpt lat="48.75728" lon="7.26381">
        <ele>309</ele>
        <time>2013-08-07T12:37:56.269Z</time>
      </trkpt>
      <trkpt lat="48.75734" lon="7.26369">
        <ele>310</ele>
        <time>2013-08-07T12:38:00.267Z</time>
      </trkpt>
      <trkpt lat="48.75742" lon="7.26363">
        <ele>310</ele>
        <time>2013-08-07T12:38:03.267Z</time>
      </trkpt>
      <trkpt lat="48.7575" lon="7.26355">
        <ele>305</ele>
        <time>2013-08-07T12:38:05.266Z</time>
      </trkpt>
      <trkpt lat="48.75759" lon="7.26351">
        <ele>305</ele>
        <time>2013-08-07T12:38:09.263Z</time>
      </trkpt>
      <trkpt lat="48.75766" lon="7.26338">
        <ele>305</ele>
        <time>2013-08-07T12:38:23.264Z</time>
      </trkpt>
      <trkpt lat="48.75773" lon="7.26325">
        <ele>308</ele>
        <time>2013-08-07T12:38:25.267Z</time>
      </trkpt>
      <trkpt lat="48.75781" lon="7.26312">
        <ele>307</ele>
        <time>2013-08-07T12:38:27.262Z</time>
      </trkpt>
      <trkpt lat="48.75795" lon="7.2629">
        <ele>307</ele>
        <time>2013-08-07T12:38:31.270Z</time>
      </trkpt>
      <trkpt lat="48.75801" lon="7.26278">
        <ele>307</ele>
        <time>2013-08-07T12:38:33.269Z</time>
      </trkpt>
      <trkpt lat="48.75806" lon="7.26267">
        <ele>307</ele>
        <time>2013-08-07T12:38:34.269Z</time>
      </trkpt>
      <trkpt lat="48.75816" lon="7.26248">
        <ele>309</ele>
        <time>2013-08-07T12:38:36.267Z</time>
      </trkpt>
      <trkpt lat="48.75822" lon="7.26234">
        <ele>310</ele>
        <time>2013-08-07T12:38:40.268Z</time>
      </trkpt>
      <trkpt lat="48.75831" lon="7.26216">
        <ele>311</ele>
        <time>2013-08-07T12:38:45.265Z</time>
      </trkpt>
      <trkpt lat="48.75839" lon="7.26206">
        <ele>307</ele>
        <time>2013-08-07T12:38:48.266Z</time>
      </trkpt>
      <trkpt lat="48.7585" lon="7.26198">
        <ele>307</ele>
        <time>2013-08-07T12:38:50.263Z</time>
      </trkpt>
      <trkpt lat="48.75858" lon="7.26188">
        <ele>307</ele>
        <time>2013-08-07T12:38:54.265Z</time>
      </trkpt>
      <trkpt lat="48.75867" lon="7.26179">
        <ele>307</ele>
        <time>2013-08-07T12:38:57.249Z</time>
      </trkpt>
      <trkpt lat="48.75878" lon="7.26171">
        <ele>306</ele>
        <time>2013-08-07T12:39:00.265Z</time>
      </trkpt>
      <trkpt lat="48.75884" lon="7.26156">
        <ele>311</ele>
        <time>2013-08-07T12:39:08.251Z</time>
      </trkpt>
      <trkpt lat="48.75893" lon="7.26147">
        <ele>311</ele>
        <time>2013-08-07T12:39:15.271Z</time>
      </trkpt>
      <trkpt lat="48.75901" lon="7.26135">
        <ele>312</ele>
        <time>2013-08-07T12:39:20.276Z</time>
      </trkpt>
      <trkpt lat="48.75908" lon="7.26123">
        <ele>313</ele>
        <time>2013-08-07T12:39:25.286Z</time>
      </trkpt>
      <trkpt lat="48.75918" lon="7.26113">
        <ele>310</ele>
        <time>2013-08-07T12:39:37.268Z</time>
      </trkpt>
      <trkpt lat="48.75924" lon="7.26094">
        <ele>312</ele>
        <time>2013-08-07T12:39:42.283Z</time>
      </trkpt>
      <trkpt lat="48.75935" lon="7.26084">
        <ele>312</ele>
        <time>2013-08-07T12:39:46.266Z</time>
      </trkpt>
      <trkpt lat="48.75944" lon="7.26076">
        <ele>316</ele>
        <time>2013-08-07T12:39:49.265Z</time>
      </trkpt>
      <trkpt lat="48.75955" lon="7.26067">
        <ele>316</ele>
        <time>2013-08-07T12:39:52.265Z</time>
      </trkpt>
      <trkpt lat="48.75962" lon="7.26058">
        <ele>316</ele>
        <time>2013-08-07T12:39:55.263Z</time>
      </trkpt>
      <trkpt lat="48.75973" lon="7.26047">
        <ele>316</ele>
        <time>2013-08-07T12:39:58.270Z</time>
      </trkpt>
      <trkpt lat="48.75982" lon="7.26041">
        <ele>316</ele>
        <time>2013-08-07T12:40:00.267Z</time>
      </trkpt>
      <trkpt lat="48.75992" lon="7.26034">
        <ele>317</ele>
        <time>2013-08-07T12:40:03.262Z</time>
      </trkpt>
      <trkpt lat="48.76004" lon="7.26025">
        <ele>314</ele>
        <time>2013-08-07T12:40:06.221Z</time>
      </trkpt>
      <trkpt lat="48.76012" lon="7.2602">
        <ele>315</ele>
        <time>2013-08-07T12:40:09.266Z</time>
      </trkpt>
      <trkpt lat="48.76023" lon="7.26016">
        <ele>314</ele>
        <time>2013-08-07T12:40:13.263Z</time>
      </trkpt>
      <trkpt lat="48.76033" lon="7.26012">
        <ele>313</ele>
        <time>2013-08-07T12:40:17.262Z</time>
      </trkpt>
      <trkpt lat="48.76044" lon="7.2601">
        <ele>312</ele>
        <time>2013-08-07T12:40:21.250Z</time>
      </trkpt>
      <trkpt lat="48.76054" lon="7.26012">
        <ele>311</ele>
        <time>2013-08-07T12:40:25.270Z</time>
      </trkpt>
      <trkpt lat="48.76066" lon="7.26011">
        <ele>310</ele>
        <time>2013-08-07T12:40:30.267Z</time>
      </trkpt>
      <trkpt lat="48.76077" lon="7.26012">
        <ele>310</ele>
        <time>2013-08-07T12:40:35.269Z</time>
      </trkpt>
      <trkpt lat="48.76087" lon="7.26016">
        <ele>309</ele>
        <time>2013-08-07T12:40:38.266Z</time>
      </trkpt>
      <trkpt lat="48.76096" lon="7.26019">
        <ele>309</ele>
        <time>2013-08-07T12:40:41.267Z</time>
      </trkpt>
      <trkpt lat="48.76103" lon="7.26027">
        <ele>309</ele>
        <time>2013-08-07T12:40:48.242Z</time>
      </trkpt>
      <trkpt lat="48.76113" lon="7.26038">
        <ele>310</ele>
        <time>2013-08-07T12:40:56.272Z</time>
      </trkpt>
      <trkpt lat="48.76122" lon="7.2604">
        <ele>310</ele>
        <time>2013-08-07T12:41:00.266Z</time>
      </trkpt>
      <trkpt lat="48.76133" lon="7.26039">
        <ele>310</ele>
        <time>2013-08-07T12:41:03.278Z</time>
      </trkpt>
      <trkpt lat="48.76145" lon="7.26037">
        <ele>310</ele>
        <time>2013-08-07T12:41:06.263Z</time>
      </trkpt>
      <trkpt lat="48.76156" lon="7.26035">
        <ele>310</ele>
        <time>2013-08-07T12:41:08.278Z</time>
      </trkpt>
      <trkpt lat="48.76166" lon="7.26035">
        <ele>310</ele>
        <time>2013-08-07T12:41:11.286Z</time>
      </trkpt>
      <trkpt lat="48.76177" lon="7.26035">
        <ele>313</ele>
        <time>2013-08-07T12:41:15.285Z</time>
      </trkpt>
      <trkpt lat="48.76187" lon="7.26038">
        <ele>314</ele>
        <time>2013-08-07T12:41:19.276Z</time>
      </trkpt>
      <trkpt lat="48.76198" lon="7.26043">
        <ele>314</ele>
        <time>2013-08-07T12:41:24.276Z</time>
      </trkpt>
      <trkpt lat="48.76207" lon="7.26046">
        <ele>315</ele>
        <time>2013-08-07T12:41:28.264Z</time>
      </trkpt>
      <trkpt lat="48.76216" lon="7.26049">
        <ele>315</ele>
        <time>2013-08-07T12:41:32.262Z</time>
      </trkpt>
      <trkpt lat="48.76226" lon="7.2605">
        <ele>316</ele>
        <time>2013-08-07T12:41:37.279Z</time>
      </trkpt>
      <trkpt lat="48.76237" lon="7.26052">
        <ele>316</ele>
        <time>2013-08-07T12:41:41.290Z</time>
      </trkpt>
      <trkpt lat="48.76246" lon="7.26056">
        <ele>316</ele>
        <time>2013-08-07T12:41:45.270Z</time>
      </trkpt>
      <trkpt lat="48.76256" lon="7.2606">
        <ele>321</ele>
        <time>2013-08-07T12:41:51.261Z</time>
      </trkpt>
      <trkpt lat="48.76266" lon="7.26066">
        <ele>321</ele>
        <time>2013-08-07T12:41:56.264Z</time>
      </trkpt>
      <trkpt lat="48.76276" lon="7.2607">
        <ele>322</ele>
        <time>2013-08-07T12:42:00.273Z</time>
      </trkpt>
      <trkpt lat="48.76285" lon="7.26074">
        <ele>322</ele>
        <time>2013-08-07T12:42:04.272Z</time>
      </trkpt>
      <trkpt lat="48.76295" lon="7.26077">
        <ele>323</ele>
        <time>2013-08-07T12:42:09.279Z</time>
      </trkpt>
      <trkpt lat="48.76304" lon="7.26077">
        <ele>324</ele>
        <time>2013-08-07T12:42:15.278Z</time>
      </trkpt>
      <trkpt lat="48.76314" lon="7.26082">
        <ele>325</ele>
        <time>2013-08-07T12:42:21.276Z</time>
      </trkpt>
      <trkpt lat="48.76324" lon="7.26087">
        <ele>325</ele>
        <time>2013-08-07T12:42:27.276Z</time>
      </trkpt>
      <trkpt lat="48.76334" lon="7.26091">
        <ele>327</ele>
        <time>2013-08-07T12:42:33.280Z</time>
      </trkpt>
      <trkpt lat="48.76342" lon="7.26098">
        <ele>328</ele>
        <time>2013-08-07T12:42:39.276Z</time>
      </trkpt>
      <trkpt lat="48.76349" lon="7.26109">
        <ele>328</ele>
        <time>2013-08-07T12:42:44.281Z</time>
      </trkpt>
      <trkpt lat="48.76355" lon="7.26121">
        <ele>328</ele>
        <time>2013-08-07T12:42:47.279Z</time>
      </trkpt>
      <trkpt lat="48.76359" lon="7.26133">
        <ele>328</ele>
        <time>2013-08-07T12:42:50.276Z</time>
      </trkpt>
      <trkpt lat="48.76364" lon="7.26149">
        <ele>328</ele>
        <time>2013-08-07T12:42:54.285Z</time>
      </trkpt>
      <trkpt lat="48.76369" lon="7.26163">
        <ele>328</ele>
        <time>2013-08-07T12:42:57.288Z</time>
      </trkpt>
      <trkpt lat="48.76375" lon="7.26177">
        <ele>328</ele>
        <time>2013-08-07T12:43:00.276Z</time>
      </trkpt>
      <trkpt lat="48.7638" lon="7.26191">
        <ele>328</ele>
        <time>2013-08-07T12:43:03.281Z</time>
      </trkpt>
      <trkpt lat="48.76385" lon="7.26204">
        <ele>328</ele>
        <time>2013-08-07T12:43:06.281Z</time>
      </trkpt>
      <trkpt lat="48.76391" lon="7.26216">
        <ele>328</ele>
        <time>2013-08-07T12:43:09.283Z</time>
      </trkpt>
      <trkpt lat="48.76397" lon="7.26228">
        <ele>328</ele>
        <time>2013-08-07T12:43:12.282Z</time>
      </trkpt>
      <trkpt lat="48.76402" lon="7.26241">
        <ele>329</ele>
        <time>2013-08-07T12:43:15.294Z</time>
      </trkpt>
      <trkpt lat="48.76407" lon="7.26253">
        <ele>329</ele>
        <time>2013-08-07T12:43:18.265Z</time>
      </trkpt>
      <trkpt lat="48.76413" lon="7.26265">
        <ele>328</ele>
        <time>2013-08-07T12:43:21.268Z</time>
      </trkpt>
      <trkpt lat="48.7642" lon="7.26275">
        <ele>330</ele>
        <time>2013-08-07T12:43:24.276Z</time>
      </trkpt>
      <trkpt lat="48.76429" lon="7.26284">
        <ele>330</ele>
        <time>2013-08-07T12:43:27.280Z</time>
      </trkpt>
      <trkpt lat="48.76438" lon="7.26292">
        <ele>330</ele>
        <time>2013-08-07T12:43:30.275Z</time>
      </trkpt>
      <trkpt lat="48.76448" lon="7.26299">
        <ele>330</ele>
        <time>2013-08-07T12:43:33.279Z</time>
      </trkpt>
      <trkpt lat="48.76456" lon="7.26306">
        <ele>330</ele>
        <time>2013-08-07T12:43:36.279Z</time>
      </trkpt>
      <trkpt lat="48.76466" lon="7.26312">
        <ele>331</ele>
        <time>2013-08-07T12:43:39.281Z</time>
      </trkpt>
      <trkpt lat="48.76474" lon="7.26318">
        <ele>331</ele>
        <time>2013-08-07T12:43:42.282Z</time>
      </trkpt>
      <trkpt lat="48.76483" lon="7.26324">
        <ele>331</ele>
        <time>2013-08-07T12:43:45.277Z</time>
      </trkpt>
      <trkpt lat="48.76492" lon="7.26333">
        <ele>331</ele>
        <time>2013-08-07T12:43:48.282Z</time>
      </trkpt>
      <trkpt lat="48.76501" lon="7.26338">
        <ele>331</ele>
        <time>2013-08-07T12:43:51.280Z</time>
      </trkpt>
      <trkpt lat="48.76509" lon="7.26343">
        <ele>331</ele>
        <time>2013-08-07T12:43:54.284Z</time>
      </trkpt>
      <trkpt lat="48.76518" lon="7.26348">
        <ele>331</ele>
        <time>2013-08-07T12:43:57.283Z</time>
      </trkpt>
      <trkpt lat="48.7653" lon="7.26355">
        <ele>331</ele>
        <time>2013-08-07T12:44:01.280Z</time>
      </trkpt>
      <trkpt lat="48.76539" lon="7.26361">
        <ele>331</ele>
        <time>2013-08-07T12:44:04.277Z</time>
      </trkpt>
      <trkpt lat="48.76552" lon="7.26368">
        <ele>331</ele>
        <time>2013-08-07T12:44:07.279Z</time>
      </trkpt>
      <trkpt lat="48.76563" lon="7.26373">
        <ele>331</ele>
        <time>2013-08-07T12:44:10.266Z</time>
      </trkpt>
      <trkpt lat="48.76573" lon="7.26381">
        <ele>331</ele>
        <time>2013-08-07T12:44:13.281Z</time>
      </trkpt>
      <trkpt lat="48.76582" lon="7.26388">
        <ele>331</ele>
        <time>2013-08-07T12:44:16.280Z</time>
      </trkpt>
      <trkpt lat="48.76591" lon="7.26396">
        <ele>331</ele>
        <time>2013-08-07T12:44:19.282Z</time>
      </trkpt>
      <trkpt lat="48.76599" lon="7.26403">
        <ele>331</ele>
        <time>2013-08-07T12:44:22.225Z</time>
      </trkpt>
      <trkpt lat="48.7661" lon="7.2641">
        <ele>331</ele>
        <time>2013-08-07T12:44:25.280Z</time>
      </trkpt>
      <trkpt lat="48.7662" lon="7.26415">
        <ele>331</ele>
        <time>2013-08-07T12:44:28.281Z</time>
      </trkpt>
      <trkpt lat="48.7663" lon="7.26423">
        <ele>329</ele>
        <time>2013-08-07T12:44:32.275Z</time>
      </trkpt>
      <trkpt lat="48.76629" lon="7.26438">
        <ele>329</ele>
        <time>2013-08-07T12:44:35.287Z</time>
      </trkpt>
      <trkpt lat="48.76627" lon="7.26456">
        <ele>329</ele>
        <time>2013-08-07T12:44:38.262Z</time>
      </trkpt>
      <trkpt lat="48.76624" lon="7.2647">
        <ele>329</ele>
        <time>2013-08-07T12:44:41.259Z</time>
      </trkpt>
      <trkpt lat="48.7662" lon="7.26486">
        <ele>329</ele>
        <time>2013-08-07T12:44:45.264Z</time>
      </trkpt>
      <trkpt lat="48.76617" lon="7.265">
        <ele>329</ele>
        <time>2013-08-07T12:44:48.261Z</time>
      </trkpt>
      <trkpt lat="48.76615" lon="7.26513">
        <ele>328</ele>
        <time>2013-08-07T12:44:51.267Z</time>
      </trkpt>
      <trkpt lat="48.76613" lon="7.26529">
        <ele>328</ele>
        <time>2013-08-07T12:44:54.267Z</time>
      </trkpt>
      <trkpt lat="48.76611" lon="7.26543">
        <ele>328</ele>
        <time>2013-08-07T12:44:57.281Z</time>
      </trkpt>
      <trkpt lat="48.76608" lon="7.26559">
        <ele>328</ele>
        <time>2013-08-07T12:45:00.282Z</time>
      </trkpt>
      <trkpt lat="48.76605" lon="7.26575">
        <ele>328</ele>
        <time>2013-08-07T12:45:03.294Z</time>
      </trkpt>
      <trkpt lat="48.76602" lon="7.2659">
        <ele>327</ele>
        <time>2013-08-07T12:45:06.295Z</time>
      </trkpt>
      <trkpt lat="48.766" lon="7.26606">
        <ele>327</ele>
        <time>2013-08-07T12:45:09.265Z</time>
      </trkpt>
      <trkpt lat="48.76598" lon="7.26621">
        <ele>327</ele>
        <time>2013-08-07T12:45:12.272Z</time>
      </trkpt>
      <trkpt lat="48.76596" lon="7.26638">
        <ele>326</ele>
        <time>2013-08-07T12:45:16.269Z</time>
      </trkpt>
      <trkpt lat="48.76596" lon="7.26654">
        <ele>326</ele>
        <time>2013-08-07T12:45:19.273Z</time>
      </trkpt>
      <trkpt lat="48.76595" lon="7.26669">
        <ele>325</ele>
        <time>2013-08-07T12:45:22.298Z</time>
      </trkpt>
      <trkpt lat="48.76595" lon="7.26684">
        <ele>325</ele>
        <time>2013-08-07T12:45:25.281Z</time>
      </trkpt>
      <trkpt lat="48.76596" lon="7.26698">
        <ele>325</ele>
        <time>2013-08-07T12:45:28.275Z</time>
      </trkpt>
      <trkpt lat="48.76597" lon="7.26714">
        <ele>325</ele>
        <time>2013-08-07T12:45:32.264Z</time>
      </trkpt>
      <trkpt lat="48.76598" lon="7.2673">
        <ele>325</ele>
        <time>2013-08-07T12:45:37.263Z</time>
      </trkpt>
      <trkpt lat="48.766" lon="7.26744">
        <ele>325</ele>
        <time>2013-08-07T12:45:41.277Z</time>
      </trkpt>
      <trkpt lat="48.76603" lon="7.26759">
        <ele>325</ele>
        <time>2013-08-07T12:45:46.256Z</time>
      </trkpt>
      <trkpt lat="48.76607" lon="7.26776">
        <ele>325</ele>
        <time>2013-08-07T12:45:50.259Z</time>
      </trkpt>
      <trkpt lat="48.7661" lon="7.26789">
        <ele>325</ele>
        <time>2013-08-07T12:45:53.274Z</time>
      </trkpt>
      <trkpt lat="48.76615" lon="7.26805">
        <ele>325</ele>
        <time>2013-08-07T12:45:57.278Z</time>
      </trkpt>
      <trkpt lat="48.76621" lon="7.26819">
        <ele>325</ele>
        <time>2013-08-07T12:46:01.284Z</time>
      </trkpt>
      <trkpt lat="48.76625" lon="7.26832">
        <ele>325</ele>
        <time>2013-08-07T12:46:04.285Z</time>
      </trkpt>
      <trkpt lat="48.76631" lon="7.26848">
        <ele>325</ele>
        <time>2013-08-07T12:46:08.227Z</time>
      </trkpt>
      <trkpt lat="48.76635" lon="7.26864">
        <ele>325</ele>
        <time>2013-08-07T12:46:11.276Z</time>
      </trkpt>
      <trkpt lat="48.7664" lon="7.26877">
        <ele>325</ele>
        <time>2013-08-07T12:46:14.279Z</time>
      </trkpt>
      <trkpt lat="48.76644" lon="7.26892">
        <ele>325</ele>
        <time>2013-08-07T12:46:17.288Z</time>
      </trkpt>
      <trkpt lat="48.76648" lon="7.26909">
        <ele>325</ele>
        <time>2013-08-07T12:46:21.284Z</time>
      </trkpt>
      <trkpt lat="48.76652" lon="7.26925">
        <ele>325</ele>
        <time>2013-08-07T12:46:24.277Z</time>
      </trkpt>
      <trkpt lat="48.76656" lon="7.2694">
        <ele>325</ele>
        <time>2013-08-07T12:46:27.277Z</time>
      </trkpt>
      <trkpt lat="48.7666" lon="7.26954">
        <ele>325</ele>
        <time>2013-08-07T12:46:30.279Z</time>
      </trkpt>
      <trkpt lat="48.76664" lon="7.26971">
        <ele>325</ele>
        <time>2013-08-07T12:46:33.283Z</time>
      </trkpt>
      <trkpt lat="48.76668" lon="7.26993">
        <ele>326</ele>
        <time>2013-08-07T12:46:36.251Z</time>
      </trkpt>
      <trkpt lat="48.76671" lon="7.27012">
        <ele>326</ele>
        <time>2013-08-07T12:46:38.267Z</time>
      </trkpt>
      <trkpt lat="48.76673" lon="7.27028">
        <ele>325</ele>
        <time>2013-08-07T12:46:40.295Z</time>
      </trkpt>
      <trkpt lat="48.76677" lon="7.27047">
        <ele>325</ele>
        <time>2013-08-07T12:46:42.268Z</time>
      </trkpt>
      <trkpt lat="48.76679" lon="7.27064">
        <ele>325</ele>
        <time>2013-08-07T12:46:44.274Z</time>
      </trkpt>
      <trkpt lat="48.76677" lon="7.27083">
        <ele>326</ele>
        <time>2013-08-07T12:46:47.296Z</time>
      </trkpt>
      <trkpt lat="48.76673" lon="7.27096">
        <ele>325</ele>
        <time>2013-08-07T12:46:50.266Z</time>
      </trkpt>
      <trkpt lat="48.7667" lon="7.27109">
        <ele>325</ele>
        <time>2013-08-07T12:46:53.292Z</time>
      </trkpt>
      <trkpt lat="48.76667" lon="7.27125">
        <ele>326</ele>
        <time>2013-08-07T12:46:56.279Z</time>
      </trkpt>
      <trkpt lat="48.76664" lon="7.27141">
        <ele>326</ele>
        <time>2013-08-07T12:46:59.278Z</time>
      </trkpt>
      <trkpt lat="48.76662" lon="7.27157">
        <ele>326</ele>
        <time>2013-08-07T12:47:02.281Z</time>
      </trkpt>
      <trkpt lat="48.76661" lon="7.27173">
        <ele>326</ele>
        <time>2013-08-07T12:47:05.284Z</time>
      </trkpt>
      <trkpt lat="48.76659" lon="7.27187">
        <ele>327</ele>
        <time>2013-08-07T12:47:08.223Z</time>
      </trkpt>
      <trkpt lat="48.76657" lon="7.27205">
        <ele>327</ele>
        <time>2013-08-07T12:47:12.272Z</time>
      </trkpt>
      <trkpt lat="48.76655" lon="7.27219">
        <ele>327</ele>
        <time>2013-08-07T12:47:15.285Z</time>
      </trkpt>
      <trkpt lat="48.76653" lon="7.27236">
        <ele>327</ele>
        <time>2013-08-07T12:47:19.285Z</time>
      </trkpt>
      <trkpt lat="48.76651" lon="7.27252">
        <ele>328</ele>
        <time>2013-08-07T12:47:22.283Z</time>
      </trkpt>
      <trkpt lat="48.76648" lon="7.27265">
        <ele>329</ele>
        <time>2013-08-07T12:47:25.279Z</time>
      </trkpt>
      <trkpt lat="48.7664" lon="7.27273">
        <ele>329</ele>
        <time>2013-08-07T12:47:28.290Z</time>
      </trkpt>
      <trkpt lat="48.76628" lon="7.27275">
        <ele>329</ele>
        <time>2013-08-07T12:47:31.283Z</time>
      </trkpt>
      <trkpt lat="48.76618" lon="7.27274">
        <ele>329</ele>
        <time>2013-08-07T12:47:34.280Z</time>
      </trkpt>
      <trkpt lat="48.76608" lon="7.27273">
        <ele>330</ele>
        <time>2013-08-07T12:47:37.278Z</time>
      </trkpt>
      <trkpt lat="48.76596" lon="7.27271">
        <ele>330</ele>
        <time>2013-08-07T12:47:41.279Z</time>
      </trkpt>
      <trkpt lat="48.76585" lon="7.27266">
        <ele>329</ele>
        <time>2013-08-07T12:47:44.280Z</time>
      </trkpt>
      <trkpt lat="48.76576" lon="7.27264">
        <ele>330</ele>
        <time>2013-08-07T12:47:47.285Z</time>
      </trkpt>
      <trkpt lat="48.76564" lon="7.27261">
        <ele>331</ele>
        <time>2013-08-07T12:47:51.283Z</time>
      </trkpt>
      <trkpt lat="48.76554" lon="7.27259">
        <ele>331</ele>
        <time>2013-08-07T12:47:54.282Z</time>
      </trkpt>
      <trkpt lat="48.76544" lon="7.27258">
        <ele>331</ele>
        <time>2013-08-07T12:47:57.283Z</time>
      </trkpt>
      <trkpt lat="48.76534" lon="7.27257">
        <ele>332</ele>
        <time>2013-08-07T12:48:00.269Z</time>
      </trkpt>
      <trkpt lat="48.76524" lon="7.27257">
        <ele>332</ele>
        <time>2013-08-07T12:48:04.276Z</time>
      </trkpt>
      <trkpt lat="48.76514" lon="7.27257">
        <ele>332</ele>
        <time>2013-08-07T12:48:08.283Z</time>
      </trkpt>
      <trkpt lat="48.76503" lon="7.2726">
        <ele>333</ele>
        <time>2013-08-07T12:48:12.282Z</time>
      </trkpt>
      <trkpt lat="48.76491" lon="7.27263">
        <ele>333</ele>
        <time>2013-08-07T12:48:16.264Z</time>
      </trkpt>
      <trkpt lat="48.76481" lon="7.27265">
        <ele>333</ele>
        <time>2013-08-07T12:48:20.278Z</time>
      </trkpt>
      <trkpt lat="48.7647" lon="7.27269">
        <ele>333</ele>
        <time>2013-08-07T12:48:24.267Z</time>
      </trkpt>
      <trkpt lat="48.7646" lon="7.27272">
        <ele>333</ele>
        <time>2013-08-07T12:48:27.269Z</time>
      </trkpt>
      <trkpt lat="48.76449" lon="7.27277">
        <ele>333</ele>
        <time>2013-08-07T12:48:31.265Z</time>
      </trkpt>
      <trkpt lat="48.76437" lon="7.27281">
        <ele>333</ele>
        <time>2013-08-07T12:48:35.267Z</time>
      </trkpt>
      <trkpt lat="48.76427" lon="7.27285">
        <ele>333</ele>
        <time>2013-08-07T12:48:39.268Z</time>
      </trkpt>
      <trkpt lat="48.76416" lon="7.27287">
        <ele>335</ele>
        <time>2013-08-07T12:48:43.264Z</time>
      </trkpt>
      <trkpt lat="48.76406" lon="7.27288">
        <ele>335</ele>
        <time>2013-08-07T12:48:47.272Z</time>
      </trkpt>
      <trkpt lat="48.76395" lon="7.27287">
        <ele>335</ele>
        <time>2013-08-07T12:48:51.269Z</time>
      </trkpt>
      <trkpt lat="48.76385" lon="7.27285">
        <ele>335</ele>
        <time>2013-08-07T12:48:55.266Z</time>
      </trkpt>
      <trkpt lat="48.76375" lon="7.27279">
        <ele>335</ele>
        <time>2013-08-07T12:48:59.273Z</time>
      </trkpt>
      <trkpt lat="48.76365" lon="7.27274">
        <ele>335</ele>
        <time>2013-08-07T12:49:03.266Z</time>
      </trkpt>
      <trkpt lat="48.76356" lon="7.27268">
        <ele>335</ele>
        <time>2013-08-07T12:49:06.260Z</time>
      </trkpt>
      <trkpt lat="48.76345" lon="7.27264">
        <ele>335</ele>
        <time>2013-08-07T12:49:10.267Z</time>
      </trkpt>
      <trkpt lat="48.76334" lon="7.27258">
        <ele>335</ele>
        <time>2013-08-07T12:49:14.277Z</time>
      </trkpt>
      <trkpt lat="48.76323" lon="7.27253">
        <ele>336</ele>
        <time>2013-08-07T12:49:18.260Z</time>
      </trkpt>
      <trkpt lat="48.76313" lon="7.2725">
        <ele>335</ele>
        <time>2013-08-07T12:49:22.261Z</time>
      </trkpt>
      <trkpt lat="48.76302" lon="7.27244">
        <ele>334</ele>
        <time>2013-08-07T12:49:26.266Z</time>
      </trkpt>
      <trkpt lat="48.76293" lon="7.27241">
        <ele>334</ele>
        <time>2013-08-07T12:49:29.265Z</time>
      </trkpt>
      <trkpt lat="48.76282" lon="7.27236">
        <ele>335</ele>
        <time>2013-08-07T12:49:33.247Z</time>
      </trkpt>
      <trkpt lat="48.76271" lon="7.27231">
        <ele>335</ele>
        <time>2013-08-07T12:49:37.269Z</time>
      </trkpt>
      <trkpt lat="48.7626" lon="7.27226">
        <ele>335</ele>
        <time>2013-08-07T12:49:41.268Z</time>
      </trkpt>
      <trkpt lat="48.76249" lon="7.27221">
        <ele>336</ele>
        <time>2013-08-07T12:49:45.269Z</time>
      </trkpt>
      <trkpt lat="48.7624" lon="7.27216">
        <ele>336</ele>
        <time>2013-08-07T12:49:48.266Z</time>
      </trkpt>
      <trkpt lat="48.76231" lon="7.27208">
        <ele>336</ele>
        <time>2013-08-07T12:49:51.271Z</time>
      </trkpt>
      <trkpt lat="48.7622" lon="7.27202">
        <ele>336</ele>
        <time>2013-08-07T12:49:55.268Z</time>
      </trkpt>
      <trkpt lat="48.7621" lon="7.27197">
        <ele>336</ele>
        <time>2013-08-07T12:49:58.264Z</time>
      </trkpt>
      <trkpt lat="48.762" lon="7.27194">
        <ele>336</ele>
        <time>2013-08-07T12:50:01.266Z</time>
      </trkpt>
      <trkpt lat="48.7619" lon="7.27192">
        <ele>336</ele>
        <time>2013-08-07T12:50:04.271Z</time>
      </trkpt>
      <trkpt lat="48.76181" lon="7.27191">
        <ele>336</ele>
        <time>2013-08-07T12:50:07.268Z</time>
      </trkpt>
      <trkpt lat="48.7617" lon="7.27189">
        <ele>336</ele>
        <time>2013-08-07T12:50:11.263Z</time>
      </trkpt>
      <trkpt lat="48.7616" lon="7.27191">
        <ele>338</ele>
        <time>2013-08-07T12:50:15.253Z</time>
      </trkpt>
      <trkpt lat="48.7615" lon="7.27194">
        <ele>339</ele>
        <time>2013-08-07T12:50:19.271Z</time>
      </trkpt>
      <trkpt lat="48.76139" lon="7.27202">
        <ele>339</ele>
        <time>2013-08-07T12:50:24.256Z</time>
      </trkpt>
      <trkpt lat="48.76132" lon="7.27211">
        <ele>340</ele>
        <time>2013-08-07T12:50:28.247Z</time>
      </trkpt>
      <trkpt lat="48.76125" lon="7.27221">
        <ele>340</ele>
        <time>2013-08-07T12:50:32.283Z</time>
      </trkpt>
      <trkpt lat="48.76119" lon="7.27234">
        <ele>340</ele>
        <time>2013-08-07T12:50:38.285Z</time>
      </trkpt>
      <trkpt lat="48.76113" lon="7.27245">
        <ele>341</ele>
        <time>2013-08-07T12:50:42.265Z</time>
      </trkpt>
      <trkpt lat="48.76107" lon="7.27256">
        <ele>343</ele>
        <time>2013-08-07T12:50:47.273Z</time>
      </trkpt>
      <trkpt lat="48.76103" lon="7.2727">
        <ele>343</ele>
        <time>2013-08-07T12:50:51.256Z</time>
      </trkpt>
      <trkpt lat="48.76099" lon="7.27284">
        <ele>343</ele>
        <time>2013-08-07T12:50:54.263Z</time>
      </trkpt>
      <trkpt lat="48.76093" lon="7.27299">
        <ele>344</ele>
        <time>2013-08-07T12:50:58.243Z</time>
      </trkpt>
      <trkpt lat="48.76088" lon="7.27311">
        <ele>344</ele>
        <time>2013-08-07T12:51:02.252Z</time>
      </trkpt>
      <trkpt lat="48.76083" lon="7.27323">
        <ele>346</ele>
        <time>2013-08-07T12:51:06.253Z</time>
      </trkpt>
      <trkpt lat="48.76076" lon="7.27335">
        <ele>346</ele>
        <time>2013-08-07T12:51:10.253Z</time>
      </trkpt>
      <trkpt lat="48.76068" lon="7.27345">
        <ele>347</ele>
        <time>2013-08-07T12:51:14.225Z</time>
      </trkpt>
      <trkpt lat="48.76061" lon="7.27354">
        <ele>347</ele>
        <time>2013-08-07T12:51:18.261Z</time>
      </trkpt>
      <trkpt lat="48.76053" lon="7.27362">
        <ele>347</ele>
        <time>2013-08-07T12:51:22.248Z</time>
      </trkpt>
      <trkpt lat="48.76044" lon="7.2737">
        <ele>347</ele>
        <time>2013-08-07T12:51:26.257Z</time>
      </trkpt>
      <trkpt lat="48.76037" lon="7.27378">
        <ele>347</ele>
        <time>2013-08-07T12:51:30.275Z</time>
      </trkpt>
      <trkpt lat="48.76039" lon="7.27393">
        <ele>347</ele>
        <time>2013-08-07T12:51:35.265Z</time>
      </trkpt>
      <trkpt lat="48.76042" lon="7.27406">
        <ele>347</ele>
        <time>2013-08-07T12:51:41.265Z</time>
      </trkpt>
      <trkpt lat="48.76047" lon="7.2742">
        <ele>349</ele>
        <time>2013-08-07T12:51:47.263Z</time>
      </trkpt>
      <trkpt lat="48.76049" lon="7.27435">
        <ele>349</ele>
        <time>2013-08-07T12:51:52.261Z</time>
      </trkpt>
      <trkpt lat="48.76046" lon="7.2745">
        <ele>349</ele>
        <time>2013-08-07T12:51:58.253Z</time>
      </trkpt>
      <trkpt lat="48.76039" lon="7.27463">
        <ele>350</ele>
        <time>2013-08-07T12:52:04.249Z</time>
      </trkpt>
      <trkpt lat="48.76033" lon="7.27473">
        <ele>350</ele>
        <time>2013-08-07T12:52:10.228Z</time>
      </trkpt>
      <trkpt lat="48.76026" lon="7.27486">
        <ele>350</ele>
        <time>2013-08-07T12:52:15.277Z</time>
      </trkpt>
      <trkpt lat="48.76018" lon="7.27496">
        <ele>350</ele>
        <time>2013-08-07T12:52:19.278Z</time>
      </trkpt>
      <trkpt lat="48.76011" lon="7.27504">
        <ele>352</ele>
        <time>2013-08-07T12:52:23.270Z</time>
      </trkpt>
      <trkpt lat="48.76004" lon="7.27515">
        <ele>352</ele>
        <time>2013-08-07T12:52:28.243Z</time>
      </trkpt>
      <trkpt lat="48.75996" lon="7.27526">
        <ele>352</ele>
        <time>2013-08-07T12:52:33.212Z</time>
      </trkpt>
      <trkpt lat="48.7599" lon="7.27537">
        <ele>353</ele>
        <time>2013-08-07T12:52:37.258Z</time>
      </trkpt>
      <trkpt lat="48.75985" lon="7.27548">
        <ele>353</ele>
        <time>2013-08-07T12:52:41.254Z</time>
      </trkpt>
      <trkpt lat="48.7598" lon="7.27561">
        <ele>353</ele>
        <time>2013-08-07T12:52:44.247Z</time>
      </trkpt>
      <trkpt lat="48.75974" lon="7.27575">
        <ele>353</ele>
        <time>2013-08-07T12:52:48.272Z</time>
      </trkpt>
      <trkpt lat="48.75968" lon="7.27586">
        <ele>355</ele>
        <time>2013-08-07T12:52:52.264Z</time>
      </trkpt>
      <trkpt lat="48.75963" lon="7.27599">
        <ele>355</ele>
        <time>2013-08-07T12:52:55.224Z</time>
      </trkpt>
      <trkpt lat="48.75959" lon="7.27613">
        <ele>355</ele>
        <time>2013-08-07T12:52:59.251Z</time>
      </trkpt>
      <trkpt lat="48.75958" lon="7.27627">
        <ele>355</ele>
        <time>2013-08-07T12:53:03.272Z</time>
      </trkpt>
      <trkpt lat="48.75955" lon="7.27641">
        <ele>355</ele>
        <time>2013-08-07T12:53:07.265Z</time>
      </trkpt>
      <trkpt lat="48.75952" lon="7.27656">
        <ele>355</ele>
        <time>2013-08-07T12:53:12.285Z</time>
      </trkpt>
      <trkpt lat="48.75947" lon="7.27668">
        <ele>356</ele>
        <time>2013-08-07T12:53:17.263Z</time>
      </trkpt>
      <trkpt lat="48.75943" lon="7.2768">
        <ele>356</ele>
        <time>2013-08-07T12:53:22.283Z</time>
      </trkpt>
      <trkpt lat="48.75937" lon="7.27693">
        <ele>356</ele>
        <time>2013-08-07T12:53:27.250Z</time>
      </trkpt>
      <trkpt lat="48.75929" lon="7.27706">
        <ele>356</ele>
        <time>2013-08-07T12:53:32.246Z</time>
      </trkpt>
      <trkpt lat="48.75923" lon="7.27717">
        <ele>357</ele>
        <time>2013-08-07T12:53:36.268Z</time>
      </trkpt>
      <trkpt lat="48.75916" lon="7.27729">
        <ele>358</ele>
        <time>2013-08-07T12:53:41.252Z</time>
      </trkpt>
      <trkpt lat="48.75911" lon="7.27741">
        <ele>359</ele>
        <time>2013-08-07T12:53:45.246Z</time>
      </trkpt>
      <trkpt lat="48.75904" lon="7.27752">
        <ele>359</ele>
        <time>2013-08-07T12:53:49.260Z</time>
      </trkpt>
      <trkpt lat="48.75897" lon="7.27765">
        <ele>359</ele>
        <time>2013-08-07T12:53:54.248Z</time>
      </trkpt>
      <trkpt lat="48.75889" lon="7.27776">
        <ele>360</ele>
        <time>2013-08-07T12:53:59.251Z</time>
      </trkpt>
      <trkpt lat="48.7588" lon="7.27786">
        <ele>360</ele>
        <time>2013-08-07T12:54:03.251Z</time>
      </trkpt>
      <trkpt lat="48.75873" lon="7.27797">
        <ele>360</ele>
        <time>2013-08-07T12:54:07.279Z</time>
      </trkpt>
      <trkpt lat="48.75867" lon="7.27809">
        <ele>360</ele>
        <time>2013-08-07T12:54:11.259Z</time>
      </trkpt>
      <trkpt lat="48.7586" lon="7.27822">
        <ele>360</ele>
        <time>2013-08-07T12:54:15.279Z</time>
      </trkpt>
      <trkpt lat="48.75853" lon="7.27835">
        <ele>360</ele>
        <time>2013-08-07T12:54:19.280Z</time>
      </trkpt>
      <trkpt lat="48.75847" lon="7.27847">
        <ele>360</ele>
        <time>2013-08-07T12:54:23.276Z</time>
      </trkpt>
      <trkpt lat="48.75841" lon="7.27858">
        <ele>360</ele>
        <time>2013-08-07T12:54:27.262Z</time>
      </trkpt>
      <trkpt lat="48.75834" lon="7.2787">
        <ele>360</ele>
        <time>2013-08-07T12:54:31.248Z</time>
      </trkpt>
      <trkpt lat="48.75829" lon="7.27884">
        <ele>362</ele>
        <time>2013-08-07T12:54:35.265Z</time>
      </trkpt>
      <trkpt lat="48.75824" lon="7.27898">
        <ele>362</ele>
        <time>2013-08-07T12:54:39.264Z</time>
      </trkpt>
      <trkpt lat="48.75822" lon="7.27913">
        <ele>362</ele>
        <time>2013-08-07T12:54:43.264Z</time>
      </trkpt>
      <trkpt lat="48.75815" lon="7.27926">
        <ele>363</ele>
        <time>2013-08-07T12:54:47.270Z</time>
      </trkpt>
      <trkpt lat="48.75808" lon="7.27938">
        <ele>363</ele>
        <time>2013-08-07T12:54:51.247Z</time>
      </trkpt>
      <trkpt lat="48.75801" lon="7.27948">
        <ele>363</ele>
        <time>2013-08-07T12:54:55.248Z</time>
      </trkpt>
      <trkpt lat="48.75794" lon="7.2796">
        <ele>363</ele>
        <time>2013-08-07T12:55:00.246Z</time>
      </trkpt>
      <trkpt lat="48.75786" lon="7.27972">
        <ele>363</ele>
        <time>2013-08-07T12:55:04.275Z</time>
      </trkpt>
      <trkpt lat="48.7578" lon="7.27982">
        <ele>363</ele>
        <time>2013-08-07T12:55:08.247Z</time>
      </trkpt>
      <trkpt lat="48.75774" lon="7.27992">
        <ele>363</ele>
        <time>2013-08-07T12:55:13.244Z</time>
      </trkpt>
      <trkpt lat="48.75767" lon="7.28003">
        <ele>363</ele>
        <time>2013-08-07T12:55:21.251Z</time>
      </trkpt>
      <trkpt lat="48.75764" lon="7.28017">
        <ele>363</ele>
        <time>2013-08-07T12:55:30.278Z</time>
      </trkpt>
      <trkpt lat="48.7576" lon="7.2803">
        <ele>363</ele>
        <time>2013-08-07T12:55:36.279Z</time>
      </trkpt>
      <trkpt lat="48.75751" lon="7.28037">
        <ele>363</ele>
        <time>2013-08-07T12:55:42.249Z</time>
      </trkpt>
      <trkpt lat="48.75742" lon="7.28038">
        <ele>364</ele>
        <time>2013-08-07T12:55:48.264Z</time>
      </trkpt>
      <trkpt lat="48.75732" lon="7.28033">
        <ele>364</ele>
        <time>2013-08-07T12:55:53.265Z</time>
      </trkpt>
      <trkpt lat="48.75721" lon="7.28026">
        <ele>364</ele>
        <time>2013-08-07T12:55:58.265Z</time>
      </trkpt>
      <trkpt lat="48.75713" lon="7.28022">
        <ele>364</ele>
        <time>2013-08-07T12:56:03.267Z</time>
      </trkpt>
      <trkpt lat="48.75704" lon="7.28022">
        <ele>364</ele>
        <time>2013-08-07T12:57:02.213Z</time>
      </trkpt>
      <trkpt lat="48.75714" lon="7.28028">
        <ele>364</ele>
        <time>2013-08-07T12:57:10.254Z</time>
      </trkpt>
      <trkpt lat="48.75723" lon="7.28033">
        <ele>364</ele>
        <time>2013-08-07T12:57:14.263Z</time>
      </trkpt>
      <trkpt lat="48.75731" lon="7.28036">
        <ele>364</ele>
        <time>2013-08-07T12:57:17.260Z</time>
      </trkpt>
      <trkpt lat="48.75743" lon="7.28041">
        <ele>364</ele>
        <time>2013-08-07T12:57:21.277Z</time>
      </trkpt>
      <trkpt lat="48.75754" lon="7.28038">
        <ele>363</ele>
        <time>2013-08-07T12:57:25.269Z</time>
      </trkpt>
      <trkpt lat="48.75761" lon="7.28028">
        <ele>363</ele>
        <time>2013-08-07T12:57:28.273Z</time>
      </trkpt>
      <trkpt lat="48.75766" lon="7.28015">
        <ele>363</ele>
        <time>2013-08-07T12:57:31.275Z</time>
      </trkpt>
      <trkpt lat="48.75772" lon="7.28001">
        <ele>363</ele>
        <time>2013-08-07T12:57:34.274Z</time>
      </trkpt>
      <trkpt lat="48.75779" lon="7.27985">
        <ele>363</ele>
        <time>2013-08-07T12:57:37.275Z</time>
      </trkpt>
      <trkpt lat="48.75786" lon="7.2797">
        <ele>363</ele>
        <time>2013-08-07T12:57:40.272Z</time>
      </trkpt>
      <trkpt lat="48.75796" lon="7.27955">
        <ele>363</ele>
        <time>2013-08-07T12:57:43.274Z</time>
      </trkpt>
      <trkpt lat="48.75803" lon="7.27944">
        <ele>363</ele>
        <time>2013-08-07T12:57:45.273Z</time>
      </trkpt>
      <trkpt lat="48.75811" lon="7.27934">
        <ele>363</ele>
        <time>2013-08-07T12:57:47.278Z</time>
      </trkpt>
      <trkpt lat="48.75818" lon="7.27924">
        <ele>363</ele>
        <time>2013-08-07T12:57:49.273Z</time>
      </trkpt>
      <trkpt lat="48.75825" lon="7.27913">
        <ele>362</ele>
        <time>2013-08-07T12:57:51.265Z</time>
      </trkpt>
      <trkpt lat="48.75833" lon="7.27902">
        <ele>362</ele>
        <time>2013-08-07T12:57:53.279Z</time>
      </trkpt>
      <trkpt lat="48.75839" lon="7.27892">
        <ele>360</ele>
        <time>2013-08-07T12:57:55.274Z</time>
      </trkpt>
      <trkpt lat="48.75846" lon="7.27879">
        <ele>360</ele>
        <time>2013-08-07T12:57:58.231Z</time>
      </trkpt>
      <trkpt lat="48.75855" lon="7.27879">
        <ele>360</ele>
        <time>2013-08-07T12:58:13.273Z</time>
      </trkpt>
      <trkpt lat="48.75865" lon="7.27886">
        <ele>360</ele>
        <time>2013-08-07T12:58:18.254Z</time>
      </trkpt>
      <trkpt lat="48.75874" lon="7.27894">
        <ele>360</ele>
        <time>2013-08-07T12:58:22.264Z</time>
      </trkpt>
      <trkpt lat="48.75884" lon="7.279">
        <ele>359</ele>
        <time>2013-08-07T12:58:27.267Z</time>
      </trkpt>
      <trkpt lat="48.75893" lon="7.27907">
        <ele>359</ele>
        <time>2013-08-07T12:58:31.266Z</time>
      </trkpt>
      <trkpt lat="48.75902" lon="7.27917">
        <ele>358</ele>
        <time>2013-08-07T12:58:35.272Z</time>
      </trkpt>
      <trkpt lat="48.75911" lon="7.27924">
        <ele>358</ele>
        <time>2013-08-07T12:58:39.267Z</time>
      </trkpt>
      <trkpt lat="48.75921" lon="7.27931">
        <ele>357</ele>
        <time>2013-08-07T12:58:43.274Z</time>
      </trkpt>
      <trkpt lat="48.75931" lon="7.27939">
        <ele>356</ele>
        <time>2013-08-07T12:58:47.274Z</time>
      </trkpt>
      <trkpt lat="48.75941" lon="7.27948">
        <ele>356</ele>
        <time>2013-08-07T12:58:51.273Z</time>
      </trkpt>
      <trkpt lat="48.7595" lon="7.27955">
        <ele>356</ele>
        <time>2013-08-07T12:58:54.274Z</time>
      </trkpt>
      <trkpt lat="48.75958" lon="7.27962">
        <ele>356</ele>
        <time>2013-08-07T12:58:57.274Z</time>
      </trkpt>
      <trkpt lat="48.75966" lon="7.2797">
        <ele>356</ele>
        <time>2013-08-07T12:59:00.271Z</time>
      </trkpt>
      <trkpt lat="48.75976" lon="7.27978">
        <ele>355</ele>
        <time>2013-08-07T12:59:03.270Z</time>
      </trkpt>
      <trkpt lat="48.75985" lon="7.27985">
        <ele>355</ele>
        <time>2013-08-07T12:59:06.245Z</time>
      </trkpt>
      <trkpt lat="48.75993" lon="7.27991">
        <ele>355</ele>
        <time>2013-08-07T12:59:09.278Z</time>
      </trkpt>
      <trkpt lat="48.76002" lon="7.27998">
        <ele>354</ele>
        <time>2013-08-07T12:59:12.221Z</time>
      </trkpt>
      <trkpt lat="48.76011" lon="7.28006">
        <ele>353</ele>
        <time>2013-08-07T12:59:16.276Z</time>
      </trkpt>
      <trkpt lat="48.76019" lon="7.28014">
        <ele>353</ele>
        <time>2013-08-07T12:59:20.276Z</time>
      </trkpt>
      <trkpt lat="48.76028" lon="7.28018">
        <ele>352</ele>
        <time>2013-08-07T12:59:24.281Z</time>
      </trkpt>
      <trkpt lat="48.76037" lon="7.28024">
        <ele>352</ele>
        <time>2013-08-07T12:59:28.271Z</time>
      </trkpt>
      <trkpt lat="48.76045" lon="7.2803">
        <ele>352</ele>
        <time>2013-08-07T12:59:34.278Z</time>
      </trkpt>
      <trkpt lat="48.76054" lon="7.28037">
        <ele>352</ele>
        <time>2013-08-07T12:59:39.263Z</time>
      </trkpt>
      <trkpt lat="48.76063" lon="7.28044">
        <ele>351</ele>
        <time>2013-08-07T12:59:43.276Z</time>
      </trkpt>
      <trkpt lat="48.76073" lon="7.28053">
        <ele>351</ele>
        <time>2013-08-07T12:59:47.279Z</time>
      </trkpt>
      <trkpt lat="48.76083" lon="7.28061">
        <ele>349</ele>
        <time>2013-08-07T12:59:51.279Z</time>
      </trkpt>
      <trkpt lat="48.76093" lon="7.28069">
        <ele>349</ele>
        <time>2013-08-07T12:59:54.278Z</time>
      </trkpt>
      <trkpt lat="48.76103" lon="7.28077">
        <ele>349</ele>
        <time>2013-08-07T12:59:57.276Z</time>
      </trkpt>
      <trkpt lat="48.76113" lon="7.28084">
        <ele>346</ele>
        <time>2013-08-07T13:00:00.271Z</time>
      </trkpt>
      <trkpt lat="48.76123" lon="7.28091">
        <ele>345</ele>
        <time>2013-08-07T13:00:03.275Z</time>
      </trkpt>
      <trkpt lat="48.76133" lon="7.28097">
        <ele>344</ele>
        <time>2013-08-07T13:00:06.276Z</time>
      </trkpt>
      <trkpt lat="48.76144" lon="7.28103">
        <ele>344</ele>
        <time>2013-08-07T13:00:09.276Z</time>
      </trkpt>
      <trkpt lat="48.76155" lon="7.2811">
        <ele>344</ele>
        <time>2013-08-07T13:00:12.282Z</time>
      </trkpt>
      <trkpt lat="48.76164" lon="7.28117">
        <ele>343</ele>
        <time>2013-08-07T13:00:15.270Z</time>
      </trkpt>
      <trkpt lat="48.76173" lon="7.28122">
        <ele>342</ele>
        <time>2013-08-07T13:00:18.277Z</time>
      </trkpt>
      <trkpt lat="48.76182" lon="7.28129">
        <ele>342</ele>
        <time>2013-08-07T13:00:21.276Z</time>
      </trkpt>
      <trkpt lat="48.76193" lon="7.28135">
        <ele>342</ele>
        <time>2013-08-07T13:00:25.272Z</time>
      </trkpt>
      <trkpt lat="48.76203" lon="7.28142">
        <ele>342</ele>
        <time>2013-08-07T13:00:29.281Z</time>
      </trkpt>
      <trkpt lat="48.76212" lon="7.28149">
        <ele>342</ele>
        <time>2013-08-07T13:00:33.277Z</time>
      </trkpt>
      <trkpt lat="48.7622" lon="7.28157">
        <ele>342</ele>
        <time>2013-08-07T13:00:37.276Z</time>
      </trkpt>
      <trkpt lat="48.7623" lon="7.28165">
        <ele>342</ele>
        <time>2013-08-07T13:00:41.275Z</time>
      </trkpt>
      <trkpt lat="48.7624" lon="7.28172">
        <ele>341</ele>
        <time>2013-08-07T13:00:45.285Z</time>
      </trkpt>
      <trkpt lat="48.76249" lon="7.28181">
        <ele>340</ele>
        <time>2013-08-07T13:00:49.276Z</time>
      </trkpt>
      <trkpt lat="48.76257" lon="7.28189">
        <ele>342</ele>
        <time>2013-08-07T13:00:53.276Z</time>
      </trkpt>
      <trkpt lat="48.76266" lon="7.28198">
        <ele>342</ele>
        <time>2013-08-07T13:00:57.272Z</time>
      </trkpt>
      <trkpt lat="48.76274" lon="7.28207">
        <ele>341</ele>
        <time>2013-08-07T13:01:01.275Z</time>
      </trkpt>
      <trkpt lat="48.76283" lon="7.28219">
        <ele>341</ele>
        <time>2013-08-07T13:01:05.273Z</time>
      </trkpt>
      <trkpt lat="48.7629" lon="7.28228">
        <ele>341</ele>
        <time>2013-08-07T13:01:08.275Z</time>
      </trkpt>
      <trkpt lat="48.76298" lon="7.2824">
        <ele>341</ele>
        <time>2013-08-07T13:01:12.259Z</time>
      </trkpt>
      <trkpt lat="48.76305" lon="7.28251">
        <ele>338</ele>
        <time>2013-08-07T13:01:17.276Z</time>
      </trkpt>
      <trkpt lat="48.76312" lon="7.28262">
        <ele>339</ele>
        <time>2013-08-07T13:01:21.247Z</time>
      </trkpt>
      <trkpt lat="48.76318" lon="7.28271">
        <ele>338</ele>
        <time>2013-08-07T13:01:25.264Z</time>
      </trkpt>
      <trkpt lat="48.76326" lon="7.28283">
        <ele>338</ele>
        <time>2013-08-07T13:01:29.272Z</time>
      </trkpt>
      <trkpt lat="48.76333" lon="7.28293">
        <ele>337</ele>
        <time>2013-08-07T13:01:38.315Z</time>
      </trkpt>
      <trkpt lat="48.76338" lon="7.28304">
        <ele>339</ele>
        <time>2013-08-07T13:05:59.252Z</time>
      </trkpt>
      <trkpt lat="48.76345" lon="7.28315">
        <ele>338</ele>
        <time>2013-08-07T13:06:04.253Z</time>
      </trkpt>
      <trkpt lat="48.76351" lon="7.28325">
        <ele>338</ele>
        <time>2013-08-07T13:06:08.253Z</time>
      </trkpt>
      <trkpt lat="48.76359" lon="7.28336">
        <ele>337</ele>
        <time>2013-08-07T13:06:13.275Z</time>
      </trkpt>
      <trkpt lat="48.76365" lon="7.28347">
        <ele>337</ele>
        <time>2013-08-07T13:06:17.271Z</time>
      </trkpt>
      <trkpt lat="48.76371" lon="7.28359">
        <ele>338</ele>
        <time>2013-08-07T13:06:22.261Z</time>
      </trkpt>
      <trkpt lat="48.76378" lon="7.28371">
        <ele>338</ele>
        <time>2013-08-07T13:06:27.243Z</time>
      </trkpt>
      <trkpt lat="48.76383" lon="7.28384">
        <ele>338</ele>
        <time>2013-08-07T13:06:32.279Z</time>
      </trkpt>
      <trkpt lat="48.76389" lon="7.28397">
        <ele>338</ele>
        <time>2013-08-07T13:06:37.228Z</time>
      </trkpt>
      <trkpt lat="48.76395" lon="7.28412">
        <ele>339</ele>
        <time>2013-08-07T13:06:42.266Z</time>
      </trkpt>
      <trkpt lat="48.76399" lon="7.28424">
        <ele>338</ele>
        <time>2013-08-07T13:06:46.268Z</time>
      </trkpt>
      <trkpt lat="48.76404" lon="7.28439">
        <ele>338</ele>
        <time>2013-08-07T13:06:50.271Z</time>
      </trkpt>
      <trkpt lat="48.7641" lon="7.28453">
        <ele>337</ele>
        <time>2013-08-07T13:06:55.264Z</time>
      </trkpt>
      <trkpt lat="48.76416" lon="7.28467">
        <ele>337</ele>
        <time>2013-08-07T13:07:00.259Z</time>
      </trkpt>
      <trkpt lat="48.76422" lon="7.28479">
        <ele>339</ele>
        <time>2013-08-07T13:07:05.270Z</time>
      </trkpt>
      <trkpt lat="48.76429" lon="7.28492">
        <ele>338</ele>
        <time>2013-08-07T13:07:10.269Z</time>
      </trkpt>
      <trkpt lat="48.76436" lon="7.28503">
        <ele>337</ele>
        <time>2013-08-07T13:07:14.282Z</time>
      </trkpt>
      <trkpt lat="48.76442" lon="7.28516">
        <ele>337</ele>
        <time>2013-08-07T13:07:19.283Z</time>
      </trkpt>
      <trkpt lat="48.7645" lon="7.28528">
        <ele>337</ele>
        <time>2013-08-07T13:07:24.281Z</time>
      </trkpt>
      <trkpt lat="48.76458" lon="7.28537">
        <ele>337</ele>
        <time>2013-08-07T13:07:28.268Z</time>
      </trkpt>
      <trkpt lat="48.76466" lon="7.28546">
        <ele>337</ele>
        <time>2013-08-07T13:07:32.276Z</time>
      </trkpt>
      <trkpt lat="48.76475" lon="7.28555">
        <ele>336</ele>
        <time>2013-08-07T13:07:37.225Z</time>
      </trkpt>
      <trkpt lat="48.76484" lon="7.28564">
        <ele>336</ele>
        <time>2013-08-07T13:07:41.298Z</time>
      </trkpt>
      <trkpt lat="48.76493" lon="7.28573">
        <ele>336</ele>
        <time>2013-08-07T13:07:45.301Z</time>
      </trkpt>
      <trkpt lat="48.76501" lon="7.2858">
        <ele>336</ele>
        <time>2013-08-07T13:07:50.292Z</time>
      </trkpt>
      <trkpt lat="48.76511" lon="7.28589">
        <ele>335</ele>
        <time>2013-08-07T13:07:55.291Z</time>
      </trkpt>
      <trkpt lat="48.76521" lon="7.28596">
        <ele>334</ele>
        <time>2013-08-07T13:08:00.291Z</time>
      </trkpt>
      <trkpt lat="48.76529" lon="7.28604">
        <ele>334</ele>
        <time>2013-08-07T13:08:04.263Z</time>
      </trkpt>
      <trkpt lat="48.76538" lon="7.28611">
        <ele>334</ele>
        <time>2013-08-07T13:08:08.286Z</time>
      </trkpt>
      <trkpt lat="48.76546" lon="7.28618">
        <ele>334</ele>
        <time>2013-08-07T13:08:12.273Z</time>
      </trkpt>
      <trkpt lat="48.76555" lon="7.28624">
        <ele>334</ele>
        <time>2013-08-07T13:08:17.288Z</time>
      </trkpt>
      <trkpt lat="48.76563" lon="7.28631">
        <ele>333</ele>
        <time>2013-08-07T13:08:22.225Z</time>
      </trkpt>
      <trkpt lat="48.76571" lon="7.28638">
        <ele>333</ele>
        <time>2013-08-07T13:08:27.236Z</time>
      </trkpt>
      <trkpt lat="48.7658" lon="7.28645">
        <ele>332</ele>
        <time>2013-08-07T13:08:32.223Z</time>
      </trkpt>
      <trkpt lat="48.76588" lon="7.2865">
        <ele>334</ele>
        <time>2013-08-07T13:08:37.280Z</time>
      </trkpt>
      <trkpt lat="48.76598" lon="7.28656">
        <ele>334</ele>
        <time>2013-08-07T13:08:42.290Z</time>
      </trkpt>
      <trkpt lat="48.76606" lon="7.28661">
        <ele>334</ele>
        <time>2013-08-07T13:08:46.274Z</time>
      </trkpt>
      <trkpt lat="48.76615" lon="7.28665">
        <ele>335</ele>
        <time>2013-08-07T13:08:51.287Z</time>
      </trkpt>
      <trkpt lat="48.76624" lon="7.2867">
        <ele>333</ele>
        <time>2013-08-07T13:08:56.278Z</time>
      </trkpt>
      <trkpt lat="48.76634" lon="7.28676">
        <ele>333</ele>
        <time>2013-08-07T13:09:02.277Z</time>
      </trkpt>
      <trkpt lat="48.76643" lon="7.28682">
        <ele>334</ele>
        <time>2013-08-07T13:09:07.284Z</time>
      </trkpt>
      <trkpt lat="48.76651" lon="7.28689">
        <ele>334</ele>
        <time>2013-08-07T13:09:13.289Z</time>
      </trkpt>
      <trkpt lat="48.76655" lon="7.28702">
        <ele>333</ele>
        <time>2013-08-07T13:09:17.288Z</time>
      </trkpt>
      <trkpt lat="48.76659" lon="7.28714">
        <ele>333</ele>
        <time>2013-08-07T13:09:20.287Z</time>
      </trkpt>
      <trkpt lat="48.76663" lon="7.2873">
        <ele>333</ele>
        <time>2013-08-07T13:09:23.288Z</time>
      </trkpt>
      <trkpt lat="48.76665" lon="7.2875">
        <ele>333</ele>
        <time>2013-08-07T13:09:26.288Z</time>
      </trkpt>
      <trkpt lat="48.76667" lon="7.28764">
        <ele>335</ele>
        <time>2013-08-07T13:09:28.287Z</time>
      </trkpt>
      <trkpt lat="48.76671" lon="7.28783">
        <ele>335</ele>
        <time>2013-08-07T13:09:31.265Z</time>
      </trkpt>
      <trkpt lat="48.76673" lon="7.28802">
        <ele>335</ele>
        <time>2013-08-07T13:09:34.267Z</time>
      </trkpt>
      <trkpt lat="48.76671" lon="7.28818">
        <ele>335</ele>
        <time>2013-08-07T13:09:37.277Z</time>
      </trkpt>
      <trkpt lat="48.76666" lon="7.2883">
        <ele>333</ele>
        <time>2013-08-07T13:09:40.265Z</time>
      </trkpt>
      <trkpt lat="48.76656" lon="7.28838">
        <ele>334</ele>
        <time>2013-08-07T13:09:44.258Z</time>
      </trkpt>
      <trkpt lat="48.76646" lon="7.28847">
        <ele>334</ele>
        <time>2013-08-07T13:09:47.278Z</time>
      </trkpt>
      <trkpt lat="48.76637" lon="7.28854">
        <ele>334</ele>
        <time>2013-08-07T13:09:50.290Z</time>
      </trkpt>
      <trkpt lat="48.76626" lon="7.2886">
        <ele>334</ele>
        <time>2013-08-07T13:09:53.288Z</time>
      </trkpt>
      <trkpt lat="48.76617" lon="7.28868">
        <ele>335</ele>
        <time>2013-08-07T13:09:56.299Z</time>
      </trkpt>
      <trkpt lat="48.7661" lon="7.28876">
        <ele>335</ele>
        <time>2013-08-07T13:09:59.287Z</time>
      </trkpt>
      <trkpt lat="48.76602" lon="7.28888">
        <ele>335</ele>
        <time>2013-08-07T13:10:04.283Z</time>
      </trkpt>
      <trkpt lat="48.76594" lon="7.28898">
        <ele>336</ele>
        <time>2013-08-07T13:10:08.300Z</time>
      </trkpt>
      <trkpt lat="48.76587" lon="7.28908">
        <ele>337</ele>
        <time>2013-08-07T13:10:12.285Z</time>
      </trkpt>
      <trkpt lat="48.7658" lon="7.28916">
        <ele>337</ele>
        <time>2013-08-07T13:10:16.278Z</time>
      </trkpt>
      <trkpt lat="48.76573" lon="7.28925">
        <ele>338</ele>
        <time>2013-08-07T13:10:20.238Z</time>
      </trkpt>
      <trkpt lat="48.76563" lon="7.28934">
        <ele>338</ele>
        <time>2013-08-07T13:10:24.227Z</time>
      </trkpt>
      <trkpt lat="48.76556" lon="7.28943">
        <ele>338</ele>
        <time>2013-08-07T13:10:28.260Z</time>
      </trkpt>
      <trkpt lat="48.76548" lon="7.28953">
        <ele>338</ele>
        <time>2013-08-07T13:10:34.287Z</time>
      </trkpt>
      <trkpt lat="48.7654" lon="7.28964">
        <ele>338</ele>
        <time>2013-08-07T13:10:39.228Z</time>
      </trkpt>
      <trkpt lat="48.76532" lon="7.28974">
        <ele>338</ele>
        <time>2013-08-07T13:10:43.228Z</time>
      </trkpt>
      <trkpt lat="48.76525" lon="7.28985">
        <ele>338</ele>
        <time>2013-08-07T13:10:47.229Z</time>
      </trkpt>
      <trkpt lat="48.76518" lon="7.28994">
        <ele>338</ele>
        <time>2013-08-07T13:10:51.220Z</time>
      </trkpt>
      <trkpt lat="48.76511" lon="7.29007">
        <ele>339</ele>
        <time>2013-08-07T13:10:55.285Z</time>
      </trkpt>
      <trkpt lat="48.76505" lon="7.29017">
        <ele>339</ele>
        <time>2013-08-07T13:10:59.285Z</time>
      </trkpt>
      <trkpt lat="48.76497" lon="7.29029">
        <ele>338</ele>
        <time>2013-08-07T13:11:03.276Z</time>
      </trkpt>
      <trkpt lat="48.7649" lon="7.29041">
        <ele>338</ele>
        <time>2013-08-07T13:11:07.274Z</time>
      </trkpt>
      <trkpt lat="48.76484" lon="7.29053">
        <ele>338</ele>
        <time>2013-08-07T13:11:11.272Z</time>
      </trkpt>
      <trkpt lat="48.76477" lon="7.29066">
        <ele>339</ele>
        <time>2013-08-07T13:11:15.283Z</time>
      </trkpt>
      <trkpt lat="48.7647" lon="7.29077">
        <ele>339</ele>
        <time>2013-08-07T13:11:19.280Z</time>
      </trkpt>
      <trkpt lat="48.76465" lon="7.2909">
        <ele>340</ele>
        <time>2013-08-07T13:11:23.273Z</time>
      </trkpt>
      <trkpt lat="48.76458" lon="7.29105">
        <ele>340</ele>
        <time>2013-08-07T13:11:27.285Z</time>
      </trkpt>
      <trkpt lat="48.76453" lon="7.29118">
        <ele>340</ele>
        <time>2013-08-07T13:11:32.270Z</time>
      </trkpt>
      <trkpt lat="48.76446" lon="7.29128">
        <ele>340</ele>
        <time>2013-08-07T13:11:36.271Z</time>
      </trkpt>
      <trkpt lat="48.76442" lon="7.29142">
        <ele>340</ele>
        <time>2013-08-07T13:11:40.285Z</time>
      </trkpt>
      <trkpt lat="48.76439" lon="7.29158">
        <ele>340</ele>
        <time>2013-08-07T13:11:44.282Z</time>
      </trkpt>
      <trkpt lat="48.76437" lon="7.29174">
        <ele>341</ele>
        <time>2013-08-07T13:11:48.286Z</time>
      </trkpt>
      <trkpt lat="48.76434" lon="7.29189">
        <ele>342</ele>
        <time>2013-08-07T13:11:52.290Z</time>
      </trkpt>
      <trkpt lat="48.76431" lon="7.29204">
        <ele>342</ele>
        <time>2013-08-07T13:11:56.288Z</time>
      </trkpt>
      <trkpt lat="48.76429" lon="7.29218">
        <ele>342</ele>
        <time>2013-08-07T13:12:01.298Z</time>
      </trkpt>
      <trkpt lat="48.76425" lon="7.29233">
        <ele>342</ele>
        <time>2013-08-07T13:12:07.278Z</time>
      </trkpt>
      <trkpt lat="48.76421" lon="7.29245">
        <ele>342</ele>
        <time>2013-08-07T13:12:15.290Z</time>
      </trkpt>
      <trkpt lat="48.76411" lon="7.29254">
        <ele>341</ele>
        <time>2013-08-07T13:12:24.285Z</time>
      </trkpt>
      <trkpt lat="48.76403" lon="7.29265">
        <ele>340</ele>
        <time>2013-08-07T13:12:27.291Z</time>
      </trkpt>
      <trkpt lat="48.76402" lon="7.29282">
        <ele>341</ele>
        <time>2013-08-07T13:12:30.278Z</time>
      </trkpt>
      <trkpt lat="48.76403" lon="7.29297">
        <ele>341</ele>
        <time>2013-08-07T13:12:34.286Z</time>
      </trkpt>
      <trkpt lat="48.76403" lon="7.29311">
        <ele>342</ele>
        <time>2013-08-07T13:12:38.299Z</time>
      </trkpt>
      <trkpt lat="48.76403" lon="7.29329">
        <ele>343</ele>
        <time>2013-08-07T13:12:42.302Z</time>
      </trkpt>
      <trkpt lat="48.76402" lon="7.29344">
        <ele>345</ele>
        <time>2013-08-07T13:12:46.227Z</time>
      </trkpt>
      <trkpt lat="48.76402" lon="7.29359">
        <ele>345</ele>
        <time>2013-08-07T13:12:50.239Z</time>
      </trkpt>
      <trkpt lat="48.76402" lon="7.29374">
        <ele>345</ele>
        <time>2013-08-07T13:12:54.240Z</time>
      </trkpt>
      <trkpt lat="48.76402" lon="7.29388">
        <ele>346</ele>
        <time>2013-08-07T13:12:58.236Z</time>
      </trkpt>
      <trkpt lat="48.76403" lon="7.29403">
        <ele>347</ele>
        <time>2013-08-07T13:13:04.294Z</time>
      </trkpt>
      <trkpt lat="48.76401" lon="7.29417">
        <ele>349</ele>
        <time>2013-08-07T13:13:08.292Z</time>
      </trkpt>
      <trkpt lat="48.76399" lon="7.29432">
        <ele>349</ele>
        <time>2013-08-07T13:13:12.293Z</time>
      </trkpt>
      <trkpt lat="48.76396" lon="7.29447">
        <ele>349</ele>
        <time>2013-08-07T13:13:17.273Z</time>
      </trkpt>
      <trkpt lat="48.76393" lon="7.2946">
        <ele>350</ele>
        <time>2013-08-07T13:13:22.292Z</time>
      </trkpt>
      <trkpt lat="48.7639" lon="7.29474">
        <ele>350</ele>
        <time>2013-08-07T13:13:26.292Z</time>
      </trkpt>
      <trkpt lat="48.76386" lon="7.2949">
        <ele>351</ele>
        <time>2013-08-07T13:13:31.295Z</time>
      </trkpt>
      <trkpt lat="48.76381" lon="7.29502">
        <ele>354</ele>
        <time>2013-08-07T13:13:35.290Z</time>
      </trkpt>
      <trkpt lat="48.76374" lon="7.29512">
        <ele>353</ele>
        <time>2013-08-07T13:13:39.276Z</time>
      </trkpt>
      <trkpt lat="48.76366" lon="7.29528">
        <ele>354</ele>
        <time>2013-08-07T13:13:45.276Z</time>
      </trkpt>
      <trkpt lat="48.76361" lon="7.29542">
        <ele>354</ele>
        <time>2013-08-07T13:13:49.289Z</time>
      </trkpt>
      <trkpt lat="48.76357" lon="7.29555">
        <ele>354</ele>
        <time>2013-08-07T13:13:52.292Z</time>
      </trkpt>
      <trkpt lat="48.76352" lon="7.29567">
        <ele>354</ele>
        <time>2013-08-07T13:13:56.280Z</time>
      </trkpt>
      <trkpt lat="48.76348" lon="7.29579">
        <ele>355</ele>
        <time>2013-08-07T13:14:01.275Z</time>
      </trkpt>
      <trkpt lat="48.7634" lon="7.29587">
        <ele>356</ele>
        <time>2013-08-07T13:14:05.245Z</time>
      </trkpt>
      <trkpt lat="48.76331" lon="7.29597">
        <ele>355</ele>
        <time>2013-08-07T13:14:09.264Z</time>
      </trkpt>
      <trkpt lat="48.76325" lon="7.29609">
        <ele>356</ele>
        <time>2013-08-07T13:14:13.265Z</time>
      </trkpt>
      <trkpt lat="48.76316" lon="7.29621">
        <ele>356</ele>
        <time>2013-08-07T13:14:17.274Z</time>
      </trkpt>
      <trkpt lat="48.76309" lon="7.29631">
        <ele>356</ele>
        <time>2013-08-07T13:14:21.288Z</time>
      </trkpt>
      <trkpt lat="48.76304" lon="7.29643">
        <ele>357</ele>
        <time>2013-08-07T13:14:26.275Z</time>
      </trkpt>
      <trkpt lat="48.76298" lon="7.29656">
        <ele>357</ele>
        <time>2013-08-07T13:14:30.279Z</time>
      </trkpt>
      <trkpt lat="48.7629" lon="7.29666">
        <ele>357</ele>
        <time>2013-08-07T13:14:35.275Z</time>
      </trkpt>
      <trkpt lat="48.76284" lon="7.2968">
        <ele>360</ele>
        <time>2013-08-07T13:14:39.278Z</time>
      </trkpt>
      <trkpt lat="48.76279" lon="7.29694">
        <ele>360</ele>
        <time>2013-08-07T13:14:44.280Z</time>
      </trkpt>
      <trkpt lat="48.76277" lon="7.29708">
        <ele>360</ele>
        <time>2013-08-07T13:14:48.240Z</time>
      </trkpt>
      <trkpt lat="48.76277" lon="7.29725">
        <ele>360</ele>
        <time>2013-08-07T13:14:53.263Z</time>
      </trkpt>
      <trkpt lat="48.76278" lon="7.29741">
        <ele>361</ele>
        <time>2013-08-07T13:14:57.259Z</time>
      </trkpt>
      <trkpt lat="48.76277" lon="7.29757">
        <ele>362</ele>
        <time>2013-08-07T13:15:01.278Z</time>
      </trkpt>
      <trkpt lat="48.76278" lon="7.29772">
        <ele>362</ele>
        <time>2013-08-07T13:15:05.272Z</time>
      </trkpt>
      <trkpt lat="48.7628" lon="7.29788">
        <ele>362</ele>
        <time>2013-08-07T13:15:09.271Z</time>
      </trkpt>
      <trkpt lat="48.7628" lon="7.29804">
        <ele>363</ele>
        <time>2013-08-07T13:15:13.289Z</time>
      </trkpt>
      <trkpt lat="48.76281" lon="7.29818">
        <ele>363</ele>
        <time>2013-08-07T13:15:17.291Z</time>
      </trkpt>
      <trkpt lat="48.76275" lon="7.29831">
        <ele>363</ele>
        <time>2013-08-07T13:15:23.291Z</time>
      </trkpt>
      <trkpt lat="48.76267" lon="7.29837">
        <ele>364</ele>
        <time>2013-08-07T13:15:27.301Z</time>
      </trkpt>
      <trkpt lat="48.76258" lon="7.29836">
        <ele>363</ele>
        <time>2013-08-07T13:15:33.290Z</time>
      </trkpt>
      <trkpt lat="48.76247" lon="7.29835">
        <ele>363</ele>
        <time>2013-08-07T13:15:39.283Z</time>
      </trkpt>
      <trkpt lat="48.76236" lon="7.29836">
        <ele>363</ele>
        <time>2013-08-07T13:15:44.286Z</time>
      </trkpt>
      <trkpt lat="48.76226" lon="7.29837">
        <ele>363</ele>
        <time>2013-08-07T13:15:47.275Z</time>
      </trkpt>
      <trkpt lat="48.76216" lon="7.29838">
        <ele>363</ele>
        <time>2013-08-07T13:15:50.276Z</time>
      </trkpt>
      <trkpt lat="48.76207" lon="7.29834">
        <ele>363</ele>
        <time>2013-08-07T13:15:53.277Z</time>
      </trkpt>
      <trkpt lat="48.76197" lon="7.29828">
        <ele>363</ele>
        <time>2013-08-07T13:15:56.274Z</time>
      </trkpt>
      <trkpt lat="48.76188" lon="7.29823">
        <ele>363</ele>
        <time>2013-08-07T13:15:59.281Z</time>
      </trkpt>
      <trkpt lat="48.76177" lon="7.29814">
        <ele>363</ele>
        <time>2013-08-07T13:16:02.265Z</time>
      </trkpt>
      <trkpt lat="48.76169" lon="7.29807">
        <ele>363</ele>
        <time>2013-08-07T13:16:04.277Z</time>
      </trkpt>
      <trkpt lat="48.76157" lon="7.29795">
        <ele>362</ele>
        <time>2013-08-07T13:16:07.258Z</time>
      </trkpt>
      <trkpt lat="48.76149" lon="7.29782">
        <ele>362</ele>
        <time>2013-08-07T13:16:10.271Z</time>
      </trkpt>
      <trkpt lat="48.76141" lon="7.29774">
        <ele>361</ele>
        <time>2013-08-07T13:16:13.287Z</time>
      </trkpt>
      <trkpt lat="48.76131" lon="7.29769">
        <ele>361</ele>
        <time>2013-08-07T13:16:17.294Z</time>
      </trkpt>
      <trkpt lat="48.76122" lon="7.29764">
        <ele>361</ele>
        <time>2013-08-07T13:24:20.258Z</time>
      </trkpt>
      <trkpt lat="48.76111" lon="7.29754">
        <ele>361</ele>
        <time>2013-08-07T13:24:24.268Z</time>
      </trkpt>
      <trkpt lat="48.76103" lon="7.29746">
        <ele>360</ele>
        <time>2013-08-07T13:24:27.266Z</time>
      </trkpt>
      <trkpt lat="48.76095" lon="7.29737">
        <ele>360</ele>
        <time>2013-08-07T13:24:31.268Z</time>
      </trkpt>
      <trkpt lat="48.76087" lon="7.2973">
        <ele>360</ele>
        <time>2013-08-07T13:24:34.273Z</time>
      </trkpt>
      <trkpt lat="48.76077" lon="7.29724">
        <ele>360</ele>
        <time>2013-08-07T13:24:38.280Z</time>
      </trkpt>
      <trkpt lat="48.76068" lon="7.29716">
        <ele>360</ele>
        <time>2013-08-07T13:24:42.257Z</time>
      </trkpt>
      <trkpt lat="48.7606" lon="7.29708">
        <ele>360</ele>
        <time>2013-08-07T13:24:45.250Z</time>
      </trkpt>
      <trkpt lat="48.76053" lon="7.297">
        <ele>360</ele>
        <time>2013-08-07T13:24:48.260Z</time>
      </trkpt>
      <trkpt lat="48.76045" lon="7.29691">
        <ele>360</ele>
        <time>2013-08-07T13:24:52.257Z</time>
      </trkpt>
      <trkpt lat="48.76039" lon="7.29677">
        <ele>360</ele>
        <time>2013-08-07T13:24:56.256Z</time>
      </trkpt>
      <trkpt lat="48.76031" lon="7.29666">
        <ele>359</ele>
        <time>2013-08-07T13:25:00.258Z</time>
      </trkpt>
      <trkpt lat="48.76025" lon="7.29654">
        <ele>359</ele>
        <time>2013-08-07T13:25:04.267Z</time>
      </trkpt>
      <trkpt lat="48.7602" lon="7.29642">
        <ele>359</ele>
        <time>2013-08-07T13:25:09.224Z</time>
      </trkpt>
      <trkpt lat="48.76012" lon="7.29628">
        <ele>359</ele>
        <time>2013-08-07T13:25:13.265Z</time>
      </trkpt>
      <trkpt lat="48.76005" lon="7.29616">
        <ele>359</ele>
        <time>2013-08-07T13:25:16.262Z</time>
      </trkpt>
      <trkpt lat="48.75996" lon="7.29608">
        <ele>359</ele>
        <time>2013-08-07T13:25:19.265Z</time>
      </trkpt>
      <trkpt lat="48.75991" lon="7.29596">
        <ele>359</ele>
        <time>2013-08-07T13:25:23.279Z</time>
      </trkpt>
      <trkpt lat="48.75986" lon="7.29579">
        <ele>358</ele>
        <time>2013-08-07T13:25:27.280Z</time>
      </trkpt>
      <trkpt lat="48.75981" lon="7.29565">
        <ele>358</ele>
        <time>2013-08-07T13:25:31.265Z</time>
      </trkpt>
      <trkpt lat="48.75975" lon="7.29551">
        <ele>358</ele>
        <time>2013-08-07T13:25:35.261Z</time>
      </trkpt>
      <trkpt lat="48.75976" lon="7.29535">
        <ele>358</ele>
        <time>2013-08-07T13:25:39.245Z</time>
      </trkpt>
      <trkpt lat="48.75978" lon="7.29521">
        <ele>358</ele>
        <time>2013-08-07T13:25:43.268Z</time>
      </trkpt>
      <trkpt lat="48.75976" lon="7.29503">
        <ele>357</ele>
        <time>2013-08-07T13:25:47.266Z</time>
      </trkpt>
      <trkpt lat="48.75972" lon="7.29488">
        <ele>355</ele>
        <time>2013-08-07T13:25:50.260Z</time>
      </trkpt>
      <trkpt lat="48.75968" lon="7.29473">
        <ele>355</ele>
        <time>2013-08-07T13:25:53.266Z</time>
      </trkpt>
      <trkpt lat="48.75961" lon="7.2946">
        <ele>354</ele>
        <time>2013-08-07T13:25:58.267Z</time>
      </trkpt>
      <trkpt lat="48.75953" lon="7.29448">
        <ele>354</ele>
        <time>2013-08-07T13:26:01.265Z</time>
      </trkpt>
      <trkpt lat="48.75949" lon="7.29434">
        <ele>354</ele>
        <time>2013-08-07T13:26:04.268Z</time>
      </trkpt>
      <trkpt lat="48.75939" lon="7.29414">
        <ele>350</ele>
        <time>2013-08-07T13:26:06.265Z</time>
      </trkpt>
      <trkpt lat="48.75922" lon="7.29391">
        <ele>349</ele>
        <time>2013-08-07T13:26:08.265Z</time>
      </trkpt>
      <trkpt lat="48.75914" lon="7.29382">
        <ele>348</ele>
        <time>2013-08-07T13:26:09.270Z</time>
      </trkpt>
      <trkpt lat="48.759" lon="7.29364">
        <ele>346</ele>
        <time>2013-08-07T13:26:11.270Z</time>
      </trkpt>
      <trkpt lat="48.7589" lon="7.2935">
        <ele>346</ele>
        <time>2013-08-07T13:26:13.269Z</time>
      </trkpt>
      <trkpt lat="48.75882" lon="7.29337">
        <ele>345</ele>
        <time>2013-08-07T13:26:15.268Z</time>
      </trkpt>
      <trkpt lat="48.75873" lon="7.29329">
        <ele>340</ele>
        <time>2013-08-07T13:26:17.264Z</time>
      </trkpt>
      <trkpt lat="48.75863" lon="7.29323">
        <ele>340</ele>
        <time>2013-08-07T13:26:19.267Z</time>
      </trkpt>
      <trkpt lat="48.75855" lon="7.29318">
        <ele>339</ele>
        <time>2013-08-07T13:26:22.265Z</time>
      </trkpt>
      <trkpt lat="48.75845" lon="7.29317">
        <ele>340</ele>
        <time>2013-08-07T13:26:25.265Z</time>
      </trkpt>
      <trkpt lat="48.75834" lon="7.29316">
        <ele>340</ele>
        <time>2013-08-07T13:26:28.257Z</time>
      </trkpt>
      <trkpt lat="48.75825" lon="7.29315">
        <ele>335</ele>
        <time>2013-08-07T13:26:32.265Z</time>
      </trkpt>
      <trkpt lat="48.75815" lon="7.29319">
        <ele>334</ele>
        <time>2013-08-07T13:26:39.268Z</time>
      </trkpt>
      <trkpt lat="48.75805" lon="7.29328">
        <ele>333</ele>
        <time>2013-08-07T13:26:46.269Z</time>
      </trkpt>
      <trkpt lat="48.75797" lon="7.29336">
        <ele>338</ele>
        <time>2013-08-07T13:26:51.265Z</time>
      </trkpt>
      <trkpt lat="48.75785" lon="7.29342">
        <ele>337</ele>
        <time>2013-08-07T13:26:54.266Z</time>
      </trkpt>
      <trkpt lat="48.75776" lon="7.29354">
        <ele>336</ele>
        <time>2013-08-07T13:26:57.265Z</time>
      </trkpt>
      <trkpt lat="48.75767" lon="7.29364">
        <ele>336</ele>
        <time>2013-08-07T13:27:00.265Z</time>
      </trkpt>
      <trkpt lat="48.75757" lon="7.29374">
        <ele>336</ele>
        <time>2013-08-07T13:27:03.265Z</time>
      </trkpt>
      <trkpt lat="48.7575" lon="7.29387">
        <ele>327</ele>
        <time>2013-08-07T13:27:05.265Z</time>
      </trkpt>
      <trkpt lat="48.75743" lon="7.29399">
        <ele>328</ele>
        <time>2013-08-07T13:27:07.267Z</time>
      </trkpt>
      <trkpt lat="48.75736" lon="7.29408">
        <ele>329</ele>
        <time>2013-08-07T13:27:09.265Z</time>
      </trkpt>
      <trkpt lat="48.75728" lon="7.29422">
        <ele>330</ele>
        <time>2013-08-07T13:27:12.267Z</time>
      </trkpt>
      <trkpt lat="48.75722" lon="7.29434">
        <ele>329</ele>
        <time>2013-08-07T13:27:15.245Z</time>
      </trkpt>
      <trkpt lat="48.75714" lon="7.29445">
        <ele>328</ele>
        <time>2013-08-07T13:27:19.266Z</time>
      </trkpt>
      <trkpt lat="48.75706" lon="7.29453">
        <ele>327</ele>
        <time>2013-08-07T13:27:24.263Z</time>
      </trkpt>
      <trkpt lat="48.757" lon="7.29463">
        <ele>327</ele>
        <time>2013-08-07T13:27:28.242Z</time>
      </trkpt>
      <trkpt lat="48.75695" lon="7.29475">
        <ele>326</ele>
        <time>2013-08-07T13:27:32.263Z</time>
      </trkpt>
      <trkpt lat="48.75691" lon="7.29491">
        <ele>325</ele>
        <time>2013-08-07T13:27:37.266Z</time>
      </trkpt>
      <trkpt lat="48.75686" lon="7.29503">
        <ele>323</ele>
        <time>2013-08-07T13:27:41.267Z</time>
      </trkpt>
      <trkpt lat="48.7568" lon="7.29513">
        <ele>323</ele>
        <time>2013-08-07T13:27:45.267Z</time>
      </trkpt>
      <trkpt lat="48.75671" lon="7.2952">
        <ele>322</ele>
        <time>2013-08-07T13:27:49.271Z</time>
      </trkpt>
      <trkpt lat="48.75663" lon="7.29511">
        <ele>314</ele>
        <time>2013-08-07T13:27:57.265Z</time>
      </trkpt>
      <trkpt lat="48.75664" lon="7.29495">
        <ele>317</ele>
        <time>2013-08-07T13:28:02.263Z</time>
      </trkpt>
      <trkpt lat="48.75664" lon="7.29481">
        <ele>314</ele>
        <time>2013-08-07T13:28:06.222Z</time>
      </trkpt>
      <trkpt lat="48.75666" lon="7.29466">
        <ele>313</ele>
        <time>2013-08-07T13:28:11.263Z</time>
      </trkpt>
      <trkpt lat="48.75667" lon="7.29451">
        <ele>324</ele>
        <time>2013-08-07T13:28:17.266Z</time>
      </trkpt>
      <trkpt lat="48.75666" lon="7.29438">
        <ele>313</ele>
        <time>2013-08-07T13:28:21.268Z</time>
      </trkpt>
      <trkpt lat="48.75669" lon="7.29422">
        <ele>320</ele>
        <time>2013-08-07T13:28:25.265Z</time>
      </trkpt>
      <trkpt lat="48.75673" lon="7.29405">
        <ele>320</ele>
        <time>2013-08-07T13:28:28.269Z</time>
      </trkpt>
      <trkpt lat="48.75676" lon="7.29389">
        <ele>320</ele>
        <time>2013-08-07T13:28:32.265Z</time>
      </trkpt>
      <trkpt lat="48.75679" lon="7.29371">
        <ele>319</ele>
        <time>2013-08-07T13:28:36.268Z</time>
      </trkpt>
      <trkpt lat="48.75682" lon="7.29356">
        <ele>318</ele>
        <time>2013-08-07T13:28:40.263Z</time>
      </trkpt>
      <trkpt lat="48.75684" lon="7.29342">
        <ele>316</ele>
        <time>2013-08-07T13:28:44.273Z</time>
      </trkpt>
      <trkpt lat="48.75684" lon="7.29328">
        <ele>311</ele>
        <time>2013-08-07T13:28:50.244Z</time>
      </trkpt>
      <trkpt lat="48.75686" lon="7.29313">
        <ele>311</ele>
        <time>2013-08-07T13:28:55.266Z</time>
      </trkpt>
      <trkpt lat="48.7569" lon="7.29299">
        <ele>311</ele>
        <time>2013-08-07T13:28:59.275Z</time>
      </trkpt>
      <trkpt lat="48.75696" lon="7.29284">
        <ele>310</ele>
        <time>2013-08-07T13:29:03.265Z</time>
      </trkpt>
      <trkpt lat="48.75702" lon="7.2927">
        <ele>310</ele>
        <time>2013-08-07T13:29:08.265Z</time>
      </trkpt>
      <trkpt lat="48.75707" lon="7.29257">
        <ele>310</ele>
        <time>2013-08-07T13:29:13.266Z</time>
      </trkpt>
      <trkpt lat="48.75712" lon="7.29245">
        <ele>304</ele>
        <time>2013-08-07T13:29:19.271Z</time>
      </trkpt>
      <trkpt lat="48.75717" lon="7.29234">
        <ele>304</ele>
        <time>2013-08-07T13:29:26.225Z</time>
      </trkpt>
      <trkpt lat="48.75723" lon="7.29222">
        <ele>304</ele>
        <time>2013-08-07T13:29:31.266Z</time>
      </trkpt>
      <trkpt lat="48.7573" lon="7.2921">
        <ele>303</ele>
        <time>2013-08-07T13:29:39.275Z</time>
      </trkpt>
      <trkpt lat="48.75736" lon="7.29199">
        <ele>303</ele>
        <time>2013-08-07T13:29:55.256Z</time>
      </trkpt>
      <trkpt lat="48.75743" lon="7.2919">
        <ele>303</ele>
        <time>2013-08-07T13:29:59.270Z</time>
      </trkpt>
      <trkpt lat="48.75753" lon="7.29183">
        <ele>310</ele>
        <time>2013-08-07T13:30:03.258Z</time>
      </trkpt>
      <trkpt lat="48.75763" lon="7.2918">
        <ele>311</ele>
        <time>2013-08-07T13:30:07.268Z</time>
      </trkpt>
      <trkpt lat="48.75773" lon="7.29174">
        <ele>312</ele>
        <time>2013-08-07T13:30:10.239Z</time>
      </trkpt>
      <trkpt lat="48.75781" lon="7.29168">
        <ele>313</ele>
        <time>2013-08-07T13:30:14.269Z</time>
      </trkpt>
      <trkpt lat="48.75791" lon="7.29169">
        <ele>314</ele>
        <time>2013-08-07T13:30:20.271Z</time>
      </trkpt>
      <trkpt lat="48.75802" lon="7.29165">
        <ele>304</ele>
        <time>2013-08-07T13:30:26.269Z</time>
      </trkpt>
      <trkpt lat="48.75813" lon="7.29161">
        <ele>306</ele>
        <time>2013-08-07T13:30:31.270Z</time>
      </trkpt>
      <trkpt lat="48.75826" lon="7.29159">
        <ele>308</ele>
        <time>2013-08-07T13:30:38.269Z</time>
      </trkpt>
      <trkpt lat="48.75838" lon="7.29158">
        <ele>311</ele>
        <time>2013-08-07T13:30:43.266Z</time>
      </trkpt>
      <trkpt lat="48.7585" lon="7.29149">
        <ele>310</ele>
        <time>2013-08-07T13:30:47.266Z</time>
      </trkpt>
      <trkpt lat="48.75859" lon="7.29144">
        <ele>309</ele>
        <time>2013-08-07T13:30:50.271Z</time>
      </trkpt>
      <trkpt lat="48.75869" lon="7.29133">
        <ele>309</ele>
        <time>2013-08-07T13:30:53.261Z</time>
      </trkpt>
      <trkpt lat="48.75877" lon="7.29125">
        <ele>308</ele>
        <time>2013-08-07T13:30:56.265Z</time>
      </trkpt>
      <trkpt lat="48.75887" lon="7.29116">
        <ele>308</ele>
        <time>2013-08-07T13:31:01.265Z</time>
      </trkpt>
      <trkpt lat="48.75896" lon="7.29111">
        <ele>307</ele>
        <time>2013-08-07T13:31:05.268Z</time>
      </trkpt>
      <trkpt lat="48.75905" lon="7.29103">
        <ele>306</ele>
        <time>2013-08-07T13:31:10.269Z</time>
      </trkpt>
      <trkpt lat="48.75913" lon="7.29097">
        <ele>305</ele>
        <time>2013-08-07T13:31:14.269Z</time>
      </trkpt>
      <trkpt lat="48.75922" lon="7.29094">
        <ele>308</ele>
        <time>2013-08-07T13:31:19.276Z</time>
      </trkpt>
      <trkpt lat="48.75932" lon="7.2909">
        <ele>309</ele>
        <time>2013-08-07T13:31:24.276Z</time>
      </trkpt>
      <trkpt lat="48.75942" lon="7.29084">
        <ele>310</ele>
        <time>2013-08-07T13:31:28.268Z</time>
      </trkpt>
      <trkpt lat="48.75952" lon="7.29077">
        <ele>304</ele>
        <time>2013-08-07T13:31:32.267Z</time>
      </trkpt>
      <trkpt lat="48.75958" lon="7.29064">
        <ele>303</ele>
        <time>2013-08-07T13:31:37.270Z</time>
      </trkpt>
      <trkpt lat="48.75968" lon="7.29057">
        <ele>304</ele>
        <time>2013-08-07T13:31:41.263Z</time>
      </trkpt>
      <trkpt lat="48.75978" lon="7.29045">
        <ele>303</ele>
        <time>2013-08-07T13:31:46.269Z</time>
      </trkpt>
      <trkpt lat="48.75987" lon="7.29046">
        <ele>304</ele>
        <time>2013-08-07T13:31:50.249Z</time>
      </trkpt>
      <trkpt lat="48.75997" lon="7.29039">
        <ele>303</ele>
        <time>2013-08-07T13:31:53.266Z</time>
      </trkpt>
      <trkpt lat="48.76006" lon="7.29035">
        <ele>307</ele>
        <time>2013-08-07T13:31:58.266Z</time>
      </trkpt>
      <trkpt lat="48.76016" lon="7.2903">
        <ele>306</ele>
        <time>2013-08-07T13:32:09.265Z</time>
      </trkpt>
      <trkpt lat="48.76025" lon="7.29025">
        <ele>307</ele>
        <time>2013-08-07T13:32:15.270Z</time>
      </trkpt>
      <trkpt lat="48.76035" lon="7.29019">
        <ele>307</ele>
        <time>2013-08-07T13:32:21.270Z</time>
      </trkpt>
      <trkpt lat="48.76045" lon="7.29013">
        <ele>307</ele>
        <time>2013-08-07T13:32:31.234Z</time>
      </trkpt>
      <trkpt lat="48.76054" lon="7.29006">
        <ele>307</ele>
        <time>2013-08-07T13:32:39.238Z</time>
      </trkpt>
      <trkpt lat="48.76064" lon="7.28999">
        <ele>305</ele>
        <time>2013-08-07T13:32:44.281Z</time>
      </trkpt>
      <trkpt lat="48.76071" lon="7.28991">
        <ele>305</ele>
        <time>2013-08-07T13:32:47.283Z</time>
      </trkpt>
      <trkpt lat="48.76078" lon="7.28977">
        <ele>305</ele>
        <time>2013-08-07T13:32:50.282Z</time>
      </trkpt>
      <trkpt lat="48.76081" lon="7.28959">
        <ele>305</ele>
        <time>2013-08-07T13:33:07.248Z</time>
      </trkpt>
      <trkpt lat="48.76083" lon="7.28942">
        <ele>305</ele>
        <time>2013-08-07T13:33:30.243Z</time>
      </trkpt>
      <trkpt lat="48.76092" lon="7.28942">
        <ele>307</ele>
        <time>2013-08-07T13:34:06.224Z</time>
      </trkpt>
      <trkpt lat="48.76096" lon="7.28929">
        <ele>306</ele>
        <time>2013-08-07T13:34:11.259Z</time>
      </trkpt>
      <trkpt lat="48.76087" lon="7.28921">
        <ele>305</ele>
        <time>2013-08-07T13:35:20.240Z</time>
      </trkpt>
      <trkpt lat="48.76079" lon="7.28913">
        <ele>306</ele>
        <time>2013-08-07T13:35:24.238Z</time>
      </trkpt>
      <trkpt lat="48.76071" lon="7.28903">
        <ele>308</ele>
        <time>2013-08-07T13:35:28.238Z</time>
      </trkpt>
      <trkpt lat="48.76062" lon="7.28907">
        <ele>309</ele>
        <time>2013-08-07T13:35:34.262Z</time>
      </trkpt>
      <trkpt lat="48.76055" lon="7.28916">
        <ele>309</ele>
        <time>2013-08-07T13:35:38.239Z</time>
      </trkpt>
      <trkpt lat="48.76048" lon="7.28925">
        <ele>305</ele>
        <time>2013-08-07T13:35:41.241Z</time>
      </trkpt>
      <trkpt lat="48.76038" lon="7.28935">
        <ele>305</ele>
        <time>2013-08-07T13:35:44.227Z</time>
      </trkpt>
      <trkpt lat="48.7603" lon="7.28942">
        <ele>305</ele>
        <time>2013-08-07T13:35:47.243Z</time>
      </trkpt>
      <trkpt lat="48.7602" lon="7.2895">
        <ele>305</ele>
        <time>2013-08-07T13:35:51.237Z</time>
      </trkpt>
      <trkpt lat="48.7601" lon="7.28956">
        <ele>304</ele>
        <time>2013-08-07T13:35:55.237Z</time>
      </trkpt>
      <trkpt lat="48.75999" lon="7.2896">
        <ele>304</ele>
        <time>2013-08-07T13:35:59.247Z</time>
      </trkpt>
      <trkpt lat="48.75989" lon="7.28962">
        <ele>304</ele>
        <time>2013-08-07T13:36:03.242Z</time>
      </trkpt>
      <trkpt lat="48.75979" lon="7.28962">
        <ele>304</ele>
        <time>2013-08-07T13:36:07.232Z</time>
      </trkpt>
      <trkpt lat="48.75969" lon="7.28964">
        <ele>303</ele>
        <time>2013-08-07T13:36:11.241Z</time>
      </trkpt>
      <trkpt lat="48.75959" lon="7.28965">
        <ele>303</ele>
        <time>2013-08-07T13:36:15.239Z</time>
      </trkpt>
      <trkpt lat="48.75949" lon="7.28966">
        <ele>303</ele>
        <time>2013-08-07T13:36:19.239Z</time>
      </trkpt>
      <trkpt lat="48.75938" lon="7.2897">
        <ele>303</ele>
        <time>2013-08-07T13:36:23.260Z</time>
      </trkpt>
      <trkpt lat="48.75929" lon="7.2897">
        <ele>302</ele>
        <time>2013-08-07T13:36:27.239Z</time>
      </trkpt>
      <trkpt lat="48.75918" lon="7.28972">
        <ele>302</ele>
        <time>2013-08-07T13:36:31.236Z</time>
      </trkpt>
      <trkpt lat="48.75907" lon="7.28973">
        <ele>302</ele>
        <time>2013-08-07T13:36:35.240Z</time>
      </trkpt>
      <trkpt lat="48.75898" lon="7.28975">
        <ele>302</ele>
        <time>2013-08-07T13:36:39.225Z</time>
      </trkpt>
      <trkpt lat="48.75885" lon="7.28973">
        <ele>302</ele>
        <time>2013-08-07T13:36:45.239Z</time>
      </trkpt>
      <trkpt lat="48.75876" lon="7.28973">
        <ele>302</ele>
        <time>2013-08-07T13:36:49.227Z</time>
      </trkpt>
      <trkpt lat="48.75865" lon="7.28972">
        <ele>302</ele>
        <time>2013-08-07T13:36:54.229Z</time>
      </trkpt>
      <trkpt lat="48.75855" lon="7.28974">
        <ele>301</ele>
        <time>2013-08-07T13:36:58.232Z</time>
      </trkpt>
      <trkpt lat="48.75845" lon="7.28978">
        <ele>301</ele>
        <time>2013-08-07T13:37:02.283Z</time>
      </trkpt>
      <trkpt lat="48.75835" lon="7.28979">
        <ele>300</ele>
        <time>2013-08-07T13:37:06.340Z</time>
      </trkpt>
      <trkpt lat="48.75825" lon="7.28979">
        <ele>296</ele>
        <time>2013-08-07T13:37:09.232Z</time>
      </trkpt>
      <trkpt lat="48.75815" lon="7.28976">
        <ele>296</ele>
        <time>2013-08-07T13:37:13.274Z</time>
      </trkpt>
      <trkpt lat="48.75805" lon="7.2897">
        <ele>296</ele>
        <time>2013-08-07T13:37:18.266Z</time>
      </trkpt>
      <trkpt lat="48.75794" lon="7.28964">
        <ele>295</ele>
        <time>2013-08-07T13:37:23.249Z</time>
      </trkpt>
      <trkpt lat="48.75782" lon="7.28959">
        <ele>295</ele>
        <time>2013-08-07T13:37:29.227Z</time>
      </trkpt>
      <trkpt lat="48.75773" lon="7.28958">
        <ele>294</ele>
        <time>2013-08-07T13:37:33.246Z</time>
      </trkpt>
      <trkpt lat="48.75764" lon="7.2895">
        <ele>294</ele>
        <time>2013-08-07T13:37:39.241Z</time>
      </trkpt>
      <trkpt lat="48.75759" lon="7.28935">
        <ele>294</ele>
        <time>2013-08-07T13:37:45.232Z</time>
      </trkpt>
      <trkpt lat="48.75754" lon="7.28922">
        <ele>294</ele>
        <time>2013-08-07T13:37:49.237Z</time>
      </trkpt>
      <trkpt lat="48.75747" lon="7.28911">
        <ele>295</ele>
        <time>2013-08-07T13:37:53.241Z</time>
      </trkpt>
      <trkpt lat="48.75743" lon="7.28897">
        <ele>298</ele>
        <time>2013-08-07T13:37:57.244Z</time>
      </trkpt>
      <trkpt lat="48.75736" lon="7.28885">
        <ele>300</ele>
        <time>2013-08-07T13:38:01.256Z</time>
      </trkpt>
      <trkpt lat="48.75733" lon="7.28871">
        <ele>302</ele>
        <time>2013-08-07T13:38:04.245Z</time>
      </trkpt>
      <trkpt lat="48.7573" lon="7.28856">
        <ele>303</ele>
        <time>2013-08-07T13:38:07.255Z</time>
      </trkpt>
      <trkpt lat="48.75726" lon="7.28842">
        <ele>304</ele>
        <time>2013-08-07T13:38:11.252Z</time>
      </trkpt>
      <trkpt lat="48.75722" lon="7.28829">
        <ele>309</ele>
        <time>2013-08-07T13:38:15.236Z</time>
      </trkpt>
      <trkpt lat="48.75714" lon="7.28817">
        <ele>310</ele>
        <time>2013-08-07T13:38:21.233Z</time>
      </trkpt>
      <trkpt lat="48.75702" lon="7.28813">
        <ele>310</ele>
        <time>2013-08-07T13:38:28.247Z</time>
      </trkpt>
      <trkpt lat="48.75694" lon="7.28819">
        <ele>309</ele>
        <time>2013-08-07T13:38:31.244Z</time>
      </trkpt>
      <trkpt lat="48.75688" lon="7.28829">
        <ele>309</ele>
        <time>2013-08-07T13:38:35.246Z</time>
      </trkpt>
      <trkpt lat="48.75684" lon="7.28844">
        <ele>304</ele>
        <time>2013-08-07T13:38:40.249Z</time>
      </trkpt>
      <trkpt lat="48.75683" lon="7.2886">
        <ele>303</ele>
        <time>2013-08-07T13:38:46.256Z</time>
      </trkpt>
      <trkpt lat="48.75679" lon="7.28874">
        <ele>302</ele>
        <time>2013-08-07T13:38:50.257Z</time>
      </trkpt>
      <trkpt lat="48.75675" lon="7.2889">
        <ele>301</ele>
        <time>2013-08-07T13:38:55.242Z</time>
      </trkpt>
      <trkpt lat="48.75669" lon="7.28904">
        <ele>301</ele>
        <time>2013-08-07T13:39:01.253Z</time>
      </trkpt>
      <trkpt lat="48.75664" lon="7.28918">
        <ele>301</ele>
        <time>2013-08-07T13:39:07.242Z</time>
      </trkpt>
      <trkpt lat="48.75658" lon="7.28932">
        <ele>307</ele>
        <time>2013-08-07T13:39:12.237Z</time>
      </trkpt>
      <trkpt lat="48.75652" lon="7.28942">
        <ele>309</ele>
        <time>2013-08-07T13:39:16.253Z</time>
      </trkpt>
      <trkpt lat="48.75646" lon="7.28956">
        <ele>309</ele>
        <time>2013-08-07T13:39:21.263Z</time>
      </trkpt>
      <trkpt lat="48.7564" lon="7.2897">
        <ele>309</ele>
        <time>2013-08-07T13:39:26.251Z</time>
      </trkpt>
      <trkpt lat="48.75633" lon="7.28981">
        <ele>310</ele>
        <time>2013-08-07T13:39:32.256Z</time>
      </trkpt>
      <trkpt lat="48.75626" lon="7.28991">
        <ele>312</ele>
        <time>2013-08-07T13:39:37.253Z</time>
      </trkpt>
      <trkpt lat="48.75618" lon="7.28998">
        <ele>315</ele>
        <time>2013-08-07T13:39:43.262Z</time>
      </trkpt>
      <trkpt lat="48.75609" lon="7.29005">
        <ele>312</ele>
        <time>2013-08-07T13:39:49.241Z</time>
      </trkpt>
      <trkpt lat="48.75603" lon="7.29017">
        <ele>313</ele>
        <time>2013-08-07T13:39:54.232Z</time>
      </trkpt>
      <trkpt lat="48.75596" lon="7.29031">
        <ele>312</ele>
        <time>2013-08-07T13:40:00.248Z</time>
      </trkpt>
      <trkpt lat="48.75588" lon="7.29039">
        <ele>311</ele>
        <time>2013-08-07T13:40:05.243Z</time>
      </trkpt>
      <trkpt lat="48.75582" lon="7.29051">
        <ele>332</ele>
        <time>2013-08-07T13:40:09.245Z</time>
      </trkpt>
      <trkpt lat="48.75573" lon="7.29059">
        <ele>331</ele>
        <time>2013-08-07T13:40:15.244Z</time>
      </trkpt>
      <trkpt lat="48.75565" lon="7.29068">
        <ele>331</ele>
        <time>2013-08-07T13:40:21.243Z</time>
      </trkpt>
      <trkpt lat="48.75559" lon="7.29081">
        <ele>332</ele>
        <time>2013-08-07T13:40:25.247Z</time>
      </trkpt>
      <trkpt lat="48.75554" lon="7.29092">
        <ele>326</ele>
        <time>2013-08-07T13:40:29.249Z</time>
      </trkpt>
      <trkpt lat="48.75547" lon="7.29104">
        <ele>327</ele>
        <time>2013-08-07T13:40:35.251Z</time>
      </trkpt>
      <trkpt lat="48.7554" lon="7.29115">
        <ele>327</ele>
        <time>2013-08-07T13:40:41.247Z</time>
      </trkpt>
      <trkpt lat="48.75531" lon="7.29125">
        <ele>328</ele>
        <time>2013-08-07T13:40:46.246Z</time>
      </trkpt>
      <trkpt lat="48.75525" lon="7.29135">
        <ele>328</ele>
        <time>2013-08-07T13:40:50.249Z</time>
      </trkpt>
      <trkpt lat="48.75518" lon="7.29147">
        <ele>329</ele>
        <time>2013-08-07T13:40:56.250Z</time>
      </trkpt>
      <trkpt lat="48.7551" lon="7.29159">
        <ele>331</ele>
        <time>2013-08-07T13:41:01.249Z</time>
      </trkpt>
      <trkpt lat="48.75503" lon="7.29169">
        <ele>331</ele>
        <time>2013-08-07T13:41:05.248Z</time>
      </trkpt>
      <trkpt lat="48.75496" lon="7.29181">
        <ele>331</ele>
        <time>2013-08-07T13:41:10.234Z</time>
      </trkpt>
      <trkpt lat="48.75488" lon="7.29191">
        <ele>329</ele>
        <time>2013-08-07T13:41:14.233Z</time>
      </trkpt>
      <trkpt lat="48.75482" lon="7.29201">
        <ele>327</ele>
        <time>2013-08-07T13:41:18.251Z</time>
      </trkpt>
      <trkpt lat="48.75475" lon="7.29211">
        <ele>326</ele>
        <time>2013-08-07T13:41:22.237Z</time>
      </trkpt>
      <trkpt lat="48.75468" lon="7.29221">
        <ele>325</ele>
        <time>2013-08-07T13:41:26.247Z</time>
      </trkpt>
      <trkpt lat="48.7546" lon="7.2923">
        <ele>324</ele>
        <time>2013-08-07T13:41:30.245Z</time>
      </trkpt>
      <trkpt lat="48.75452" lon="7.2924">
        <ele>324</ele>
        <time>2013-08-07T13:41:35.255Z</time>
      </trkpt>
      <trkpt lat="48.75443" lon="7.29244">
        <ele>323</ele>
        <time>2013-08-07T13:41:40.249Z</time>
      </trkpt>
      <trkpt lat="48.75433" lon="7.29243">
        <ele>323</ele>
        <time>2013-08-07T13:41:44.240Z</time>
      </trkpt>
      <trkpt lat="48.75423" lon="7.29237">
        <ele>323</ele>
        <time>2013-08-07T13:41:48.239Z</time>
      </trkpt>
      <trkpt lat="48.75414" lon="7.29231">
        <ele>320</ele>
        <time>2013-08-07T13:41:53.240Z</time>
      </trkpt>
      <trkpt lat="48.75405" lon="7.29219">
        <ele>321</ele>
        <time>2013-08-07T13:41:56.238Z</time>
      </trkpt>
      <trkpt lat="48.75401" lon="7.29207">
        <ele>323</ele>
        <time>2013-08-07T13:41:59.241Z</time>
      </trkpt>
      <trkpt lat="48.75395" lon="7.29195">
        <ele>324</ele>
        <time>2013-08-07T13:42:03.236Z</time>
      </trkpt>
      <trkpt lat="48.75388" lon="7.29183">
        <ele>324</ele>
        <time>2013-08-07T13:42:07.245Z</time>
      </trkpt>
      <trkpt lat="48.75382" lon="7.29173">
        <ele>324</ele>
        <time>2013-08-07T13:42:11.241Z</time>
      </trkpt>
      <trkpt lat="48.75377" lon="7.29161">
        <ele>336</ele>
        <time>2013-08-07T13:42:16.227Z</time>
      </trkpt>
      <trkpt lat="48.75369" lon="7.29147">
        <ele>336</ele>
        <time>2013-08-07T13:42:21.243Z</time>
      </trkpt>
      <trkpt lat="48.75363" lon="7.29134">
        <ele>337</ele>
        <time>2013-08-07T13:42:25.257Z</time>
      </trkpt>
      <trkpt lat="48.75357" lon="7.2912">
        <ele>339</ele>
        <time>2013-08-07T13:42:30.241Z</time>
      </trkpt>
      <trkpt lat="48.75351" lon="7.29108">
        <ele>340</ele>
        <time>2013-08-07T13:42:35.255Z</time>
      </trkpt>
      <trkpt lat="48.75345" lon="7.29095">
        <ele>341</ele>
        <time>2013-08-07T13:42:39.253Z</time>
      </trkpt>
      <trkpt lat="48.7534" lon="7.2908">
        <ele>347</ele>
        <time>2013-08-07T13:42:44.234Z</time>
      </trkpt>
      <trkpt lat="48.75333" lon="7.29068">
        <ele>350</ele>
        <time>2013-08-07T13:42:48.252Z</time>
      </trkpt>
      <trkpt lat="48.75327" lon="7.29057">
        <ele>347</ele>
        <time>2013-08-07T13:42:53.247Z</time>
      </trkpt>
      <trkpt lat="48.7532" lon="7.29047">
        <ele>348</ele>
        <time>2013-08-07T13:43:00.252Z</time>
      </trkpt>
      <trkpt lat="48.75312" lon="7.2904">
        <ele>349</ele>
        <time>2013-08-07T13:43:06.254Z</time>
      </trkpt>
      <trkpt lat="48.75302" lon="7.29035">
        <ele>349</ele>
        <time>2013-08-07T13:43:11.250Z</time>
      </trkpt>
      <trkpt lat="48.75293" lon="7.29031">
        <ele>349</ele>
        <time>2013-08-07T13:43:16.247Z</time>
      </trkpt>
      <trkpt lat="48.75284" lon="7.29028">
        <ele>348</ele>
        <time>2013-08-07T13:43:21.258Z</time>
      </trkpt>
      <trkpt lat="48.75274" lon="7.29022">
        <ele>349</ele>
        <time>2013-08-07T13:43:26.252Z</time>
      </trkpt>
      <trkpt lat="48.75263" lon="7.29017">
        <ele>349</ele>
        <time>2013-08-07T13:43:30.251Z</time>
      </trkpt>
      <trkpt lat="48.75253" lon="7.29016">
        <ele>350</ele>
        <time>2013-08-07T13:43:33.261Z</time>
      </trkpt>
      <trkpt lat="48.75241" lon="7.29015">
        <ele>346</ele>
        <time>2013-08-07T13:43:36.252Z</time>
      </trkpt>
      <trkpt lat="48.75229" lon="7.29015">
        <ele>345</ele>
        <time>2013-08-07T13:43:39.266Z</time>
      </trkpt>
      <trkpt lat="48.75219" lon="7.29018">
        <ele>343</ele>
        <time>2013-08-07T13:43:42.266Z</time>
      </trkpt>
      <trkpt lat="48.75208" lon="7.29016">
        <ele>343</ele>
        <time>2013-08-07T13:43:45.251Z</time>
      </trkpt>
      <trkpt lat="48.75198" lon="7.29013">
        <ele>343</ele>
        <time>2013-08-07T13:43:48.268Z</time>
      </trkpt>
      <trkpt lat="48.75189" lon="7.2901">
        <ele>344</ele>
        <time>2013-08-07T13:43:50.262Z</time>
      </trkpt>
      <trkpt lat="48.75177" lon="7.29008">
        <ele>346</ele>
        <time>2013-08-07T13:43:53.264Z</time>
      </trkpt>
      <trkpt lat="48.75166" lon="7.29005">
        <ele>347</ele>
        <time>2013-08-07T13:43:56.268Z</time>
      </trkpt>
      <trkpt lat="48.75156" lon="7.29002">
        <ele>344</ele>
        <time>2013-08-07T13:43:59.257Z</time>
      </trkpt>
      <trkpt lat="48.75145" lon="7.28997">
        <ele>352</ele>
        <time>2013-08-07T13:44:03.253Z</time>
      </trkpt>
      <trkpt lat="48.75137" lon="7.28994">
        <ele>352</ele>
        <time>2013-08-07T13:44:07.253Z</time>
      </trkpt>
      <trkpt lat="48.75127" lon="7.28988">
        <ele>352</ele>
        <time>2013-08-07T13:44:12.244Z</time>
      </trkpt>
      <trkpt lat="48.75118" lon="7.28984">
        <ele>351</ele>
        <time>2013-08-07T13:44:16.235Z</time>
      </trkpt>
      <trkpt lat="48.75115" lon="7.28999">
        <ele>349</ele>
        <time>2013-08-07T13:44:50.243Z</time>
      </trkpt>
      <trkpt lat="48.75106" lon="7.28988">
        <ele>349</ele>
        <time>2013-08-07T13:45:04.240Z</time>
      </trkpt>
      <trkpt lat="48.75097" lon="7.2898">
        <ele>349</ele>
        <time>2013-08-07T13:45:15.237Z</time>
      </trkpt>
      <trkpt lat="48.75087" lon="7.28975">
        <ele>349</ele>
        <time>2013-08-07T13:45:22.234Z</time>
      </trkpt>
      <trkpt lat="48.75065" lon="7.28965">
        <ele>342</ele>
        <time>2013-08-07T13:45:38.242Z</time>
      </trkpt>
      <trkpt lat="48.75054" lon="7.28954">
        <ele>343</ele>
        <time>2013-08-07T13:45:46.245Z</time>
      </trkpt>
      <trkpt lat="48.75042" lon="7.28949">
        <ele>342</ele>
        <time>2013-08-07T13:45:49.254Z</time>
      </trkpt>
      <trkpt lat="48.75032" lon="7.28948">
        <ele>342</ele>
        <time>2013-08-07T13:45:52.249Z</time>
      </trkpt>
      <trkpt lat="48.75021" lon="7.28934">
        <ele>342</ele>
        <time>2013-08-07T13:46:02.240Z</time>
      </trkpt>
      <trkpt lat="48.75013" lon="7.28925">
        <ele>342</ele>
        <time>2013-08-07T13:46:10.247Z</time>
      </trkpt>
      <trkpt lat="48.75008" lon="7.28912">
        <ele>345</ele>
        <time>2013-08-07T13:46:17.250Z</time>
      </trkpt>
      <trkpt lat="48.75009" lon="7.28899">
        <ele>347</ele>
        <time>2013-08-07T13:46:22.266Z</time>
      </trkpt>
      <trkpt lat="48.75007" lon="7.28884">
        <ele>349</ele>
        <time>2013-08-07T13:46:30.257Z</time>
      </trkpt>
      <trkpt lat="48.75003" lon="7.28871">
        <ele>349</ele>
        <time>2013-08-07T13:46:36.253Z</time>
      </trkpt>
      <trkpt lat="48.74996" lon="7.28861">
        <ele>337</ele>
        <time>2013-08-07T13:46:42.252Z</time>
      </trkpt>
      <trkpt lat="48.74991" lon="7.28849">
        <ele>338</ele>
        <time>2013-08-07T13:46:47.259Z</time>
      </trkpt>
      <trkpt lat="48.74987" lon="7.28835">
        <ele>340</ele>
        <time>2013-08-07T13:46:53.244Z</time>
      </trkpt>
      <trkpt lat="48.74983" lon="7.28822">
        <ele>339</ele>
        <time>2013-08-07T13:46:59.258Z</time>
      </trkpt>
      <trkpt lat="48.7498" lon="7.28809">
        <ele>337</ele>
        <time>2013-08-07T13:47:04.243Z</time>
      </trkpt>
      <trkpt lat="48.74977" lon="7.28796">
        <ele>336</ele>
        <time>2013-08-07T13:47:09.491Z</time>
      </trkpt>
      <trkpt lat="48.74978" lon="7.28779">
        <ele>337</ele>
        <time>2013-08-07T13:47:14.255Z</time>
      </trkpt>
      <trkpt lat="48.74982" lon="7.28758">
        <ele>340</ele>
        <time>2013-08-07T13:47:19.253Z</time>
      </trkpt>
      <trkpt lat="48.74984" lon="7.28743">
        <ele>342</ele>
        <time>2013-08-07T13:47:23.258Z</time>
      </trkpt>
      <trkpt lat="48.74984" lon="7.28729">
        <ele>340</ele>
        <time>2013-08-07T13:47:28.257Z</time>
      </trkpt>
      <trkpt lat="48.74984" lon="7.28706">
        <ele>339</ele>
        <time>2013-08-07T13:47:39.261Z</time>
      </trkpt>
      <trkpt lat="48.74984" lon="7.2868">
        <ele>341</ele>
        <time>2013-08-07T13:47:43.263Z</time>
      </trkpt>
      <trkpt lat="48.74985" lon="7.28661">
        <ele>341</ele>
        <time>2013-08-07T13:47:46.258Z</time>
      </trkpt>
      <trkpt lat="48.74986" lon="7.28639">
        <ele>339</ele>
        <time>2013-08-07T13:47:48.261Z</time>
      </trkpt>
      <trkpt lat="48.74989" lon="7.28622">
        <ele>338</ele>
        <time>2013-08-07T13:47:52.252Z</time>
      </trkpt>
      <trkpt lat="48.74994" lon="7.28602">
        <ele>340</ele>
        <time>2013-08-07T13:47:54.259Z</time>
      </trkpt>
      <trkpt lat="48.74998" lon="7.28588">
        <ele>343</ele>
        <time>2013-08-07T13:47:58.260Z</time>
      </trkpt>
      <trkpt lat="48.75006" lon="7.28572">
        <ele>348</ele>
        <time>2013-08-07T13:48:13.258Z</time>
      </trkpt>
      <trkpt lat="48.75013" lon="7.28556">
        <ele>350</ele>
        <time>2013-08-07T13:48:18.263Z</time>
      </trkpt>
      <trkpt lat="48.75018" lon="7.28545">
        <ele>351</ele>
        <time>2013-08-07T13:48:22.256Z</time>
      </trkpt>
      <trkpt lat="48.75024" lon="7.2853">
        <ele>351</ele>
        <time>2013-08-07T13:48:25.270Z</time>
      </trkpt>
      <trkpt lat="48.75029" lon="7.28518">
        <ele>351</ele>
        <time>2013-08-07T13:48:29.259Z</time>
      </trkpt>
      <trkpt lat="48.75032" lon="7.28503">
        <ele>351</ele>
        <time>2013-08-07T13:48:35.257Z</time>
      </trkpt>
      <trkpt lat="48.75042" lon="7.28494">
        <ele>350</ele>
        <time>2013-08-07T13:48:52.233Z</time>
      </trkpt>
      <trkpt lat="48.75051" lon="7.28487">
        <ele>351</ele>
        <time>2013-08-07T13:48:55.236Z</time>
      </trkpt>
      <trkpt lat="48.75061" lon="7.28484">
        <ele>352</ele>
        <time>2013-08-07T13:48:59.233Z</time>
      </trkpt>
      <trkpt lat="48.75072" lon="7.28485">
        <ele>354</ele>
        <time>2013-08-07T13:49:23.238Z</time>
      </trkpt>
      <trkpt lat="48.75081" lon="7.28482">
        <ele>355</ele>
        <time>2013-08-07T13:49:38.277Z</time>
      </trkpt>
      <trkpt lat="48.75081" lon="7.28467">
        <ele>353</ele>
        <time>2013-08-07T13:50:39.255Z</time>
      </trkpt>
      <trkpt lat="48.7509" lon="7.28465">
        <ele>360</ele>
        <time>2013-08-07T13:50:57.270Z</time>
      </trkpt>
      <trkpt lat="48.75103" lon="7.28462">
        <ele>360</ele>
        <time>2013-08-07T13:51:06.280Z</time>
      </trkpt>
      <trkpt lat="48.75113" lon="7.28463">
        <ele>360</ele>
        <time>2013-08-07T13:51:09.278Z</time>
      </trkpt>
      <trkpt lat="48.75126" lon="7.2846">
        <ele>360</ele>
        <time>2013-08-07T13:51:17.233Z</time>
      </trkpt>
      <trkpt lat="48.75136" lon="7.28457">
        <ele>361</ele>
        <time>2013-08-07T13:51:24.261Z</time>
      </trkpt>
      <trkpt lat="48.75148" lon="7.28454">
        <ele>361</ele>
        <time>2013-08-07T13:51:36.264Z</time>
      </trkpt>
      <trkpt lat="48.75157" lon="7.2845">
        <ele>361</ele>
        <time>2013-08-07T13:51:50.241Z</time>
      </trkpt>
      <trkpt lat="48.75152" lon="7.28464">
        <ele>361</ele>
        <time>2013-08-07T13:52:09.269Z</time>
      </trkpt>
      <trkpt lat="48.75146" lon="7.28475">
        <ele>362</ele>
        <time>2013-08-07T13:52:13.265Z</time>
      </trkpt>
      <trkpt lat="48.75141" lon="7.28487">
        <ele>362</ele>
        <time>2013-08-07T13:52:18.258Z</time>
      </trkpt>
      <trkpt lat="48.75137" lon="7.28501">
        <ele>365</ele>
        <time>2013-08-07T13:52:23.265Z</time>
      </trkpt>
      <trkpt lat="48.75134" lon="7.28516">
        <ele>365</ele>
        <time>2013-08-07T13:52:28.258Z</time>
      </trkpt>
      <trkpt lat="48.75131" lon="7.2853">
        <ele>366</ele>
        <time>2013-08-07T13:52:33.270Z</time>
      </trkpt>
      <trkpt lat="48.75127" lon="7.28545">
        <ele>366</ele>
        <time>2013-08-07T13:52:39.254Z</time>
      </trkpt>
      <trkpt lat="48.75123" lon="7.28558">
        <ele>366</ele>
        <time>2013-08-07T13:52:44.275Z</time>
      </trkpt>
      <trkpt lat="48.7512" lon="7.28573">
        <ele>367</ele>
        <time>2013-08-07T13:52:49.275Z</time>
      </trkpt>
      <trkpt lat="48.75117" lon="7.28586">
        <ele>369</ele>
        <time>2013-08-07T13:52:54.278Z</time>
      </trkpt>
      <trkpt lat="48.75114" lon="7.28599">
        <ele>369</ele>
        <time>2013-08-07T13:52:58.259Z</time>
      </trkpt>
      <trkpt lat="48.75109" lon="7.28616">
        <ele>369</ele>
        <time>2013-08-07T13:53:02.268Z</time>
      </trkpt>
      <trkpt lat="48.75103" lon="7.28632">
        <ele>369</ele>
        <time>2013-08-07T13:53:07.262Z</time>
      </trkpt>
      <trkpt lat="48.75096" lon="7.28648">
        <ele>368</ele>
        <time>2013-08-07T13:53:10.268Z</time>
      </trkpt>
      <trkpt lat="48.7509" lon="7.28662">
        <ele>367</ele>
        <time>2013-08-07T13:53:13.271Z</time>
      </trkpt>
      <trkpt lat="48.75084" lon="7.28675">
        <ele>367</ele>
        <time>2013-08-07T13:53:17.255Z</time>
      </trkpt>
      <trkpt lat="48.75081" lon="7.28689">
        <ele>361</ele>
        <time>2013-08-07T13:53:21.274Z</time>
      </trkpt>
      <trkpt lat="48.75079" lon="7.28704">
        <ele>360</ele>
        <time>2013-08-07T13:53:25.257Z</time>
      </trkpt>
      <trkpt lat="48.75076" lon="7.28724">
        <ele>361</ele>
        <time>2013-08-07T13:53:31.264Z</time>
      </trkpt>
      <trkpt lat="48.75075" lon="7.28739">
        <ele>363</ele>
        <time>2013-08-07T13:53:35.257Z</time>
      </trkpt>
      <trkpt lat="48.75076" lon="7.28759">
        <ele>363</ele>
        <time>2013-08-07T13:53:41.273Z</time>
      </trkpt>
      <trkpt lat="48.75075" lon="7.28775">
        <ele>361</ele>
        <time>2013-08-07T13:53:45.267Z</time>
      </trkpt>
      <trkpt lat="48.75076" lon="7.2879">
        <ele>360</ele>
        <time>2013-08-07T13:53:49.254Z</time>
      </trkpt>
      <trkpt lat="48.75081" lon="7.28807">
        <ele>360</ele>
        <time>2013-08-07T13:53:53.264Z</time>
      </trkpt>
      <trkpt lat="48.75087" lon="7.28821">
        <ele>368</ele>
        <time>2013-08-07T13:53:57.267Z</time>
      </trkpt>
      <trkpt lat="48.75093" lon="7.28835">
        <ele>366</ele>
        <time>2013-08-07T13:54:01.256Z</time>
      </trkpt>
      <trkpt lat="48.751" lon="7.28846">
        <ele>367</ele>
        <time>2013-08-07T13:54:04.242Z</time>
      </trkpt>
      <trkpt lat="48.75109" lon="7.28858">
        <ele>367</ele>
        <time>2013-08-07T13:54:07.255Z</time>
      </trkpt>
      <trkpt lat="48.75115" lon="7.28868">
        <ele>368</ele>
        <time>2013-08-07T13:54:10.254Z</time>
      </trkpt>
      <trkpt lat="48.75123" lon="7.28876">
        <ele>368</ele>
        <time>2013-08-07T13:54:14.250Z</time>
      </trkpt>
      <trkpt lat="48.75133" lon="7.28883">
        <ele>368</ele>
        <time>2013-08-07T13:54:17.253Z</time>
      </trkpt>
      <trkpt lat="48.75145" lon="7.28895">
        <ele>369</ele>
        <time>2013-08-07T13:54:22.261Z</time>
      </trkpt>
      <trkpt lat="48.75157" lon="7.28903">
        <ele>370</ele>
        <time>2013-08-07T13:54:27.258Z</time>
      </trkpt>
      <trkpt lat="48.75165" lon="7.28908">
        <ele>370</ele>
        <time>2013-08-07T13:54:31.256Z</time>
      </trkpt>
      <trkpt lat="48.75175" lon="7.28916">
        <ele>372</ele>
        <time>2013-08-07T13:54:36.271Z</time>
      </trkpt>
      <trkpt lat="48.75185" lon="7.28921">
        <ele>367</ele>
        <time>2013-08-07T13:54:41.279Z</time>
      </trkpt>
      <trkpt lat="48.75195" lon="7.28922">
        <ele>366</ele>
        <time>2013-08-07T13:54:45.272Z</time>
      </trkpt>
      <trkpt lat="48.75205" lon="7.28924">
        <ele>365</ele>
        <time>2013-08-07T13:54:48.285Z</time>
      </trkpt>
      <trkpt lat="48.75215" lon="7.28929">
        <ele>365</ele>
        <time>2013-08-07T13:54:52.270Z</time>
      </trkpt>
      <trkpt lat="48.75223" lon="7.28933">
        <ele>365</ele>
        <time>2013-08-07T13:54:55.270Z</time>
      </trkpt>
      <trkpt lat="48.75234" lon="7.28935">
        <ele>365</ele>
        <time>2013-08-07T13:54:59.271Z</time>
      </trkpt>
      <trkpt lat="48.75245" lon="7.28936">
        <ele>366</ele>
        <time>2013-08-07T13:55:03.267Z</time>
      </trkpt>
      <trkpt lat="48.75255" lon="7.28935">
        <ele>368</ele>
        <time>2013-08-07T13:55:07.253Z</time>
      </trkpt>
      <trkpt lat="48.75265" lon="7.28938">
        <ele>367</ele>
        <time>2013-08-07T13:55:11.260Z</time>
      </trkpt>
      <trkpt lat="48.75274" lon="7.28943">
        <ele>366</ele>
        <time>2013-08-07T13:55:15.257Z</time>
      </trkpt>
      <trkpt lat="48.75284" lon="7.28948">
        <ele>366</ele>
        <time>2013-08-07T13:55:19.252Z</time>
      </trkpt>
      <trkpt lat="48.75293" lon="7.28954">
        <ele>365</ele>
        <time>2013-08-07T13:55:23.256Z</time>
      </trkpt>
      <trkpt lat="48.75303" lon="7.28962">
        <ele>365</ele>
        <time>2013-08-07T13:55:28.253Z</time>
      </trkpt>
      <trkpt lat="48.7531" lon="7.2897">
        <ele>364</ele>
        <time>2013-08-07T13:55:32.256Z</time>
      </trkpt>
      <trkpt lat="48.75318" lon="7.28979">
        <ele>363</ele>
        <time>2013-08-07T13:55:36.264Z</time>
      </trkpt>
      <trkpt lat="48.75328" lon="7.2899">
        <ele>362</ele>
        <time>2013-08-07T13:55:41.258Z</time>
      </trkpt>
      <trkpt lat="48.75337" lon="7.28999">
        <ele>362</ele>
        <time>2013-08-07T13:55:45.270Z</time>
      </trkpt>
      <trkpt lat="48.75345" lon="7.29008">
        <ele>360</ele>
        <time>2013-08-07T13:55:49.278Z</time>
      </trkpt>
      <trkpt lat="48.75353" lon="7.29015">
        <ele>359</ele>
        <time>2013-08-07T13:55:53.272Z</time>
      </trkpt>
      <trkpt lat="48.75363" lon="7.29022">
        <ele>359</ele>
        <time>2013-08-07T13:55:57.253Z</time>
      </trkpt>
      <trkpt lat="48.75372" lon="7.2903">
        <ele>359</ele>
        <time>2013-08-07T13:56:01.245Z</time>
      </trkpt>
      <trkpt lat="48.7538" lon="7.29039">
        <ele>358</ele>
        <time>2013-08-07T13:56:06.275Z</time>
      </trkpt>
      <trkpt lat="48.75388" lon="7.29047">
        <ele>358</ele>
        <time>2013-08-07T13:56:09.263Z</time>
      </trkpt>
      <trkpt lat="48.75399" lon="7.29045">
        <ele>359</ele>
        <time>2013-08-07T13:56:14.255Z</time>
      </trkpt>
      <trkpt lat="48.75411" lon="7.29047">
        <ele>359</ele>
        <time>2013-08-07T13:56:18.261Z</time>
      </trkpt>
      <trkpt lat="48.75421" lon="7.29043">
        <ele>361</ele>
        <time>2013-08-07T13:56:22.271Z</time>
      </trkpt>
      <trkpt lat="48.7543" lon="7.29034">
        <ele>362</ele>
        <time>2013-08-07T13:56:26.264Z</time>
      </trkpt>
      <trkpt lat="48.75437" lon="7.29022">
        <ele>363</ele>
        <time>2013-08-07T13:56:29.260Z</time>
      </trkpt>
      <trkpt lat="48.75444" lon="7.29011">
        <ele>363</ele>
        <time>2013-08-07T13:56:32.265Z</time>
      </trkpt>
      <trkpt lat="48.7545" lon="7.29">
        <ele>363</ele>
        <time>2013-08-07T13:56:36.272Z</time>
      </trkpt>
      <trkpt lat="48.75455" lon="7.28989">
        <ele>367</ele>
        <time>2013-08-07T13:56:39.263Z</time>
      </trkpt>
      <trkpt lat="48.75463" lon="7.28977">
        <ele>367</ele>
        <time>2013-08-07T13:56:43.247Z</time>
      </trkpt>
      <trkpt lat="48.75471" lon="7.28965">
        <ele>367</ele>
        <time>2013-08-07T13:56:47.255Z</time>
      </trkpt>
      <trkpt lat="48.75476" lon="7.28952">
        <ele>367</ele>
        <time>2013-08-07T13:56:51.280Z</time>
      </trkpt>
      <trkpt lat="48.75479" lon="7.28939">
        <ele>367</ele>
        <time>2013-08-07T13:56:55.280Z</time>
      </trkpt>
      <trkpt lat="48.75482" lon="7.28925">
        <ele>367</ele>
        <time>2013-08-07T13:56:59.275Z</time>
      </trkpt>
      <trkpt lat="48.75483" lon="7.2891">
        <ele>366</ele>
        <time>2013-08-07T13:57:03.265Z</time>
      </trkpt>
      <trkpt lat="48.75485" lon="7.28895">
        <ele>367</ele>
        <time>2013-08-07T13:57:07.259Z</time>
      </trkpt>
      <trkpt lat="48.75485" lon="7.28879">
        <ele>366</ele>
        <time>2013-08-07T13:57:11.269Z</time>
      </trkpt>
      <trkpt lat="48.75484" lon="7.28862">
        <ele>366</ele>
        <time>2013-08-07T13:57:15.264Z</time>
      </trkpt>
      <trkpt lat="48.75484" lon="7.28849">
        <ele>365</ele>
        <time>2013-08-07T13:57:18.272Z</time>
      </trkpt>
      <trkpt lat="48.75484" lon="7.28819">
        <ele>364</ele>
        <time>2013-08-07T13:57:26.273Z</time>
      </trkpt>
      <trkpt lat="48.75487" lon="7.28803">
        <ele>364</ele>
        <time>2013-08-07T13:57:30.268Z</time>
      </trkpt>
      <trkpt lat="48.75489" lon="7.28789">
        <ele>364</ele>
        <time>2013-08-07T13:57:33.260Z</time>
      </trkpt>
      <trkpt lat="48.75493" lon="7.28775">
        <ele>364</ele>
        <time>2013-08-07T13:57:39.266Z</time>
      </trkpt>
      <trkpt lat="48.75497" lon="7.28758">
        <ele>363</ele>
        <time>2013-08-07T13:57:44.270Z</time>
      </trkpt>
      <trkpt lat="48.755" lon="7.28743">
        <ele>363</ele>
        <time>2013-08-07T13:57:48.245Z</time>
      </trkpt>
      <trkpt lat="48.75501" lon="7.28727">
        <ele>357</ele>
        <time>2013-08-07T13:57:52.272Z</time>
      </trkpt>
      <trkpt lat="48.75501" lon="7.28711">
        <ele>357</ele>
        <time>2013-08-07T13:57:56.267Z</time>
      </trkpt>
      <trkpt lat="48.75499" lon="7.28695">
        <ele>364</ele>
        <time>2013-08-07T13:58:00.264Z</time>
      </trkpt>
      <trkpt lat="48.755" lon="7.28679">
        <ele>360</ele>
        <time>2013-08-07T13:58:04.268Z</time>
      </trkpt>
      <trkpt lat="48.75503" lon="7.28663">
        <ele>363</ele>
        <time>2013-08-07T13:58:08.258Z</time>
      </trkpt>
      <trkpt lat="48.75505" lon="7.28645">
        <ele>360</ele>
        <time>2013-08-07T13:58:12.262Z</time>
      </trkpt>
      <trkpt lat="48.75507" lon="7.28628">
        <ele>359</ele>
        <time>2013-08-07T13:58:16.257Z</time>
      </trkpt>
      <trkpt lat="48.75509" lon="7.28612">
        <ele>360</ele>
        <time>2013-08-07T13:58:20.264Z</time>
      </trkpt>
      <trkpt lat="48.75511" lon="7.28597">
        <ele>362</ele>
        <time>2013-08-07T13:58:24.272Z</time>
      </trkpt>
      <trkpt lat="48.75514" lon="7.2858">
        <ele>363</ele>
        <time>2013-08-07T13:58:28.275Z</time>
      </trkpt>
      <trkpt lat="48.75516" lon="7.28563">
        <ele>362</ele>
        <time>2013-08-07T13:58:32.257Z</time>
      </trkpt>
      <trkpt lat="48.75514" lon="7.28547">
        <ele>361</ele>
        <time>2013-08-07T13:58:45.271Z</time>
      </trkpt>
      <trkpt lat="48.75504" lon="7.28549">
        <ele>362</ele>
        <time>2013-08-07T13:58:49.251Z</time>
      </trkpt>
      <trkpt lat="48.75494" lon="7.28554">
        <ele>366</ele>
        <time>2013-08-07T13:58:57.285Z</time>
      </trkpt>
      <trkpt lat="48.75484" lon="7.28559">
        <ele>366</ele>
        <time>2013-08-07T13:59:02.264Z</time>
      </trkpt>
      <trkpt lat="48.75475" lon="7.28561">
        <ele>366</ele>
        <time>2013-08-07T13:59:07.261Z</time>
      </trkpt>
      <trkpt lat="48.75465" lon="7.28564">
        <ele>366</ele>
        <time>2013-08-07T13:59:12.276Z</time>
      </trkpt>
      <trkpt lat="48.75455" lon="7.28564">
        <ele>366</ele>
        <time>2013-08-07T13:59:18.265Z</time>
      </trkpt>
      <trkpt lat="48.75444" lon="7.28561">
        <ele>366</ele>
        <time>2013-08-07T13:59:23.261Z</time>
      </trkpt>
      <trkpt lat="48.75433" lon="7.28558">
        <ele>366</ele>
        <time>2013-08-07T13:59:27.263Z</time>
      </trkpt>
      <trkpt lat="48.75424" lon="7.28549">
        <ele>366</ele>
        <time>2013-08-07T13:59:32.268Z</time>
      </trkpt>
      <trkpt lat="48.75416" lon="7.2854">
        <ele>366</ele>
        <time>2013-08-07T13:59:36.263Z</time>
      </trkpt>
      <trkpt lat="48.75406" lon="7.28525">
        <ele>366</ele>
        <time>2013-08-07T13:59:41.250Z</time>
      </trkpt>
      <trkpt lat="48.75399" lon="7.28518">
        <ele>366</ele>
        <time>2013-08-07T13:59:47.269Z</time>
      </trkpt>
      <trkpt lat="48.7539" lon="7.28512">
        <ele>366</ele>
        <time>2013-08-07T13:59:53.261Z</time>
      </trkpt>
      <trkpt lat="48.7538" lon="7.28504">
        <ele>366</ele>
        <time>2013-08-07T13:59:58.277Z</time>
      </trkpt>
      <trkpt lat="48.75372" lon="7.28496">
        <ele>366</ele>
        <time>2013-08-07T14:00:02.260Z</time>
      </trkpt>
      <trkpt lat="48.75366" lon="7.28484">
        <ele>366</ele>
        <time>2013-08-07T14:00:07.273Z</time>
      </trkpt>
      <trkpt lat="48.75361" lon="7.2847">
        <ele>366</ele>
        <time>2013-08-07T14:00:11.262Z</time>
      </trkpt>
      <trkpt lat="48.75357" lon="7.28457">
        <ele>366</ele>
        <time>2013-08-07T14:00:14.263Z</time>
      </trkpt>
      <trkpt lat="48.75352" lon="7.28443">
        <ele>365</ele>
        <time>2013-08-07T14:01:18.301Z</time>
      </trkpt>
      <trkpt lat="48.75356" lon="7.28427">
        <ele>365</ele>
        <time>2013-08-07T14:01:23.287Z</time>
      </trkpt>
      <trkpt lat="48.75359" lon="7.28414">
        <ele>364</ele>
        <time>2013-08-07T14:01:29.285Z</time>
      </trkpt>
      <trkpt lat="48.75364" lon="7.28401">
        <ele>364</ele>
        <time>2013-08-07T14:01:34.273Z</time>
      </trkpt>
      <trkpt lat="48.75366" lon="7.28386">
        <ele>364</ele>
        <time>2013-08-07T14:02:12.293Z</time>
      </trkpt>
      <trkpt lat="48.75369" lon="7.28373">
        <ele>364</ele>
        <time>2013-08-07T14:02:17.289Z</time>
      </trkpt>
      <trkpt lat="48.75371" lon="7.28357">
        <ele>363</ele>
        <time>2013-08-07T14:02:23.291Z</time>
      </trkpt>
      <trkpt lat="48.75377" lon="7.28345">
        <ele>363</ele>
        <time>2013-08-07T14:02:29.287Z</time>
      </trkpt>
      <trkpt lat="48.75382" lon="7.28333">
        <ele>362</ele>
        <time>2013-08-07T14:02:35.267Z</time>
      </trkpt>
      <trkpt lat="48.75389" lon="7.2832">
        <ele>362</ele>
        <time>2013-08-07T14:02:55.302Z</time>
      </trkpt>
      <trkpt lat="48.75388" lon="7.28306">
        <ele>363</ele>
        <time>2013-08-07T14:03:01.291Z</time>
      </trkpt>
      <trkpt lat="48.75386" lon="7.2829">
        <ele>363</ele>
        <time>2013-08-07T14:03:07.305Z</time>
      </trkpt>
      <trkpt lat="48.75387" lon="7.28276">
        <ele>363</ele>
        <time>2013-08-07T14:03:11.299Z</time>
      </trkpt>
      <trkpt lat="48.75389" lon="7.28262">
        <ele>363</ele>
        <time>2013-08-07T14:03:15.291Z</time>
      </trkpt>
      <trkpt lat="48.75394" lon="7.28248">
        <ele>364</ele>
        <time>2013-08-07T14:03:19.299Z</time>
      </trkpt>
      <trkpt lat="48.75401" lon="7.28236">
        <ele>364</ele>
        <time>2013-08-07T14:03:23.293Z</time>
      </trkpt>
      <trkpt lat="48.7541" lon="7.28227">
        <ele>364</ele>
        <time>2013-08-07T14:03:27.296Z</time>
      </trkpt>
      <trkpt lat="48.75418" lon="7.28221">
        <ele>365</ele>
        <time>2013-08-07T14:03:30.293Z</time>
      </trkpt>
      <trkpt lat="48.75429" lon="7.28213">
        <ele>365</ele>
        <time>2013-08-07T14:03:34.244Z</time>
      </trkpt>
      <trkpt lat="48.75437" lon="7.28208">
        <ele>365</ele>
        <time>2013-08-07T14:03:37.427Z</time>
      </trkpt>
      <trkpt lat="48.75447" lon="7.282">
        <ele>365</ele>
        <time>2013-08-07T14:03:41.256Z</time>
      </trkpt>
      <trkpt lat="48.75457" lon="7.28193">
        <ele>365</ele>
        <time>2013-08-07T14:03:45.242Z</time>
      </trkpt>
      <trkpt lat="48.75466" lon="7.28185">
        <ele>365</ele>
        <time>2013-08-07T14:03:49.340Z</time>
      </trkpt>
      <trkpt lat="48.75473" lon="7.28174">
        <ele>365</ele>
        <time>2013-08-07T14:03:53.244Z</time>
      </trkpt>
      <trkpt lat="48.75481" lon="7.28165">
        <ele>367</ele>
        <time>2013-08-07T14:03:57.305Z</time>
      </trkpt>
      <trkpt lat="48.7549" lon="7.28156">
        <ele>367</ele>
        <time>2013-08-07T14:04:01.287Z</time>
      </trkpt>
      <trkpt lat="48.75498" lon="7.28148">
        <ele>367</ele>
        <time>2013-08-07T14:04:05.286Z</time>
      </trkpt>
      <trkpt lat="48.75508" lon="7.2814">
        <ele>366</ele>
        <time>2013-08-07T14:04:09.288Z</time>
      </trkpt>
      <trkpt lat="48.75516" lon="7.28132">
        <ele>366</ele>
        <time>2013-08-07T14:04:13.293Z</time>
      </trkpt>
      <trkpt lat="48.75526" lon="7.28125">
        <ele>366</ele>
        <time>2013-08-07T14:04:17.289Z</time>
      </trkpt>
      <trkpt lat="48.75536" lon="7.28117">
        <ele>366</ele>
        <time>2013-08-07T14:04:21.251Z</time>
      </trkpt>
      <trkpt lat="48.75545" lon="7.28111">
        <ele>366</ele>
        <time>2013-08-07T14:04:25.273Z</time>
      </trkpt>
      <trkpt lat="48.75554" lon="7.28107">
        <ele>366</ele>
        <time>2013-08-07T14:04:28.306Z</time>
      </trkpt>
      <trkpt lat="48.75563" lon="7.28101">
        <ele>366</ele>
        <time>2013-08-07T14:04:31.303Z</time>
      </trkpt>
      <trkpt lat="48.75574" lon="7.28097">
        <ele>366</ele>
        <time>2013-08-07T14:04:35.291Z</time>
      </trkpt>
      <trkpt lat="48.75583" lon="7.28091">
        <ele>365</ele>
        <time>2013-08-07T14:04:39.285Z</time>
      </trkpt>
      <trkpt lat="48.75594" lon="7.28083">
        <ele>366</ele>
        <time>2013-08-07T14:04:43.296Z</time>
      </trkpt>
      <trkpt lat="48.75603" lon="7.28078">
        <ele>366</ele>
        <time>2013-08-07T14:04:47.299Z</time>
      </trkpt>
      <trkpt lat="48.75614" lon="7.28074">
        <ele>365</ele>
        <time>2013-08-07T14:04:51.247Z</time>
      </trkpt>
      <trkpt lat="48.75625" lon="7.28067">
        <ele>365</ele>
        <time>2013-08-07T14:04:55.285Z</time>
      </trkpt>
      <trkpt lat="48.75632" lon="7.28059">
        <ele>365</ele>
        <time>2013-08-07T14:04:58.289Z</time>
      </trkpt>
      <trkpt lat="48.75639" lon="7.28051">
        <ele>365</ele>
        <time>2013-08-07T14:05:01.294Z</time>
      </trkpt>
      <trkpt lat="48.75648" lon="7.28044">
        <ele>365</ele>
        <time>2013-08-07T14:05:05.295Z</time>
      </trkpt>
      <trkpt lat="48.75656" lon="7.28035">
        <ele>365</ele>
        <time>2013-08-07T14:05:09.285Z</time>
      </trkpt>
      <trkpt lat="48.75665" lon="7.28029">
        <ele>365</ele>
        <time>2013-08-07T14:05:12.292Z</time>
      </trkpt>
      <trkpt lat="48.75678" lon="7.28023">
        <ele>364</ele>
        <time>2013-08-07T14:05:15.290Z</time>
      </trkpt>
      <trkpt lat="48.75688" lon="7.28022">
        <ele>364</ele>
        <time>2013-08-07T14:05:17.279Z</time>
      </trkpt>
      <trkpt lat="48.75698" lon="7.28022">
        <ele>364</ele>
        <time>2013-08-07T14:05:19.288Z</time>
      </trkpt>
      <trkpt lat="48.75708" lon="7.28022">
        <ele>364</ele>
        <time>2013-08-07T14:05:22.277Z</time>
      </trkpt>
      <trkpt lat="48.75714" lon="7.28012">
        <ele>364</ele>
        <time>2013-08-07T14:05:26.290Z</time>
      </trkpt>
      <trkpt lat="48.75712" lon="7.27996">
        <ele>364</ele>
        <time>2013-08-07T14:05:33.290Z</time>
      </trkpt>
      <trkpt lat="48.75706" lon="7.27982">
        <ele>364</ele>
        <time>2013-08-07T14:05:37.290Z</time>
      </trkpt>
      <trkpt lat="48.757" lon="7.2797">
        <ele>364</ele>
        <time>2013-08-07T14:05:39.291Z</time>
      </trkpt>
      <trkpt lat="48.75691" lon="7.27957">
        <ele>364</ele>
        <time>2013-08-07T14:05:42.292Z</time>
      </trkpt>
      <trkpt lat="48.75687" lon="7.27942">
        <ele>364</ele>
        <time>2013-08-07T14:05:45.307Z</time>
      </trkpt>
      <trkpt lat="48.75681" lon="7.27926">
        <ele>364</ele>
        <time>2013-08-07T14:05:48.292Z</time>
      </trkpt>
      <trkpt lat="48.75675" lon="7.27912">
        <ele>363</ele>
        <time>2013-08-07T14:05:51.298Z</time>
      </trkpt>
      <trkpt lat="48.75668" lon="7.279">
        <ele>363</ele>
        <time>2013-08-07T14:05:54.306Z</time>
      </trkpt>
      <trkpt lat="48.75662" lon="7.27889">
        <ele>364</ele>
        <time>2013-08-07T14:05:57.291Z</time>
      </trkpt>
      <trkpt lat="48.75657" lon="7.27874">
        <ele>364</ele>
        <time>2013-08-07T14:06:01.308Z</time>
      </trkpt>
      <trkpt lat="48.75652" lon="7.27862">
        <ele>364</ele>
        <time>2013-08-07T14:06:04.291Z</time>
      </trkpt>
      <trkpt lat="48.75646" lon="7.2785">
        <ele>364</ele>
        <time>2013-08-07T14:06:07.301Z</time>
      </trkpt>
      <trkpt lat="48.75641" lon="7.27838">
        <ele>364</ele>
        <time>2013-08-07T14:06:10.297Z</time>
      </trkpt>
      <trkpt lat="48.75636" lon="7.27824">
        <ele>364</ele>
        <time>2013-08-07T14:06:14.292Z</time>
      </trkpt>
      <trkpt lat="48.7563" lon="7.27812">
        <ele>364</ele>
        <time>2013-08-07T14:06:17.290Z</time>
      </trkpt>
      <trkpt lat="48.75625" lon="7.27798">
        <ele>364</ele>
        <time>2013-08-07T14:06:21.309Z</time>
      </trkpt>
      <trkpt lat="48.75619" lon="7.27785">
        <ele>364</ele>
        <time>2013-08-07T14:06:25.289Z</time>
      </trkpt>
      <trkpt lat="48.75613" lon="7.27769">
        <ele>365</ele>
        <time>2013-08-07T14:06:29.289Z</time>
      </trkpt>
      <trkpt lat="48.75608" lon="7.27757">
        <ele>365</ele>
        <time>2013-08-07T14:06:32.274Z</time>
      </trkpt>
      <trkpt lat="48.75602" lon="7.27746">
        <ele>365</ele>
        <time>2013-08-07T14:06:35.293Z</time>
      </trkpt>
      <trkpt lat="48.75597" lon="7.27733">
        <ele>365</ele>
        <time>2013-08-07T14:06:38.298Z</time>
      </trkpt>
      <trkpt lat="48.75591" lon="7.2772">
        <ele>364</ele>
        <time>2013-08-07T14:06:41.293Z</time>
      </trkpt>
      <trkpt lat="48.75581" lon="7.27718">
        <ele>365</ele>
        <time>2013-08-07T14:06:45.306Z</time>
      </trkpt>
      <trkpt lat="48.75571" lon="7.27725">
        <ele>365</ele>
        <time>2013-08-07T14:06:49.305Z</time>
      </trkpt>
      <trkpt lat="48.75562" lon="7.2773">
        <ele>365</ele>
        <time>2013-08-07T14:06:52.302Z</time>
      </trkpt>
      <trkpt lat="48.75552" lon="7.27737">
        <ele>365</ele>
        <time>2013-08-07T14:06:56.305Z</time>
      </trkpt>
      <trkpt lat="48.75542" lon="7.27743">
        <ele>365</ele>
        <time>2013-08-07T14:07:00.292Z</time>
      </trkpt>
      <trkpt lat="48.75533" lon="7.27739">
        <ele>365</ele>
        <time>2013-08-07T14:07:50.284Z</time>
      </trkpt>
      <trkpt lat="48.7553" lon="7.27725">
        <ele>365</ele>
        <time>2013-08-07T14:07:55.280Z</time>
      </trkpt>
      <trkpt lat="48.75525" lon="7.27714">
        <ele>365</ele>
        <time>2013-08-07T14:08:01.284Z</time>
      </trkpt>
      <trkpt lat="48.75519" lon="7.277">
        <ele>365</ele>
        <time>2013-08-07T14:08:06.285Z</time>
      </trkpt>
      <trkpt lat="48.75514" lon="7.27688">
        <ele>365</ele>
        <time>2013-08-07T14:08:10.278Z</time>
      </trkpt>
      <trkpt lat="48.75509" lon="7.27674">
        <ele>364</ele>
        <time>2013-08-07T14:08:14.281Z</time>
      </trkpt>
      <trkpt lat="48.75506" lon="7.27661">
        <ele>364</ele>
        <time>2013-08-07T14:08:19.284Z</time>
      </trkpt>
      <trkpt lat="48.75502" lon="7.27646">
        <ele>363</ele>
        <time>2013-08-07T14:08:23.299Z</time>
      </trkpt>
      <trkpt lat="48.75497" lon="7.27629">
        <ele>363</ele>
        <time>2013-08-07T14:08:27.293Z</time>
      </trkpt>
      <trkpt lat="48.75493" lon="7.27613">
        <ele>363</ele>
        <time>2013-08-07T14:08:31.285Z</time>
      </trkpt>
      <trkpt lat="48.75489" lon="7.27599">
        <ele>362</ele>
        <time>2013-08-07T14:08:34.292Z</time>
      </trkpt>
      <trkpt lat="48.75484" lon="7.27583">
        <ele>361</ele>
        <time>2013-08-07T14:08:37.293Z</time>
      </trkpt>
      <trkpt lat="48.7548" lon="7.27567">
        <ele>361</ele>
        <time>2013-08-07T14:08:40.262Z</time>
      </trkpt>
      <trkpt lat="48.75475" lon="7.27553">
        <ele>360</ele>
        <time>2013-08-07T14:08:43.289Z</time>
      </trkpt>
      <trkpt lat="48.7547" lon="7.27538">
        <ele>360</ele>
        <time>2013-08-07T14:08:46.255Z</time>
      </trkpt>
      <trkpt lat="48.75466" lon="7.27526">
        <ele>360</ele>
        <time>2013-08-07T14:08:49.289Z</time>
      </trkpt>
      <trkpt lat="48.75461" lon="7.27512">
        <ele>360</ele>
        <time>2013-08-07T14:08:54.291Z</time>
      </trkpt>
      <trkpt lat="48.75456" lon="7.27497">
        <ele>357</ele>
        <time>2013-08-07T14:08:58.282Z</time>
      </trkpt>
      <trkpt lat="48.75451" lon="7.27483">
        <ele>357</ele>
        <time>2013-08-07T14:09:01.299Z</time>
      </trkpt>
      <trkpt lat="48.75447" lon="7.27469">
        <ele>357</ele>
        <time>2013-08-07T14:09:04.279Z</time>
      </trkpt>
      <trkpt lat="48.75443" lon="7.27456">
        <ele>356</ele>
        <time>2013-08-07T14:09:06.301Z</time>
      </trkpt>
      <trkpt lat="48.75438" lon="7.27441">
        <ele>356</ele>
        <time>2013-08-07T14:09:08.292Z</time>
      </trkpt>
      <trkpt lat="48.75434" lon="7.27426">
        <ele>356</ele>
        <time>2013-08-07T14:09:10.297Z</time>
      </trkpt>
      <trkpt lat="48.75428" lon="7.27409">
        <ele>353</ele>
        <time>2013-08-07T14:09:12.292Z</time>
      </trkpt>
      <trkpt lat="48.75422" lon="7.27391">
        <ele>352</ele>
        <time>2013-08-07T14:09:14.289Z</time>
      </trkpt>
      <trkpt lat="48.75415" lon="7.2737">
        <ele>351</ele>
        <time>2013-08-07T14:09:16.307Z</time>
      </trkpt>
      <trkpt lat="48.75407" lon="7.27347">
        <ele>350</ele>
        <time>2013-08-07T14:09:18.300Z</time>
      </trkpt>
      <trkpt lat="48.75399" lon="7.27328">
        <ele>345</ele>
        <time>2013-08-07T14:09:20.289Z</time>
      </trkpt>
      <trkpt lat="48.75394" lon="7.27315">
        <ele>344</ele>
        <time>2013-08-07T14:09:22.298Z</time>
      </trkpt>
      <trkpt lat="48.75388" lon="7.27302">
        <ele>343</ele>
        <time>2013-08-07T14:09:25.288Z</time>
      </trkpt>
      <trkpt lat="48.75383" lon="7.27288">
        <ele>342</ele>
        <time>2013-08-07T14:09:28.288Z</time>
      </trkpt>
      <trkpt lat="48.75379" lon="7.27275">
        <ele>342</ele>
        <time>2013-08-07T14:09:34.283Z</time>
      </trkpt>
      <trkpt lat="48.75377" lon="7.27257">
        <ele>341</ele>
        <time>2013-08-07T14:09:38.299Z</time>
      </trkpt>
      <trkpt lat="48.75368" lon="7.2723">
        <ele>333</ele>
        <time>2013-08-07T14:09:47.298Z</time>
      </trkpt>
      <trkpt lat="48.75364" lon="7.27217">
        <ele>332</ele>
        <time>2013-08-07T14:09:55.313Z</time>
      </trkpt>
      <trkpt lat="48.75361" lon="7.27202">
        <ele>331</ele>
        <time>2013-08-07T14:10:00.308Z</time>
      </trkpt>
      <trkpt lat="48.75356" lon="7.27189">
        <ele>330</ele>
        <time>2013-08-07T14:10:04.297Z</time>
      </trkpt>
      <trkpt lat="48.75354" lon="7.27175">
        <ele>328</ele>
        <time>2013-08-07T14:10:10.300Z</time>
      </trkpt>
      <trkpt lat="48.75363" lon="7.27171">
        <ele>329</ele>
        <time>2013-08-07T14:11:36.315Z</time>
      </trkpt>
      <trkpt lat="48.75372" lon="7.27167">
        <ele>329</ele>
        <time>2013-08-07T14:11:40.300Z</time>
      </trkpt>
      <trkpt lat="48.7538" lon="7.27159">
        <ele>322</ele>
        <time>2013-08-07T14:11:43.302Z</time>
      </trkpt>
      <trkpt lat="48.75387" lon="7.27149">
        <ele>321</ele>
        <time>2013-08-07T14:11:46.298Z</time>
      </trkpt>
      <trkpt lat="48.75395" lon="7.27143">
        <ele>321</ele>
        <time>2013-08-07T14:11:51.303Z</time>
      </trkpt>
      <trkpt lat="48.75405" lon="7.2714">
        <ele>321</ele>
        <time>2013-08-07T14:11:55.299Z</time>
      </trkpt>
      <trkpt lat="48.75414" lon="7.27134">
        <ele>321</ele>
        <time>2013-08-07T14:11:58.302Z</time>
      </trkpt>
      <trkpt lat="48.75424" lon="7.27129">
        <ele>324</ele>
        <time>2013-08-07T14:12:02.257Z</time>
      </trkpt>
      <trkpt lat="48.75435" lon="7.27124">
        <ele>324</ele>
        <time>2013-08-07T14:12:07.299Z</time>
      </trkpt>
      <trkpt lat="48.75444" lon="7.27121">
        <ele>324</ele>
        <time>2013-08-07T14:12:12.308Z</time>
      </trkpt>
      <trkpt lat="48.75453" lon="7.27116">
        <ele>324</ele>
        <time>2013-08-07T14:12:16.294Z</time>
      </trkpt>
      <trkpt lat="48.75463" lon="7.27116">
        <ele>325</ele>
        <time>2013-08-07T14:12:22.258Z</time>
      </trkpt>
      <trkpt lat="48.75471" lon="7.27108">
        <ele>325</ele>
        <time>2013-08-07T14:12:26.284Z</time>
      </trkpt>
      <trkpt lat="48.75479" lon="7.27104">
        <ele>325</ele>
        <time>2013-08-07T14:12:31.292Z</time>
      </trkpt>
      <trkpt lat="48.75488" lon="7.27095">
        <ele>325</ele>
        <time>2013-08-07T14:12:37.261Z</time>
      </trkpt>
      <trkpt lat="48.75497" lon="7.27088">
        <ele>324</ele>
        <time>2013-08-07T14:12:42.303Z</time>
      </trkpt>
      <trkpt lat="48.75506" lon="7.27079">
        <ele>323</ele>
        <time>2013-08-07T14:12:47.301Z</time>
      </trkpt>
      <trkpt lat="48.75516" lon="7.2707">
        <ele>322</ele>
        <time>2013-08-07T14:12:51.300Z</time>
      </trkpt>
      <trkpt lat="48.75524" lon="7.27062">
        <ele>322</ele>
        <time>2013-08-07T14:12:54.282Z</time>
      </trkpt>
      <trkpt lat="48.75533" lon="7.27053">
        <ele>321</ele>
        <time>2013-08-07T14:12:58.305Z</time>
      </trkpt>
      <trkpt lat="48.75543" lon="7.27045">
        <ele>321</ele>
        <time>2013-08-07T14:13:01.291Z</time>
      </trkpt>
      <trkpt lat="48.75552" lon="7.27036">
        <ele>321</ele>
        <time>2013-08-07T14:13:04.293Z</time>
      </trkpt>
      <trkpt lat="48.7556" lon="7.27027">
        <ele>321</ele>
        <time>2013-08-07T14:13:07.275Z</time>
      </trkpt>
      <trkpt lat="48.75568" lon="7.27021">
        <ele>321</ele>
        <time>2013-08-07T14:13:10.299Z</time>
      </trkpt>
      <trkpt lat="48.75577" lon="7.27015">
        <ele>321</ele>
        <time>2013-08-07T14:13:14.342Z</time>
      </trkpt>
      <trkpt lat="48.75586" lon="7.2701">
        <ele>321</ele>
        <time>2013-08-07T14:13:19.247Z</time>
      </trkpt>
      <trkpt lat="48.75595" lon="7.27008">
        <ele>321</ele>
        <time>2013-08-07T14:13:24.293Z</time>
      </trkpt>
      <trkpt lat="48.75606" lon="7.27001">
        <ele>321</ele>
        <time>2013-08-07T14:13:29.290Z</time>
      </trkpt>
      <trkpt lat="48.75618" lon="7.26999">
        <ele>315</ele>
        <time>2013-08-07T14:13:32.298Z</time>
      </trkpt>
      <trkpt lat="48.75628" lon="7.26998">
        <ele>315</ele>
        <time>2013-08-07T14:13:35.288Z</time>
      </trkpt>
      <trkpt lat="48.75638" lon="7.26999">
        <ele>314</ele>
        <time>2013-08-07T14:13:37.301Z</time>
      </trkpt>
      <trkpt lat="48.75651" lon="7.27003">
        <ele>318</ele>
        <time>2013-08-07T14:13:39.294Z</time>
      </trkpt>
      <trkpt lat="48.75664" lon="7.27006">
        <ele>316</ele>
        <time>2013-08-07T14:13:41.299Z</time>
      </trkpt>
      <trkpt lat="48.75673" lon="7.27009">
        <ele>315</ele>
        <time>2013-08-07T14:13:42.301Z</time>
      </trkpt>
      <trkpt lat="48.75682" lon="7.2701">
        <ele>315</ele>
        <time>2013-08-07T14:13:43.307Z</time>
      </trkpt>
      <trkpt lat="48.75697" lon="7.27013">
        <ele>315</ele>
        <time>2013-08-07T14:13:45.288Z</time>
      </trkpt>
      <trkpt lat="48.75709" lon="7.27016">
        <ele>315</ele>
        <time>2013-08-07T14:13:47.288Z</time>
      </trkpt>
      <trkpt lat="48.75722" lon="7.27019">
        <ele>314</ele>
        <time>2013-08-07T14:13:49.298Z</time>
      </trkpt>
      <trkpt lat="48.75733" lon="7.2702">
        <ele>313</ele>
        <time>2013-08-07T14:13:51.291Z</time>
      </trkpt>
      <trkpt lat="48.75743" lon="7.27017">
        <ele>312</ele>
        <time>2013-08-07T14:13:54.290Z</time>
      </trkpt>
      <trkpt lat="48.7574" lon="7.27">
        <ele>311</ele>
        <time>2013-08-07T14:14:05.297Z</time>
      </trkpt>
      <trkpt lat="48.75732" lon="7.26988">
        <ele>310</ele>
        <time>2013-08-07T14:14:07.301Z</time>
      </trkpt>
      <trkpt lat="48.75724" lon="7.26974">
        <ele>310</ele>
        <time>2013-08-07T14:14:09.304Z</time>
      </trkpt>
      <trkpt lat="48.75716" lon="7.26963">
        <ele>310</ele>
        <time>2013-08-07T14:14:11.309Z</time>
      </trkpt>
      <trkpt lat="48.75707" lon="7.26949">
        <ele>310</ele>
        <time>2013-08-07T14:14:14.298Z</time>
      </trkpt>
      <trkpt lat="48.757" lon="7.26941">
        <ele>309</ele>
        <time>2013-08-07T14:14:16.301Z</time>
      </trkpt>
      <trkpt lat="48.75691" lon="7.26928">
        <ele>309</ele>
        <time>2013-08-07T14:14:19.293Z</time>
      </trkpt>
      <trkpt lat="48.75684" lon="7.26918">
        <ele>309</ele>
        <time>2013-08-07T14:14:22.300Z</time>
      </trkpt>
      <trkpt lat="48.75678" lon="7.26906">
        <ele>307</ele>
        <time>2013-08-07T14:14:28.297Z</time>
      </trkpt>
      <trkpt lat="48.75675" lon="7.2689">
        <ele>306</ele>
        <time>2013-08-07T14:14:31.298Z</time>
      </trkpt>
      <trkpt lat="48.75671" lon="7.26877">
        <ele>305</ele>
        <time>2013-08-07T14:14:33.315Z</time>
      </trkpt>
      <trkpt lat="48.75665" lon="7.26861">
        <ele>303</ele>
        <time>2013-08-07T14:14:36.304Z</time>
      </trkpt>
      <trkpt lat="48.75659" lon="7.26849">
        <ele>302</ele>
        <time>2013-08-07T14:14:43.301Z</time>
      </trkpt>
      <trkpt lat="48.7565" lon="7.2684">
        <ele>302</ele>
        <time>2013-08-07T14:15:04.290Z</time>
      </trkpt>
      <trkpt lat="48.75643" lon="7.26831">
        <ele>297</ele>
        <time>2013-08-07T14:15:07.299Z</time>
      </trkpt>
      <trkpt lat="48.75651" lon="7.2684">
        <ele>302</ele>
        <time>2013-08-07T14:15:52.293Z</time>
      </trkpt>
      <trkpt lat="48.75658" lon="7.2685">
        <ele>302</ele>
        <time>2013-08-07T14:15:57.300Z</time>
      </trkpt>
      <trkpt lat="48.75663" lon="7.26863">
        <ele>303</ele>
        <time>2013-08-07T14:16:02.301Z</time>
      </trkpt>
      <trkpt lat="48.75668" lon="7.26874">
        <ele>305</ele>
        <time>2013-08-07T14:16:07.293Z</time>
      </trkpt>
      <trkpt lat="48.75673" lon="7.26887">
        <ele>306</ele>
        <time>2013-08-07T14:16:13.302Z</time>
      </trkpt>
      <trkpt lat="48.75679" lon="7.26899">
        <ele>307</ele>
        <time>2013-08-07T14:16:18.301Z</time>
      </trkpt>
      <trkpt lat="48.75686" lon="7.26911">
        <ele>307</ele>
        <time>2013-08-07T14:16:23.304Z</time>
      </trkpt>
      <trkpt lat="48.75676" lon="7.26911">
        <ele>307</ele>
        <time>2013-08-07T14:16:38.290Z</time>
      </trkpt>
      <trkpt lat="48.75668" lon="7.26904">
        <ele>307</ele>
        <time>2013-08-07T14:16:44.305Z</time>
      </trkpt>
      <trkpt lat="48.75659" lon="7.26898">
        <ele>306</ele>
        <time>2013-08-07T14:16:50.307Z</time>
      </trkpt>
      <trkpt lat="48.75648" lon="7.26889">
        <ele>305</ele>
        <time>2013-08-07T14:16:55.299Z</time>
      </trkpt>
      <trkpt lat="48.7564" lon="7.26882">
        <ele>304</ele>
        <time>2013-08-07T14:16:58.298Z</time>
      </trkpt>
      <trkpt lat="48.7563" lon="7.26879">
        <ele>304</ele>
        <time>2013-08-07T14:17:02.315Z</time>
      </trkpt>
      <trkpt lat="48.7562" lon="7.26875">
        <ele>304</ele>
        <time>2013-08-07T14:17:06.314Z</time>
      </trkpt>
      <trkpt lat="48.75611" lon="7.2687">
        <ele>303</ele>
        <time>2013-08-07T14:17:14.294Z</time>
      </trkpt>
      <trkpt lat="48.75604" lon="7.26858">
        <ele>302</ele>
        <time>2013-08-07T14:17:21.297Z</time>
      </trkpt>
      <trkpt lat="48.75595" lon="7.26851">
        <ele>301</ele>
        <time>2013-08-07T14:17:25.277Z</time>
      </trkpt>
      <trkpt lat="48.75579" lon="7.26854">
        <ele>300</ele>
        <time>2013-08-07T14:17:30.302Z</time>
      </trkpt>
      <trkpt lat="48.75568" lon="7.26853">
        <ele>300</ele>
        <time>2013-08-07T14:17:32.302Z</time>
      </trkpt>
      <trkpt lat="48.75559" lon="7.26858">
        <ele>300</ele>
        <time>2013-08-07T14:18:03.303Z</time>
      </trkpt>
      <trkpt lat="48.7556" lon="7.26874">
        <ele>302</ele>
        <time>2013-08-07T14:20:30.304Z</time>
      </trkpt>
      <trkpt lat="48.75554" lon="7.26864">
        <ele>301</ele>
        <time>2013-08-07T14:25:36.306Z</time>
      </trkpt>
      <trkpt lat="48.75545" lon="7.26868">
        <ele>301</ele>
        <time>2013-08-07T14:25:52.303Z</time>
      </trkpt>
      <trkpt lat="48.75536" lon="7.26872">
        <ele>301</ele>
        <time>2013-08-07T14:25:56.318Z</time>
      </trkpt>
      <trkpt lat="48.75525" lon="7.26877">
        <ele>301</ele>
        <time>2013-08-07T14:26:01.318Z</time>
      </trkpt>
      <trkpt lat="48.75514" lon="7.26883">
        <ele>302</ele>
        <time>2013-08-07T14:26:05.314Z</time>
      </trkpt>
      <trkpt lat="48.75504" lon="7.2689">
        <ele>302</ele>
        <time>2013-08-07T14:26:08.312Z</time>
      </trkpt>
      <trkpt lat="48.75494" lon="7.26895">
        <ele>299</ele>
        <time>2013-08-07T14:26:12.319Z</time>
      </trkpt>
      <trkpt lat="48.75484" lon="7.26896">
        <ele>299</ele>
        <time>2013-08-07T14:26:15.307Z</time>
      </trkpt>
      <trkpt lat="48.75474" lon="7.26898">
        <ele>298</ele>
        <time>2013-08-07T14:26:21.319Z</time>
      </trkpt>
      <trkpt lat="48.75466" lon="7.26907">
        <ele>298</ele>
        <time>2013-08-07T14:26:26.300Z</time>
      </trkpt>
      <trkpt lat="48.75458" lon="7.26917">
        <ele>302</ele>
        <time>2013-08-07T14:26:32.291Z</time>
      </trkpt>
      <trkpt lat="48.75448" lon="7.26921">
        <ele>301</ele>
        <time>2013-08-07T14:26:37.306Z</time>
      </trkpt>
      <trkpt lat="48.75438" lon="7.26924">
        <ele>300</ele>
        <time>2013-08-07T14:26:42.308Z</time>
      </trkpt>
      <trkpt lat="48.75427" lon="7.26928">
        <ele>299</ele>
        <time>2013-08-07T14:26:51.310Z</time>
      </trkpt>
      <trkpt lat="48.75416" lon="7.26934">
        <ele>296</ele>
        <time>2013-08-07T14:26:56.303Z</time>
      </trkpt>
      <trkpt lat="48.75407" lon="7.26938">
        <ele>296</ele>
        <time>2013-08-07T14:27:01.307Z</time>
      </trkpt>
      <trkpt lat="48.75395" lon="7.2694">
        <ele>296</ele>
        <time>2013-08-07T14:27:08.317Z</time>
      </trkpt>
      <trkpt lat="48.75384" lon="7.26942">
        <ele>296</ele>
        <time>2013-08-07T14:27:12.307Z</time>
      </trkpt>
      <trkpt lat="48.75374" lon="7.26951">
        <ele>296</ele>
        <time>2013-08-07T14:27:18.308Z</time>
      </trkpt>
      <trkpt lat="48.75366" lon="7.26959">
        <ele>296</ele>
        <time>2013-08-07T14:27:22.309Z</time>
      </trkpt>
      <trkpt lat="48.75357" lon="7.26967">
        <ele>297</ele>
        <time>2013-08-07T14:27:27.309Z</time>
      </trkpt>
      <trkpt lat="48.75345" lon="7.26977">
        <ele>298</ele>
        <time>2013-08-07T14:27:43.319Z</time>
      </trkpt>
      <trkpt lat="48.75334" lon="7.26986">
        <ele>299</ele>
        <time>2013-08-07T14:27:48.318Z</time>
      </trkpt>
      <trkpt lat="48.75325" lon="7.26992">
        <ele>297</ele>
        <time>2013-08-07T14:27:53.309Z</time>
      </trkpt>
      <trkpt lat="48.75315" lon="7.26998">
        <ele>296</ele>
        <time>2013-08-07T14:27:56.271Z</time>
      </trkpt>
      <trkpt lat="48.75304" lon="7.27004">
        <ele>302</ele>
        <time>2013-08-07T14:28:00.315Z</time>
      </trkpt>
      <trkpt lat="48.75294" lon="7.27013">
        <ele>302</ele>
        <time>2013-08-07T14:28:04.309Z</time>
      </trkpt>
      <trkpt lat="48.75283" lon="7.27024">
        <ele>302</ele>
        <time>2013-08-07T14:28:09.315Z</time>
      </trkpt>
      <trkpt lat="48.75274" lon="7.27031">
        <ele>302</ele>
        <time>2013-08-07T14:28:16.315Z</time>
      </trkpt>
      <trkpt lat="48.75264" lon="7.27034">
        <ele>302</ele>
        <time>2013-08-07T14:28:23.318Z</time>
      </trkpt>
      <trkpt lat="48.75253" lon="7.27041">
        <ele>303</ele>
        <time>2013-08-07T14:28:33.303Z</time>
      </trkpt>
      <trkpt lat="48.75243" lon="7.2704">
        <ele>299</ele>
        <time>2013-08-07T14:28:39.297Z</time>
      </trkpt>
      <trkpt lat="48.75233" lon="7.27041">
        <ele>299</ele>
        <time>2013-08-07T14:28:45.317Z</time>
      </trkpt>
      <trkpt lat="48.75222" lon="7.27044">
        <ele>299</ele>
        <time>2013-08-07T14:28:53.260Z</time>
      </trkpt>
      <trkpt lat="48.75212" lon="7.27049">
        <ele>299</ele>
        <time>2013-08-07T14:29:04.264Z</time>
      </trkpt>
      <trkpt lat="48.75204" lon="7.27052">
        <ele>299</ele>
        <time>2013-08-07T14:29:10.262Z</time>
      </trkpt>
      <trkpt lat="48.7519" lon="7.27057">
        <ele>300</ele>
        <time>2013-08-07T14:29:32.265Z</time>
      </trkpt>
      <trkpt lat="48.752" lon="7.27049">
        <ele>299</ele>
        <time>2013-08-07T14:30:09.298Z</time>
      </trkpt>
      <trkpt lat="48.75208" lon="7.27047">
        <ele>299</ele>
        <time>2013-08-07T14:30:11.302Z</time>
      </trkpt>
      <trkpt lat="48.75218" lon="7.27044">
        <ele>299</ele>
        <time>2013-08-07T14:30:19.296Z</time>
      </trkpt>
      <trkpt lat="48.7523" lon="7.27041">
        <ele>299</ele>
        <time>2013-08-07T14:30:33.319Z</time>
      </trkpt>
      <trkpt lat="48.75243" lon="7.27035">
        <ele>299</ele>
        <time>2013-08-07T14:30:41.313Z</time>
      </trkpt>
      <trkpt lat="48.75252" lon="7.27038">
        <ele>303</ele>
        <time>2013-08-07T14:30:49.314Z</time>
      </trkpt>
      <trkpt lat="48.75265" lon="7.27029">
        <ele>302</ele>
        <time>2013-08-07T14:31:03.308Z</time>
      </trkpt>
      <trkpt lat="48.75277" lon="7.27022">
        <ele>302</ele>
        <time>2013-08-07T14:31:06.311Z</time>
      </trkpt>
      <trkpt lat="48.75285" lon="7.27018">
        <ele>302</ele>
        <time>2013-08-07T14:31:08.313Z</time>
      </trkpt>
      <trkpt lat="48.75297" lon="7.27011">
        <ele>302</ele>
        <time>2013-08-07T14:31:12.305Z</time>
      </trkpt>
      <trkpt lat="48.75306" lon="7.27004">
        <ele>302</ele>
        <time>2013-08-07T14:31:14.304Z</time>
      </trkpt>
      <trkpt lat="48.75315" lon="7.26999">
        <ele>296</ele>
        <time>2013-08-07T14:31:20.306Z</time>
      </trkpt>
      <trkpt lat="48.7533" lon="7.26992">
        <ele>298</ele>
        <time>2013-08-07T14:31:24.299Z</time>
      </trkpt>
      <trkpt lat="48.7534" lon="7.26985">
        <ele>299</ele>
        <time>2013-08-07T14:31:27.309Z</time>
      </trkpt>
      <trkpt lat="48.75349" lon="7.26979">
        <ele>298</ele>
        <time>2013-08-07T14:31:29.299Z</time>
      </trkpt>
      <trkpt lat="48.75358" lon="7.26973">
        <ele>297</ele>
        <time>2013-08-07T14:31:31.310Z</time>
      </trkpt>
      <trkpt lat="48.75369" lon="7.26965">
        <ele>297</ele>
        <time>2013-08-07T14:31:35.303Z</time>
      </trkpt>
      <trkpt lat="48.75379" lon="7.2696">
        <ele>297</ele>
        <time>2013-08-07T14:31:38.310Z</time>
      </trkpt>
      <trkpt lat="48.75388" lon="7.26954">
        <ele>297</ele>
        <time>2013-08-07T14:31:41.306Z</time>
      </trkpt>
      <trkpt lat="48.75397" lon="7.2695">
        <ele>297</ele>
        <time>2013-08-07T14:31:46.309Z</time>
      </trkpt>
      <trkpt lat="48.75407" lon="7.26945">
        <ele>296</ele>
        <time>2013-08-07T14:31:51.313Z</time>
      </trkpt>
      <trkpt lat="48.75414" lon="7.26935">
        <ele>296</ele>
        <time>2013-08-07T14:31:57.320Z</time>
      </trkpt>
      <trkpt lat="48.75425" lon="7.26929">
        <ele>299</ele>
        <time>2013-08-07T14:32:01.310Z</time>
      </trkpt>
      <trkpt lat="48.75433" lon="7.26922">
        <ele>299</ele>
        <time>2013-08-07T14:32:05.317Z</time>
      </trkpt>
      <trkpt lat="48.75446" lon="7.26914">
        <ele>297</ele>
        <time>2013-08-07T14:32:12.312Z</time>
      </trkpt>
      <trkpt lat="48.75456" lon="7.26908">
        <ele>297</ele>
        <time>2013-08-07T14:32:15.318Z</time>
      </trkpt>
      <trkpt lat="48.75465" lon="7.26903">
        <ele>298</ele>
        <time>2013-08-07T14:32:19.302Z</time>
      </trkpt>
      <trkpt lat="48.75457" lon="7.26895">
        <ele>297</ele>
        <time>2013-08-07T14:33:20.300Z</time>
      </trkpt>
      <trkpt lat="48.75446" lon="7.26898">
        <ele>296</ele>
        <time>2013-08-07T14:33:25.304Z</time>
      </trkpt>
      <trkpt lat="48.75437" lon="7.26904">
        <ele>296</ele>
        <time>2013-08-07T14:33:30.309Z</time>
      </trkpt>
      <trkpt lat="48.75427" lon="7.26908">
        <ele>296</ele>
        <time>2013-08-07T14:33:34.302Z</time>
      </trkpt>
      <trkpt lat="48.75418" lon="7.26914">
        <ele>295</ele>
        <time>2013-08-07T14:33:39.299Z</time>
      </trkpt>
      <trkpt lat="48.75409" lon="7.26917">
        <ele>295</ele>
        <time>2013-08-07T14:33:53.307Z</time>
      </trkpt>
      <trkpt lat="48.75397" lon="7.26924">
        <ele>295</ele>
        <time>2013-08-07T14:33:57.313Z</time>
      </trkpt>
      <trkpt lat="48.75388" lon="7.26929">
        <ele>295</ele>
        <time>2013-08-07T14:34:01.311Z</time>
      </trkpt>
      <trkpt lat="48.75379" lon="7.26931">
        <ele>295</ele>
        <time>2013-08-07T14:34:05.308Z</time>
      </trkpt>
      <trkpt lat="48.7537" lon="7.26937">
        <ele>295</ele>
        <time>2013-08-07T14:34:11.301Z</time>
      </trkpt>
      <trkpt lat="48.7536" lon="7.26941">
        <ele>295</ele>
        <time>2013-08-07T14:34:17.310Z</time>
      </trkpt>
      <trkpt lat="48.7535" lon="7.26941">
        <ele>294</ele>
        <time>2013-08-07T14:34:23.309Z</time>
      </trkpt>
      <trkpt lat="48.75341" lon="7.26945">
        <ele>294</ele>
        <time>2013-08-07T14:34:27.310Z</time>
      </trkpt>
      <trkpt lat="48.75332" lon="7.26947">
        <ele>291</ele>
        <time>2013-08-07T14:34:31.320Z</time>
      </trkpt>
      <trkpt lat="48.75322" lon="7.26948">
        <ele>291</ele>
        <time>2013-08-07T14:34:35.306Z</time>
      </trkpt>
      <trkpt lat="48.75312" lon="7.26949">
        <ele>291</ele>
        <time>2013-08-07T14:34:40.308Z</time>
      </trkpt>
      <trkpt lat="48.75301" lon="7.26946">
        <ele>291</ele>
        <time>2013-08-07T14:34:48.319Z</time>
      </trkpt>
      <trkpt lat="48.75291" lon="7.26944">
        <ele>290</ele>
        <time>2013-08-07T14:34:54.304Z</time>
      </trkpt>
      <trkpt lat="48.7528" lon="7.26945">
        <ele>290</ele>
        <time>2013-08-07T14:35:11.317Z</time>
      </trkpt>
      <trkpt lat="48.7527" lon="7.26944">
        <ele>289</ele>
        <time>2013-08-07T14:35:35.310Z</time>
      </trkpt>
      <trkpt lat="48.75259" lon="7.26943">
        <ele>288</ele>
        <time>2013-08-07T14:35:39.304Z</time>
      </trkpt>
      <trkpt lat="48.7525" lon="7.26942">
        <ele>284</ele>
        <time>2013-08-07T14:35:43.321Z</time>
      </trkpt>
      <trkpt lat="48.7524" lon="7.26938">
        <ele>284</ele>
        <time>2013-08-07T14:35:47.312Z</time>
      </trkpt>
      <trkpt lat="48.75231" lon="7.26935">
        <ele>283</ele>
        <time>2013-08-07T14:35:53.314Z</time>
      </trkpt>
      <trkpt lat="48.75221" lon="7.26938">
        <ele>283</ele>
        <time>2013-08-07T14:35:58.262Z</time>
      </trkpt>
      <trkpt lat="48.75212" lon="7.26937">
        <ele>283</ele>
        <time>2013-08-07T14:36:08.314Z</time>
      </trkpt>
      <trkpt lat="48.75201" lon="7.26932">
        <ele>282</ele>
        <time>2013-08-07T14:36:16.314Z</time>
      </trkpt>
      <trkpt lat="48.75191" lon="7.26934">
        <ele>281</ele>
        <time>2013-08-07T14:37:37.314Z</time>
      </trkpt>
      <trkpt lat="48.75183" lon="7.26944">
        <ele>282</ele>
        <time>2013-08-07T14:37:57.302Z</time>
      </trkpt>
      <trkpt lat="48.75181" lon="7.26963">
        <ele>283</ele>
        <time>2013-08-07T14:38:39.306Z</time>
      </trkpt>
      <trkpt lat="48.7517" lon="7.26965">
        <ele>283</ele>
        <time>2013-08-07T14:43:10.268Z</time>
      </trkpt>
      <trkpt lat="48.75159" lon="7.26976">
        <ele>280</ele>
        <time>2013-08-07T14:43:14.282Z</time>
      </trkpt>
      <trkpt lat="48.75149" lon="7.2698">
        <ele>280</ele>
        <time>2013-08-07T14:43:18.303Z</time>
      </trkpt>
      <trkpt lat="48.75133" lon="7.26986">
        <ele>280</ele>
        <time>2013-08-07T14:43:21.304Z</time>
      </trkpt>
      <trkpt lat="48.75122" lon="7.26992">
        <ele>280</ele>
        <time>2013-08-07T14:43:23.312Z</time>
      </trkpt>
      <trkpt lat="48.75109" lon="7.27002">
        <ele>285</ele>
        <time>2013-08-07T14:43:25.314Z</time>
      </trkpt>
      <trkpt lat="48.75094" lon="7.2701">
        <ele>283</ele>
        <time>2013-08-07T14:43:27.319Z</time>
      </trkpt>
      <trkpt lat="48.75084" lon="7.27016">
        <ele>283</ele>
        <time>2013-08-07T14:43:29.312Z</time>
      </trkpt>
      <trkpt lat="48.75071" lon="7.2703">
        <ele>285</ele>
        <time>2013-08-07T14:43:32.305Z</time>
      </trkpt>
      <trkpt lat="48.75047" lon="7.27057">
        <ele>287</ele>
        <time>2013-08-07T14:43:34.292Z</time>
      </trkpt>
      <trkpt lat="48.75033" lon="7.27069">
        <ele>287</ele>
        <time>2013-08-07T14:43:35.299Z</time>
      </trkpt>
      <trkpt lat="48.75018" lon="7.27078">
        <ele>286</ele>
        <time>2013-08-07T14:43:37.308Z</time>
      </trkpt>
      <trkpt lat="48.75009" lon="7.27073">
        <ele>286</ele>
        <time>2013-08-07T14:43:39.304Z</time>
      </trkpt>
      <trkpt lat="48.74999" lon="7.27073">
        <ele>288</ele>
        <time>2013-08-07T14:43:43.313Z</time>
      </trkpt>
      <trkpt lat="48.74987" lon="7.2708">
        <ele>289</ele>
        <time>2013-08-07T14:43:46.299Z</time>
      </trkpt>
      <trkpt lat="48.74976" lon="7.27087">
        <ele>284</ele>
        <time>2013-08-07T14:43:49.294Z</time>
      </trkpt>
      <trkpt lat="48.74969" lon="7.27096">
        <ele>284</ele>
        <time>2013-08-07T14:43:53.301Z</time>
      </trkpt>
      <trkpt lat="48.74963" lon="7.2711">
        <ele>284</ele>
        <time>2013-08-07T14:43:56.299Z</time>
      </trkpt>
      <trkpt lat="48.74962" lon="7.27126">
        <ele>283</ele>
        <time>2013-08-07T14:44:01.301Z</time>
      </trkpt>
      <trkpt lat="48.74954" lon="7.27138">
        <ele>282</ele>
        <time>2013-08-07T14:44:07.298Z</time>
      </trkpt>
      <trkpt lat="48.74948" lon="7.27153">
        <ele>281</ele>
        <time>2013-08-07T14:44:11.285Z</time>
      </trkpt>
      <trkpt lat="48.7494" lon="7.27161">
        <ele>280</ele>
        <time>2013-08-07T14:44:15.298Z</time>
      </trkpt>
      <trkpt lat="48.74934" lon="7.27174">
        <ele>278</ele>
        <time>2013-08-07T14:44:19.292Z</time>
      </trkpt>
      <trkpt lat="48.74925" lon="7.27182">
        <ele>277</ele>
        <time>2013-08-07T14:44:22.299Z</time>
      </trkpt>
      <trkpt lat="48.74916" lon="7.27189">
        <ele>273</ele>
        <time>2013-08-07T14:44:25.297Z</time>
      </trkpt>
      <trkpt lat="48.74909" lon="7.27197">
        <ele>273</ele>
        <time>2013-08-07T14:44:28.307Z</time>
      </trkpt>
      <trkpt lat="48.74899" lon="7.27194">
        <ele>273</ele>
        <time>2013-08-07T14:44:33.301Z</time>
      </trkpt>
      <trkpt lat="48.74891" lon="7.27182">
        <ele>273</ele>
        <time>2013-08-07T14:44:37.297Z</time>
      </trkpt>
      <trkpt lat="48.74882" lon="7.27176">
        <ele>273</ele>
        <time>2013-08-07T14:44:42.292Z</time>
      </trkpt>
      <trkpt lat="48.74872" lon="7.27181">
        <ele>273</ele>
        <time>2013-08-07T14:44:46.307Z</time>
      </trkpt>
      <trkpt lat="48.74863" lon="7.27187">
        <ele>273</ele>
        <time>2013-08-07T14:44:51.303Z</time>
      </trkpt>
      <trkpt lat="48.74854" lon="7.27197">
        <ele>273</ele>
        <time>2013-08-07T14:44:55.303Z</time>
      </trkpt>
      <trkpt lat="48.74848" lon="7.27209">
        <ele>272</ele>
        <time>2013-08-07T14:44:59.299Z</time>
      </trkpt>
      <trkpt lat="48.7484" lon="7.2722">
        <ele>271</ele>
        <time>2013-08-07T14:45:04.298Z</time>
      </trkpt>
      <trkpt lat="48.74834" lon="7.27231">
        <ele>270</ele>
        <time>2013-08-07T14:45:09.296Z</time>
      </trkpt>
      <trkpt lat="48.74825" lon="7.27241">
        <ele>274</ele>
        <time>2013-08-07T14:45:14.298Z</time>
      </trkpt>
      <trkpt lat="48.74816" lon="7.27245">
        <ele>277</ele>
        <time>2013-08-07T14:45:18.307Z</time>
      </trkpt>
      <trkpt lat="48.7481" lon="7.27258">
        <ele>273</ele>
        <time>2013-08-07T14:45:22.307Z</time>
      </trkpt>
      <trkpt lat="48.74804" lon="7.2727">
        <ele>275</ele>
        <time>2013-08-07T14:45:26.299Z</time>
      </trkpt>
      <trkpt lat="48.74797" lon="7.27281">
        <ele>275</ele>
        <time>2013-08-07T14:45:32.317Z</time>
      </trkpt>
      <trkpt lat="48.74792" lon="7.27292">
        <ele>275</ele>
        <time>2013-08-07T14:45:38.319Z</time>
      </trkpt>
      <trkpt lat="48.74786" lon="7.27306">
        <ele>275</ele>
        <time>2013-08-07T14:45:43.318Z</time>
      </trkpt>
      <trkpt lat="48.74781" lon="7.27317">
        <ele>275</ele>
        <time>2013-08-07T14:45:47.266Z</time>
      </trkpt>
      <trkpt lat="48.74774" lon="7.2733">
        <ele>275</ele>
        <time>2013-08-07T14:45:52.303Z</time>
      </trkpt>
      <trkpt lat="48.74768" lon="7.27342">
        <ele>272</ele>
        <time>2013-08-07T14:45:56.306Z</time>
      </trkpt>
      <trkpt lat="48.7476" lon="7.27353">
        <ele>271</ele>
        <time>2013-08-07T14:46:00.291Z</time>
      </trkpt>
      <trkpt lat="48.74749" lon="7.27365">
        <ele>283</ele>
        <time>2013-08-07T14:46:03.309Z</time>
      </trkpt>
      <trkpt lat="48.7474" lon="7.27378">
        <ele>283</ele>
        <time>2013-08-07T14:46:06.259Z</time>
      </trkpt>
      <trkpt lat="48.74734" lon="7.2739">
        <ele>282</ele>
        <time>2013-08-07T14:46:08.296Z</time>
      </trkpt>
      <trkpt lat="48.74727" lon="7.27405">
        <ele>281</ele>
        <time>2013-08-07T14:46:13.309Z</time>
      </trkpt>
      <trkpt lat="48.74718" lon="7.27418">
        <ele>277</ele>
        <time>2013-08-07T14:46:16.306Z</time>
      </trkpt>
      <trkpt lat="48.74711" lon="7.27432">
        <ele>279</ele>
        <time>2013-08-07T14:46:18.310Z</time>
      </trkpt>
      <trkpt lat="48.74708" lon="7.27449">
        <ele>279</ele>
        <time>2013-08-07T14:46:21.310Z</time>
      </trkpt>
      <trkpt lat="48.74706" lon="7.27463">
        <ele>278</ele>
        <time>2013-08-07T14:46:24.298Z</time>
      </trkpt>
      <trkpt lat="48.74706" lon="7.27483">
        <ele>277</ele>
        <time>2013-08-07T14:46:29.282Z</time>
      </trkpt>
      <trkpt lat="48.74707" lon="7.27498">
        <ele>276</ele>
        <time>2013-08-07T14:46:32.306Z</time>
      </trkpt>
      <trkpt lat="48.74712" lon="7.27517">
        <ele>272</ele>
        <time>2013-08-07T14:46:37.304Z</time>
      </trkpt>
      <trkpt lat="48.74711" lon="7.27533">
        <ele>272</ele>
        <time>2013-08-07T14:46:40.300Z</time>
      </trkpt>
      <trkpt lat="48.7471" lon="7.27548">
        <ele>272</ele>
        <time>2013-08-07T14:46:43.309Z</time>
      </trkpt>
      <trkpt lat="48.74711" lon="7.27563">
        <ele>272</ele>
        <time>2013-08-07T14:46:45.294Z</time>
      </trkpt>
      <trkpt lat="48.7471" lon="7.27579">
        <ele>272</ele>
        <time>2013-08-07T14:46:47.300Z</time>
      </trkpt>
      <trkpt lat="48.74707" lon="7.27594">
        <ele>272</ele>
        <time>2013-08-07T14:46:49.299Z</time>
      </trkpt>
      <trkpt lat="48.747" lon="7.27607">
        <ele>272</ele>
        <time>2013-08-07T14:46:51.310Z</time>
      </trkpt>
      <trkpt lat="48.74692" lon="7.27619">
        <ele>272</ele>
        <time>2013-08-07T14:46:53.306Z</time>
      </trkpt>
      <trkpt lat="48.74683" lon="7.27631">
        <ele>271</ele>
        <time>2013-08-07T14:46:55.307Z</time>
      </trkpt>
      <trkpt lat="48.7467" lon="7.27643">
        <ele>270</ele>
        <time>2013-08-07T14:46:57.301Z</time>
      </trkpt>
      <trkpt lat="48.74661" lon="7.27653">
        <ele>273</ele>
        <time>2013-08-07T14:46:59.301Z</time>
      </trkpt>
      <trkpt lat="48.74652" lon="7.27662">
        <ele>273</ele>
        <time>2013-08-07T14:47:02.305Z</time>
      </trkpt>
      <trkpt lat="48.74644" lon="7.2767">
        <ele>271</ele>
        <time>2013-08-07T14:47:06.305Z</time>
      </trkpt>
      <trkpt lat="48.74636" lon="7.27677">
        <ele>272</ele>
        <time>2013-08-07T14:47:10.302Z</time>
      </trkpt>
      <trkpt lat="48.74627" lon="7.27684">
        <ele>274</ele>
        <time>2013-08-07T14:47:14.298Z</time>
      </trkpt>
      <trkpt lat="48.74618" lon="7.27691">
        <ele>275</ele>
        <time>2013-08-07T14:47:19.300Z</time>
      </trkpt>
      <trkpt lat="48.74612" lon="7.27703">
        <ele>274</ele>
        <time>2013-08-07T14:47:24.299Z</time>
      </trkpt>
      <trkpt lat="48.74607" lon="7.27714">
        <ele>273</ele>
        <time>2013-08-07T14:47:28.302Z</time>
      </trkpt>
      <trkpt lat="48.74599" lon="7.27724">
        <ele>273</ele>
        <time>2013-08-07T14:47:33.307Z</time>
      </trkpt>
      <trkpt lat="48.74592" lon="7.27735">
        <ele>272</ele>
        <time>2013-08-07T14:47:37.290Z</time>
      </trkpt>
      <trkpt lat="48.74586" lon="7.27746">
        <ele>270</ele>
        <time>2013-08-07T14:47:44.296Z</time>
      </trkpt>
      <trkpt lat="48.74578" lon="7.27755">
        <ele>270</ele>
        <time>2013-08-07T14:47:49.315Z</time>
      </trkpt>
      <trkpt lat="48.74571" lon="7.27764">
        <ele>272</ele>
        <time>2013-08-07T14:47:54.303Z</time>
      </trkpt>
      <trkpt lat="48.74563" lon="7.27775">
        <ele>272</ele>
        <time>2013-08-07T14:48:02.303Z</time>
      </trkpt>
      <trkpt lat="48.74554" lon="7.27781">
        <ele>273</ele>
        <time>2013-08-07T14:48:08.304Z</time>
      </trkpt>
      <trkpt lat="48.74544" lon="7.27786">
        <ele>274</ele>
        <time>2013-08-07T14:48:14.300Z</time>
      </trkpt>
      <trkpt lat="48.74534" lon="7.27792">
        <ele>274</ele>
        <time>2013-08-07T14:48:20.305Z</time>
      </trkpt>
      <trkpt lat="48.74524" lon="7.27798">
        <ele>274</ele>
        <time>2013-08-07T14:48:25.302Z</time>
      </trkpt>
      <trkpt lat="48.74516" lon="7.27804">
        <ele>273</ele>
        <time>2013-08-07T14:48:31.305Z</time>
      </trkpt>
      <trkpt lat="48.74506" lon="7.27812">
        <ele>272</ele>
        <time>2013-08-07T14:48:40.305Z</time>
      </trkpt>
      <trkpt lat="48.74495" lon="7.27818">
        <ele>277</ele>
        <time>2013-08-07T14:48:45.304Z</time>
      </trkpt>
      <trkpt lat="48.74485" lon="7.27822">
        <ele>278</ele>
        <time>2013-08-07T14:48:51.305Z</time>
      </trkpt>
      <trkpt lat="48.74474" lon="7.27829">
        <ele>280</ele>
        <time>2013-08-07T14:49:05.303Z</time>
      </trkpt>
      <trkpt lat="48.74465" lon="7.27833">
        <ele>281</ele>
        <time>2013-08-07T14:49:09.296Z</time>
      </trkpt>
      <trkpt lat="48.74455" lon="7.27838">
        <ele>268</ele>
        <time>2013-08-07T14:49:13.307Z</time>
      </trkpt>
      <trkpt lat="48.74445" lon="7.27839">
        <ele>270</ele>
        <time>2013-08-07T14:49:17.308Z</time>
      </trkpt>
      <trkpt lat="48.74434" lon="7.27843">
        <ele>271</ele>
        <time>2013-08-07T14:49:21.305Z</time>
      </trkpt>
      <trkpt lat="48.74425" lon="7.27847">
        <ele>272</ele>
        <time>2013-08-07T14:49:26.306Z</time>
      </trkpt>
      <trkpt lat="48.74415" lon="7.27852">
        <ele>274</ele>
        <time>2013-08-07T14:49:34.289Z</time>
      </trkpt>
      <trkpt lat="48.74407" lon="7.27857">
        <ele>273</ele>
        <time>2013-08-07T14:49:40.317Z</time>
      </trkpt>
      <trkpt lat="48.74397" lon="7.27856">
        <ele>273</ele>
        <time>2013-08-07T14:49:46.306Z</time>
      </trkpt>
      <trkpt lat="48.74388" lon="7.2786">
        <ele>273</ele>
        <time>2013-08-07T14:49:51.311Z</time>
      </trkpt>
      <trkpt lat="48.74376" lon="7.27864">
        <ele>272</ele>
        <time>2013-08-07T14:49:57.307Z</time>
      </trkpt>
      <trkpt lat="48.74366" lon="7.27864">
        <ele>273</ele>
        <time>2013-08-07T14:50:03.292Z</time>
      </trkpt>
      <trkpt lat="48.74354" lon="7.27865">
        <ele>273</ele>
        <time>2013-08-07T14:50:09.298Z</time>
      </trkpt>
      <trkpt lat="48.74344" lon="7.27866">
        <ele>274</ele>
        <time>2013-08-07T14:50:16.308Z</time>
      </trkpt>
      <trkpt lat="48.74333" lon="7.27867">
        <ele>274</ele>
        <time>2013-08-07T14:50:20.295Z</time>
      </trkpt>
      <trkpt lat="48.74323" lon="7.27864">
        <ele>283</ele>
        <time>2013-08-07T14:50:25.306Z</time>
      </trkpt>
      <trkpt lat="48.74314" lon="7.27863">
        <ele>283</ele>
        <time>2013-08-07T14:50:30.254Z</time>
      </trkpt>
      <trkpt lat="48.74304" lon="7.27864">
        <ele>284</ele>
        <time>2013-08-07T14:50:35.298Z</time>
      </trkpt>
      <trkpt lat="48.74293" lon="7.27872">
        <ele>284</ele>
        <time>2013-08-07T14:50:47.312Z</time>
      </trkpt>
      <trkpt lat="48.74284" lon="7.27876">
        <ele>284</ele>
        <time>2013-08-07T14:50:51.309Z</time>
      </trkpt>
      <trkpt lat="48.74274" lon="7.2788">
        <ele>285</ele>
        <time>2013-08-07T14:50:55.308Z</time>
      </trkpt>
      <trkpt lat="48.74263" lon="7.27887">
        <ele>284</ele>
        <time>2013-08-07T14:51:01.298Z</time>
      </trkpt>
      <trkpt lat="48.74256" lon="7.27897">
        <ele>283</ele>
        <time>2013-08-07T14:51:08.308Z</time>
      </trkpt>
      <trkpt lat="48.74246" lon="7.279">
        <ele>292</ele>
        <time>2013-08-07T14:51:16.296Z</time>
      </trkpt>
      <trkpt lat="48.74234" lon="7.27909">
        <ele>292</ele>
        <time>2013-08-07T14:51:21.299Z</time>
      </trkpt>
      <trkpt lat="48.74226" lon="7.27916">
        <ele>295</ele>
        <time>2013-08-07T14:51:25.308Z</time>
      </trkpt>
      <trkpt lat="48.74216" lon="7.27926">
        <ele>282</ele>
        <time>2013-08-07T14:51:29.293Z</time>
      </trkpt>
      <trkpt lat="48.7421" lon="7.27938">
        <ele>282</ele>
        <time>2013-08-07T14:51:35.319Z</time>
      </trkpt>
      <trkpt lat="48.742" lon="7.27942">
        <ele>283</ele>
        <time>2013-08-07T14:51:39.305Z</time>
      </trkpt>
      <trkpt lat="48.7419" lon="7.27948">
        <ele>283</ele>
        <time>2013-08-07T14:51:44.311Z</time>
      </trkpt>
      <trkpt lat="48.74175" lon="7.27956">
        <ele>283</ele>
        <time>2013-08-07T14:51:49.295Z</time>
      </trkpt>
      <trkpt lat="48.74167" lon="7.27962">
        <ele>282</ele>
        <time>2013-08-07T14:51:52.319Z</time>
      </trkpt>
      <trkpt lat="48.74158" lon="7.27966">
        <ele>293</ele>
        <time>2013-08-07T14:51:55.308Z</time>
      </trkpt>
      <trkpt lat="48.74148" lon="7.27971">
        <ele>293</ele>
        <time>2013-08-07T14:51:59.303Z</time>
      </trkpt>
      <trkpt lat="48.74137" lon="7.27977">
        <ele>294</ele>
        <time>2013-08-07T14:52:04.298Z</time>
      </trkpt>
      <trkpt lat="48.74126" lon="7.27985">
        <ele>294</ele>
        <time>2013-08-07T14:52:07.308Z</time>
      </trkpt>
      <trkpt lat="48.74117" lon="7.27991">
        <ele>295</ele>
        <time>2013-08-07T14:52:11.303Z</time>
      </trkpt>
      <trkpt lat="48.74107" lon="7.27998">
        <ele>295</ele>
        <time>2013-08-07T14:52:14.301Z</time>
      </trkpt>
      <trkpt lat="48.74098" lon="7.28006">
        <ele>285</ele>
        <time>2013-08-07T14:52:16.310Z</time>
      </trkpt>
      <trkpt lat="48.74085" lon="7.28015">
        <ele>284</ele>
        <time>2013-08-07T14:52:18.309Z</time>
      </trkpt>
      <trkpt lat="48.74076" lon="7.28021">
        <ele>288</ele>
        <time>2013-08-07T14:52:20.308Z</time>
      </trkpt>
      <trkpt lat="48.74065" lon="7.28025">
        <ele>287</ele>
        <time>2013-08-07T14:52:23.313Z</time>
      </trkpt>
      <trkpt lat="48.74055" lon="7.28028">
        <ele>286</ele>
        <time>2013-08-07T14:52:26.310Z</time>
      </trkpt>
      <trkpt lat="48.74045" lon="7.28033">
        <ele>286</ele>
        <time>2013-08-07T14:52:31.296Z</time>
      </trkpt>
      <trkpt lat="48.74035" lon="7.28035">
        <ele>286</ele>
        <time>2013-08-07T14:52:36.284Z</time>
      </trkpt>
      <trkpt lat="48.74025" lon="7.28037">
        <ele>286</ele>
        <time>2013-08-07T14:52:41.294Z</time>
      </trkpt>
      <trkpt lat="48.74012" lon="7.2804">
        <ele>286</ele>
        <time>2013-08-07T14:52:48.298Z</time>
      </trkpt>
      <trkpt lat="48.74002" lon="7.28043">
        <ele>286</ele>
        <time>2013-08-07T14:52:53.297Z</time>
      </trkpt>
      <trkpt lat="48.73993" lon="7.28044">
        <ele>292</ele>
        <time>2013-08-07T14:52:58.291Z</time>
      </trkpt>
      <trkpt lat="48.73981" lon="7.2805">
        <ele>291</ele>
        <time>2013-08-07T14:53:02.296Z</time>
      </trkpt>
      <trkpt lat="48.73974" lon="7.28058">
        <ele>290</ele>
        <time>2013-08-07T14:53:05.298Z</time>
      </trkpt>
      <trkpt lat="48.73965" lon="7.28065">
        <ele>290</ele>
        <time>2013-08-07T14:53:08.298Z</time>
      </trkpt>
      <trkpt lat="48.73956" lon="7.28071">
        <ele>290</ele>
        <time>2013-08-07T14:53:11.290Z</time>
      </trkpt>
      <trkpt lat="48.73945" lon="7.28077">
        <ele>289</ele>
        <time>2013-08-07T14:53:15.291Z</time>
      </trkpt>
      <trkpt lat="48.73934" lon="7.28081">
        <ele>287</ele>
        <time>2013-08-07T14:53:19.291Z</time>
      </trkpt>
      <trkpt lat="48.73924" lon="7.28082">
        <ele>285</ele>
        <time>2013-08-07T14:53:23.310Z</time>
      </trkpt>
      <trkpt lat="48.73914" lon="7.28082">
        <ele>284</ele>
        <time>2013-08-07T14:53:27.310Z</time>
      </trkpt>
      <trkpt lat="48.73905" lon="7.28083">
        <ele>290</ele>
        <time>2013-08-07T14:53:30.309Z</time>
      </trkpt>
      <trkpt lat="48.73895" lon="7.28088">
        <ele>278</ele>
        <time>2013-08-07T14:53:33.311Z</time>
      </trkpt>
      <trkpt lat="48.73887" lon="7.28095">
        <ele>277</ele>
        <time>2013-08-07T14:53:36.313Z</time>
      </trkpt>
      <trkpt lat="48.73878" lon="7.28099">
        <ele>276</ele>
        <time>2013-08-07T14:53:39.304Z</time>
      </trkpt>
      <trkpt lat="48.73866" lon="7.281">
        <ele>277</ele>
        <time>2013-08-07T14:53:42.312Z</time>
      </trkpt>
      <trkpt lat="48.73855" lon="7.281">
        <ele>279</ele>
        <time>2013-08-07T14:53:47.297Z</time>
      </trkpt>
      <trkpt lat="48.73844" lon="7.28101">
        <ele>280</ele>
        <time>2013-08-07T14:53:51.297Z</time>
      </trkpt>
      <trkpt lat="48.73833" lon="7.28105">
        <ele>282</ele>
        <time>2013-08-07T14:53:56.298Z</time>
      </trkpt>
      <trkpt lat="48.73822" lon="7.28108">
        <ele>282</ele>
        <time>2013-08-07T14:54:03.297Z</time>
      </trkpt>
      <trkpt lat="48.73812" lon="7.28114">
        <ele>280</ele>
        <time>2013-08-07T14:54:06.295Z</time>
      </trkpt>
      <trkpt lat="48.73802" lon="7.28119">
        <ele>279</ele>
        <time>2013-08-07T14:54:09.289Z</time>
      </trkpt>
      <trkpt lat="48.73793" lon="7.28122">
        <ele>279</ele>
        <time>2013-08-07T14:54:13.299Z</time>
      </trkpt>
      <trkpt lat="48.73783" lon="7.28128">
        <ele>278</ele>
        <time>2013-08-07T14:54:18.293Z</time>
      </trkpt>
      <trkpt lat="48.73772" lon="7.28129">
        <ele>278</ele>
        <time>2013-08-07T14:54:22.299Z</time>
      </trkpt>
      <trkpt lat="48.73761" lon="7.28132">
        <ele>277</ele>
        <time>2013-08-07T14:54:29.288Z</time>
      </trkpt>
      <trkpt lat="48.73751" lon="7.28135">
        <ele>276</ele>
        <time>2013-08-07T14:54:33.300Z</time>
      </trkpt>
      <trkpt lat="48.7374" lon="7.28135">
        <ele>274</ele>
        <time>2013-08-07T14:54:37.286Z</time>
      </trkpt>
      <trkpt lat="48.73731" lon="7.28131">
        <ele>274</ele>
        <time>2013-08-07T14:54:40.290Z</time>
      </trkpt>
      <trkpt lat="48.73722" lon="7.28127">
        <ele>275</ele>
        <time>2013-08-07T14:54:43.297Z</time>
      </trkpt>
      <trkpt lat="48.73711" lon="7.28122">
        <ele>275</ele>
        <time>2013-08-07T14:54:47.298Z</time>
      </trkpt>
      <trkpt lat="48.73701" lon="7.28118">
        <ele>275</ele>
        <time>2013-08-07T14:54:51.311Z</time>
      </trkpt>
      <trkpt lat="48.73687" lon="7.28117">
        <ele>274</ele>
        <time>2013-08-07T14:54:54.303Z</time>
      </trkpt>
      <trkpt lat="48.73677" lon="7.28113">
        <ele>274</ele>
        <time>2013-08-07T14:54:56.309Z</time>
      </trkpt>
      <trkpt lat="48.73665" lon="7.28103">
        <ele>268</ele>
        <time>2013-08-07T14:54:59.296Z</time>
      </trkpt>
      <trkpt lat="48.73655" lon="7.28096">
        <ele>269</ele>
        <time>2013-08-07T14:55:01.258Z</time>
      </trkpt>
      <trkpt lat="48.73646" lon="7.28087">
        <ele>267</ele>
        <time>2013-08-07T14:55:03.298Z</time>
      </trkpt>
      <trkpt lat="48.73638" lon="7.28077">
        <ele>274</ele>
        <time>2013-08-07T14:55:06.303Z</time>
      </trkpt>
      <trkpt lat="48.73632" lon="7.28064">
        <ele>273</ele>
        <time>2013-08-07T14:55:14.291Z</time>
      </trkpt>
      <trkpt lat="48.73627" lon="7.2805">
        <ele>273</ele>
        <time>2013-08-07T14:55:19.301Z</time>
      </trkpt>
      <trkpt lat="48.73623" lon="7.28031">
        <ele>274</ele>
        <time>2013-08-07T14:55:32.291Z</time>
      </trkpt>
      <trkpt lat="48.7362" lon="7.28017">
        <ele>274</ele>
        <time>2013-08-07T14:55:37.299Z</time>
      </trkpt>
      <trkpt lat="48.73616" lon="7.28002">
        <ele>273</ele>
        <time>2013-08-07T14:55:41.302Z</time>
      </trkpt>
      <trkpt lat="48.73615" lon="7.27987">
        <ele>279</ele>
        <time>2013-08-07T14:55:46.304Z</time>
      </trkpt>
      <trkpt lat="48.73613" lon="7.27967">
        <ele>280</ele>
        <time>2013-08-07T14:55:54.288Z</time>
      </trkpt>
      <trkpt lat="48.7361" lon="7.27948">
        <ele>280</ele>
        <time>2013-08-07T14:56:01.296Z</time>
      </trkpt>
      <trkpt lat="48.73609" lon="7.27931">
        <ele>279</ele>
        <time>2013-08-07T14:56:07.294Z</time>
      </trkpt>
      <trkpt lat="48.73608" lon="7.27917">
        <ele>278</ele>
        <time>2013-08-07T14:56:15.277Z</time>
      </trkpt>
      <trkpt lat="48.73606" lon="7.27901">
        <ele>281</ele>
        <time>2013-08-07T14:56:23.278Z</time>
      </trkpt>
      <trkpt lat="48.73611" lon="7.27886">
        <ele>283</ele>
        <time>2013-08-07T14:56:29.269Z</time>
      </trkpt>
      <trkpt lat="48.73612" lon="7.27869">
        <ele>284</ele>
        <time>2013-08-07T14:56:33.278Z</time>
      </trkpt>
      <trkpt lat="48.73612" lon="7.27855">
        <ele>283</ele>
        <time>2013-08-07T14:56:38.277Z</time>
      </trkpt>
      <trkpt lat="48.73609" lon="7.27841">
        <ele>281</ele>
        <time>2013-08-07T14:56:42.277Z</time>
      </trkpt>
      <trkpt lat="48.73607" lon="7.27827">
        <ele>277</ele>
        <time>2013-08-07T14:56:46.275Z</time>
      </trkpt>
      <trkpt lat="48.73608" lon="7.27812">
        <ele>278</ele>
        <time>2013-08-07T14:56:51.290Z</time>
      </trkpt>
      <trkpt lat="48.73609" lon="7.27796">
        <ele>278</ele>
        <time>2013-08-07T14:56:55.286Z</time>
      </trkpt>
      <trkpt lat="48.73612" lon="7.27783">
        <ele>278</ele>
        <time>2013-08-07T14:56:59.279Z</time>
      </trkpt>
      <trkpt lat="48.73615" lon="7.27767">
        <ele>277</ele>
        <time>2013-08-07T14:57:05.288Z</time>
      </trkpt>
      <trkpt lat="48.73619" lon="7.27752">
        <ele>278</ele>
        <time>2013-08-07T14:57:11.284Z</time>
      </trkpt>
      <trkpt lat="48.73626" lon="7.27741">
        <ele>274</ele>
        <time>2013-08-07T14:57:16.287Z</time>
      </trkpt>
      <trkpt lat="48.73628" lon="7.27727">
        <ele>274</ele>
        <time>2013-08-07T14:57:20.288Z</time>
      </trkpt>
      <trkpt lat="48.73632" lon="7.27714">
        <ele>273</ele>
        <time>2013-08-07T14:57:25.291Z</time>
      </trkpt>
      <trkpt lat="48.73636" lon="7.27701">
        <ele>273</ele>
        <time>2013-08-07T14:57:29.291Z</time>
      </trkpt>
      <trkpt lat="48.73642" lon="7.27689">
        <ele>274</ele>
        <time>2013-08-07T14:57:36.303Z</time>
      </trkpt>
      <trkpt lat="48.73649" lon="7.27677">
        <ele>276</ele>
        <time>2013-08-07T14:57:43.306Z</time>
      </trkpt>
      <trkpt lat="48.73655" lon="7.27667">
        <ele>279</ele>
        <time>2013-08-07T14:57:50.296Z</time>
      </trkpt>
      <trkpt lat="48.73661" lon="7.27656">
        <ele>272</ele>
        <time>2013-08-07T14:57:56.303Z</time>
      </trkpt>
      <trkpt lat="48.73669" lon="7.27647">
        <ele>284</ele>
        <time>2013-08-07T14:58:04.288Z</time>
      </trkpt>
      <trkpt lat="48.73674" lon="7.27635">
        <ele>283</ele>
        <time>2013-08-07T14:58:10.286Z</time>
      </trkpt>
      <trkpt lat="48.73679" lon="7.27619">
        <ele>281</ele>
        <time>2013-08-07T14:58:17.292Z</time>
      </trkpt>
      <trkpt lat="48.73687" lon="7.27612">
        <ele>280</ele>
        <time>2013-08-07T14:58:20.292Z</time>
      </trkpt>
      <trkpt lat="48.73699" lon="7.27601">
        <ele>281</ele>
        <time>2013-08-07T14:58:25.289Z</time>
      </trkpt>
      <trkpt lat="48.73707" lon="7.27595">
        <ele>283</ele>
        <time>2013-08-07T14:58:28.306Z</time>
      </trkpt>
      <trkpt lat="48.73717" lon="7.27587">
        <ele>286</ele>
        <time>2013-08-07T14:58:34.299Z</time>
      </trkpt>
      <trkpt lat="48.73727" lon="7.2758">
        <ele>273</ele>
        <time>2013-08-07T14:58:37.307Z</time>
      </trkpt>
      <trkpt lat="48.73738" lon="7.27566">
        <ele>275</ele>
        <time>2013-08-07T14:58:43.304Z</time>
      </trkpt>
      <trkpt lat="48.73746" lon="7.27558">
        <ele>273</ele>
        <time>2013-08-07T14:58:47.303Z</time>
      </trkpt>
      <trkpt lat="48.73755" lon="7.27551">
        <ele>287</ele>
        <time>2013-08-07T14:58:52.303Z</time>
      </trkpt>
      <trkpt lat="48.73763" lon="7.27541">
        <ele>286</ele>
        <time>2013-08-07T14:58:56.307Z</time>
      </trkpt>
      <trkpt lat="48.73771" lon="7.27531">
        <ele>284</ele>
        <time>2013-08-07T14:59:00.301Z</time>
      </trkpt>
      <trkpt lat="48.73777" lon="7.2752">
        <ele>283</ele>
        <time>2013-08-07T14:59:04.306Z</time>
      </trkpt>
      <trkpt lat="48.73784" lon="7.2751">
        <ele>283</ele>
        <time>2013-08-07T14:59:09.305Z</time>
      </trkpt>
      <trkpt lat="48.73791" lon="7.27499">
        <ele>268</ele>
        <time>2013-08-07T14:59:14.294Z</time>
      </trkpt>
      <trkpt lat="48.73798" lon="7.27488">
        <ele>269</ele>
        <time>2013-08-07T14:59:19.298Z</time>
      </trkpt>
      <trkpt lat="48.73809" lon="7.27477">
        <ele>269</ele>
        <time>2013-08-07T14:59:23.303Z</time>
      </trkpt>
      <trkpt lat="48.7382" lon="7.27467">
        <ele>269</ele>
        <time>2013-08-07T14:59:26.301Z</time>
      </trkpt>
      <trkpt lat="48.7383" lon="7.27456">
        <ele>267</ele>
        <time>2013-08-07T14:59:29.293Z</time>
      </trkpt>
      <trkpt lat="48.73835" lon="7.27443">
        <ele>280</ele>
        <time>2013-08-07T14:59:33.302Z</time>
      </trkpt>
      <trkpt lat="48.7384" lon="7.27428">
        <ele>274</ele>
        <time>2013-08-07T14:59:37.300Z</time>
      </trkpt>
      <trkpt lat="48.73845" lon="7.27413">
        <ele>268</ele>
        <time>2013-08-07T14:59:42.301Z</time>
      </trkpt>
      <trkpt lat="48.7385" lon="7.27398">
        <ele>270</ele>
        <time>2013-08-07T14:59:47.302Z</time>
      </trkpt>
      <trkpt lat="48.73855" lon="7.27386">
        <ele>271</ele>
        <time>2013-08-07T14:59:52.302Z</time>
      </trkpt>
      <trkpt lat="48.73861" lon="7.27373">
        <ele>271</ele>
        <time>2013-08-07T14:59:57.301Z</time>
      </trkpt>
      <trkpt lat="48.73867" lon="7.27361">
        <ele>272</ele>
        <time>2013-08-07T15:00:04.292Z</time>
      </trkpt>
      <trkpt lat="48.73873" lon="7.2735">
        <ele>272</ele>
        <time>2013-08-07T15:00:08.297Z</time>
      </trkpt>
      <trkpt lat="48.73879" lon="7.27337">
        <ele>274</ele>
        <time>2013-08-07T15:00:13.290Z</time>
      </trkpt>
      <trkpt lat="48.73886" lon="7.27327">
        <ele>269</ele>
        <time>2013-08-07T15:00:19.293Z</time>
      </trkpt>
      <trkpt lat="48.73893" lon="7.27315">
        <ele>270</ele>
        <time>2013-08-07T15:00:24.293Z</time>
      </trkpt>
      <trkpt lat="48.739" lon="7.27305">
        <ele>270</ele>
        <time>2013-08-07T15:00:29.294Z</time>
      </trkpt>
      <trkpt lat="48.73908" lon="7.27287">
        <ele>269</ele>
        <time>2013-08-07T15:00:37.300Z</time>
      </trkpt>
      <trkpt lat="48.73913" lon="7.27275">
        <ele>270</ele>
        <time>2013-08-07T15:00:43.301Z</time>
      </trkpt>
      <trkpt lat="48.73921" lon="7.27265">
        <ele>288</ele>
        <time>2013-08-07T15:00:46.305Z</time>
      </trkpt>
      <trkpt lat="48.73927" lon="7.27249">
        <ele>284</ele>
        <time>2013-08-07T15:00:50.297Z</time>
      </trkpt>
      <trkpt lat="48.73932" lon="7.27234">
        <ele>288</ele>
        <time>2013-08-07T15:00:52.305Z</time>
      </trkpt>
      <trkpt lat="48.73935" lon="7.27221">
        <ele>289</ele>
        <time>2013-08-07T15:00:54.294Z</time>
      </trkpt>
      <trkpt lat="48.7394" lon="7.27205">
        <ele>290</ele>
        <time>2013-08-07T15:00:57.317Z</time>
      </trkpt>
      <trkpt lat="48.73937" lon="7.27192">
        <ele>287</ele>
        <time>2013-08-07T15:01:00.311Z</time>
      </trkpt>
      <trkpt lat="48.73936" lon="7.27175">
        <ele>284</ele>
        <time>2013-08-07T15:01:03.316Z</time>
      </trkpt>
      <trkpt lat="48.73933" lon="7.27159">
        <ele>278</ele>
        <time>2013-08-07T15:01:06.316Z</time>
      </trkpt>
      <trkpt lat="48.73935" lon="7.2714">
        <ele>282</ele>
        <time>2013-08-07T15:01:09.305Z</time>
      </trkpt>
      <trkpt lat="48.73937" lon="7.27121">
        <ele>282</ele>
        <time>2013-08-07T15:01:12.319Z</time>
      </trkpt>
      <trkpt lat="48.7394" lon="7.27102">
        <ele>281</ele>
        <time>2013-08-07T15:01:15.315Z</time>
      </trkpt>
      <trkpt lat="48.73947" lon="7.27085">
        <ele>282</ele>
        <time>2013-08-07T15:01:22.319Z</time>
      </trkpt>
      <trkpt lat="48.73954" lon="7.27074">
        <ele>284</ele>
        <time>2013-08-07T15:01:26.304Z</time>
      </trkpt>
      <trkpt lat="48.7396" lon="7.27088">
        <ele>287</ele>
        <time>2013-08-07T15:01:43.300Z</time>
      </trkpt>
      <trkpt lat="48.7396" lon="7.27102">
        <ele>288</ele>
        <time>2013-08-07T15:01:48.306Z</time>
      </trkpt>
      <trkpt lat="48.73951" lon="7.27101">
        <ele>284</ele>
        <time>2013-08-07T15:02:40.302Z</time>
      </trkpt>
      <trkpt lat="48.73941" lon="7.2711">
        <ele>282</ele>
        <time>2013-08-07T15:02:53.317Z</time>
      </trkpt>
      <trkpt lat="48.73937" lon="7.27122">
        <ele>282</ele>
        <time>2013-08-07T15:03:00.311Z</time>
      </trkpt>
      <trkpt lat="48.73934" lon="7.27135">
        <ele>282</ele>
        <time>2013-08-07T15:03:07.318Z</time>
      </trkpt>
      <trkpt lat="48.73933" lon="7.27149">
        <ele>280</ele>
        <time>2013-08-07T15:03:15.304Z</time>
      </trkpt>
      <trkpt lat="48.73931" lon="7.27164">
        <ele>277</ele>
        <time>2013-08-07T15:03:23.304Z</time>
      </trkpt>
      <trkpt lat="48.7393" lon="7.27178">
        <ele>281</ele>
        <time>2013-08-07T15:03:33.292Z</time>
      </trkpt>
      <trkpt lat="48.73931" lon="7.27193">
        <ele>286</ele>
        <time>2013-08-07T15:03:41.270Z</time>
      </trkpt>
      <trkpt lat="48.73931" lon="7.27208">
        <ele>288</ele>
        <time>2013-08-07T15:03:53.263Z</time>
      </trkpt>
      <trkpt lat="48.73931" lon="7.27224">
        <ele>288</ele>
        <time>2013-08-07T15:04:01.304Z</time>
      </trkpt>
      <trkpt lat="48.73932" lon="7.27238">
        <ele>287</ele>
        <time>2013-08-07T15:04:10.292Z</time>
      </trkpt>
      <trkpt lat="48.73934" lon="7.27253">
        <ele>290</ele>
        <time>2013-08-07T15:04:16.293Z</time>
      </trkpt>
      <trkpt lat="48.73936" lon="7.27267">
        <ele>293</ele>
        <time>2013-08-07T15:04:23.314Z</time>
      </trkpt>
      <trkpt lat="48.73935" lon="7.27281">
        <ele>295</ele>
        <time>2013-08-07T15:04:30.310Z</time>
      </trkpt>
      <trkpt lat="48.73941" lon="7.27294">
        <ele>297</ele>
        <time>2013-08-07T15:04:49.306Z</time>
      </trkpt>
      <trkpt lat="48.7395" lon="7.27292">
        <ele>299</ele>
        <time>2013-08-07T15:05:06.287Z</time>
      </trkpt>
      <trkpt lat="48.73952" lon="7.27273">
        <ele>299</ele>
        <time>2013-08-07T15:05:33.316Z</time>
      </trkpt>
      <trkpt lat="48.73958" lon="7.27253">
        <ele>300</ele>
        <time>2013-08-07T15:05:44.304Z</time>
      </trkpt>
      <trkpt lat="48.73962" lon="7.27241">
        <ele>297</ele>
        <time>2013-08-07T15:05:51.315Z</time>
      </trkpt>
      <trkpt lat="48.73968" lon="7.27229">
        <ele>298</ele>
        <time>2013-08-07T15:06:00.313Z</time>
      </trkpt>
      <trkpt lat="48.73971" lon="7.27215">
        <ele>298</ele>
        <time>2013-08-07T15:06:08.313Z</time>
      </trkpt>
      <trkpt lat="48.73977" lon="7.27203">
        <ele>299</ele>
        <time>2013-08-07T15:06:17.317Z</time>
      </trkpt>
      <trkpt lat="48.73979" lon="7.27188">
        <ele>300</ele>
        <time>2013-08-07T15:06:25.314Z</time>
      </trkpt>
      <trkpt lat="48.73984" lon="7.27175">
        <ele>303</ele>
        <time>2013-08-07T15:06:36.313Z</time>
      </trkpt>
      <trkpt lat="48.73988" lon="7.27162">
        <ele>303</ele>
        <time>2013-08-07T15:06:41.309Z</time>
      </trkpt>
      <trkpt lat="48.73991" lon="7.27149">
        <ele>300</ele>
        <time>2013-08-07T15:06:48.317Z</time>
      </trkpt>
      <trkpt lat="48.73996" lon="7.27138">
        <ele>298</ele>
        <time>2013-08-07T15:06:55.315Z</time>
      </trkpt>
      <trkpt lat="48.73999" lon="7.27125">
        <ele>296</ele>
        <time>2013-08-07T15:07:03.317Z</time>
      </trkpt>
      <trkpt lat="48.73999" lon="7.27109">
        <ele>297</ele>
        <time>2013-08-07T15:07:11.298Z</time>
      </trkpt>
      <trkpt lat="48.73997" lon="7.27079">
        <ele>303</ele>
        <time>2013-08-07T15:07:25.316Z</time>
      </trkpt>
      <trkpt lat="48.73997" lon="7.27057">
        <ele>296</ele>
        <time>2013-08-07T15:07:40.317Z</time>
      </trkpt>
      <trkpt lat="48.73999" lon="7.27039">
        <ele>295</ele>
        <time>2013-08-07T15:08:06.320Z</time>
      </trkpt>
      <trkpt lat="48.73996" lon="7.27025">
        <ele>296</ele>
        <time>2013-08-07T15:08:24.309Z</time>
      </trkpt>
      <trkpt lat="48.73988" lon="7.27012">
        <ele>298</ele>
        <time>2013-08-07T15:08:29.296Z</time>
      </trkpt>
      <trkpt lat="48.73976" lon="7.27005">
        <ele>294</ele>
        <time>2013-08-07T15:09:00.300Z</time>
      </trkpt>
      <trkpt lat="48.73968" lon="7.26997">
        <ele>292</ele>
        <time>2013-08-07T15:09:48.320Z</time>
      </trkpt>
      <trkpt lat="48.73971" lon="7.26982">
        <ele>293</ele>
        <time>2013-08-07T15:10:04.292Z</time>
      </trkpt>
      <trkpt lat="48.73971" lon="7.26968">
        <ele>292</ele>
        <time>2013-08-07T15:10:08.303Z</time>
      </trkpt>
      <trkpt lat="48.73977" lon="7.26956">
        <ele>294</ele>
        <time>2013-08-07T15:10:17.305Z</time>
      </trkpt>
      <trkpt lat="48.73976" lon="7.26942">
        <ele>295</ele>
        <time>2013-08-07T15:10:26.300Z</time>
      </trkpt>
      <trkpt lat="48.73976" lon="7.26924">
        <ele>297</ele>
        <time>2013-08-07T15:10:31.303Z</time>
      </trkpt>
      <trkpt lat="48.73976" lon="7.26908">
        <ele>298</ele>
        <time>2013-08-07T15:10:39.294Z</time>
      </trkpt>
      <trkpt lat="48.73976" lon="7.26895">
        <ele>296</ele>
        <time>2013-08-07T15:10:46.307Z</time>
      </trkpt>
      <trkpt lat="48.73972" lon="7.26881">
        <ele>294</ele>
        <time>2013-08-07T15:10:53.307Z</time>
      </trkpt>
      <trkpt lat="48.7397" lon="7.26867">
        <ele>293</ele>
        <time>2013-08-07T15:11:11.298Z</time>
      </trkpt>
      <trkpt lat="48.73969" lon="7.26852">
        <ele>294</ele>
        <time>2013-08-07T15:11:23.321Z</time>
      </trkpt>
      <trkpt lat="48.73968" lon="7.26837">
        <ele>294</ele>
        <time>2013-08-07T15:11:28.318Z</time>
      </trkpt>
      <trkpt lat="48.73973" lon="7.26821">
        <ele>294</ele>
        <time>2013-08-07T15:11:42.318Z</time>
      </trkpt>
      <trkpt lat="48.73978" lon="7.26805">
        <ele>294</ele>
        <time>2013-08-07T15:11:57.304Z</time>
      </trkpt>
      <trkpt lat="48.73982" lon="7.26788">
        <ele>294</ele>
        <time>2013-08-07T15:12:02.304Z</time>
      </trkpt>
      <trkpt lat="48.73982" lon="7.26774">
        <ele>295</ele>
        <time>2013-08-07T15:12:09.302Z</time>
      </trkpt>
      <trkpt lat="48.73988" lon="7.26762">
        <ele>299</ele>
        <time>2013-08-07T15:12:25.305Z</time>
      </trkpt>
      <trkpt lat="48.73989" lon="7.26748">
        <ele>300</ele>
        <time>2013-08-07T15:12:34.297Z</time>
      </trkpt>
      <trkpt lat="48.73991" lon="7.26731">
        <ele>295</ele>
        <time>2013-08-07T15:12:39.298Z</time>
      </trkpt>
      <trkpt lat="48.73991" lon="7.26712">
        <ele>290</ele>
        <time>2013-08-07T15:12:44.298Z</time>
      </trkpt>
      <trkpt lat="48.74001" lon="7.267">
        <ele>312</ele>
        <time>2013-08-07T15:12:52.306Z</time>
      </trkpt>
      <trkpt lat="48.74011" lon="7.2669">
        <ele>311</ele>
        <time>2013-08-07T15:12:56.309Z</time>
      </trkpt>
      <trkpt lat="48.74017" lon="7.26679">
        <ele>311</ele>
        <time>2013-08-07T15:13:00.302Z</time>
      </trkpt>
      <trkpt lat="48.74023" lon="7.26668">
        <ele>311</ele>
        <time>2013-08-07T15:13:07.308Z</time>
      </trkpt>
      <trkpt lat="48.7403" lon="7.26659">
        <ele>310</ele>
        <time>2013-08-07T15:13:18.320Z</time>
      </trkpt>
      <trkpt lat="48.74032" lon="7.26646">
        <ele>310</ele>
        <time>2013-08-07T15:13:22.320Z</time>
      </trkpt>
      <trkpt lat="48.74037" lon="7.26633">
        <ele>311</ele>
        <time>2013-08-07T15:13:28.319Z</time>
      </trkpt>
      <trkpt lat="48.74039" lon="7.26619">
        <ele>310</ele>
        <time>2013-08-07T15:13:34.314Z</time>
      </trkpt>
      <trkpt lat="48.74041" lon="7.26603">
        <ele>310</ele>
        <time>2013-08-07T15:13:47.304Z</time>
      </trkpt>
      <trkpt lat="48.74047" lon="7.26592">
        <ele>312</ele>
        <time>2013-08-07T15:13:56.305Z</time>
      </trkpt>
      <trkpt lat="48.74048" lon="7.26576">
        <ele>308</ele>
        <time>2013-08-07T15:14:01.304Z</time>
      </trkpt>
      <trkpt lat="48.74043" lon="7.26562">
        <ele>306</ele>
        <time>2013-08-07T15:15:19.299Z</time>
      </trkpt>
      <trkpt lat="48.74036" lon="7.2655">
        <ele>304</ele>
        <time>2013-08-07T15:15:29.305Z</time>
      </trkpt>
      <trkpt lat="48.74029" lon="7.26531">
        <ele>301</ele>
        <time>2013-08-07T15:15:34.290Z</time>
      </trkpt>
      <trkpt lat="48.74025" lon="7.26518">
        <ele>299</ele>
        <time>2013-08-07T15:15:37.300Z</time>
      </trkpt>
      <trkpt lat="48.74026" lon="7.265">
        <ele>297</ele>
        <time>2013-08-07T15:15:44.304Z</time>
      </trkpt>
      <trkpt lat="48.74033" lon="7.26489">
        <ele>299</ele>
        <time>2013-08-07T15:15:52.298Z</time>
      </trkpt>
      <trkpt lat="48.74037" lon="7.26476">
        <ele>301</ele>
        <time>2013-08-07T15:15:59.297Z</time>
      </trkpt>
      <trkpt lat="48.74043" lon="7.26465">
        <ele>303</ele>
        <time>2013-08-07T15:16:09.299Z</time>
      </trkpt>
      <trkpt lat="48.74051" lon="7.26455">
        <ele>305</ele>
        <time>2013-08-07T15:16:18.309Z</time>
      </trkpt>
      <trkpt lat="48.74057" lon="7.26439">
        <ele>307</ele>
        <time>2013-08-07T15:16:25.311Z</time>
      </trkpt>
      <trkpt lat="48.74063" lon="7.26421">
        <ele>311</ele>
        <time>2013-08-07T15:16:34.301Z</time>
      </trkpt>
      <trkpt lat="48.74063" lon="7.264">
        <ele>310</ele>
        <time>2013-08-07T15:16:38.310Z</time>
      </trkpt>
      <trkpt lat="48.74069" lon="7.2639">
        <ele>310</ele>
        <time>2013-08-07T15:16:46.303Z</time>
      </trkpt>
      <trkpt lat="48.74079" lon="7.26376">
        <ele>310</ele>
        <time>2013-08-07T15:16:55.309Z</time>
      </trkpt>
      <trkpt lat="48.74078" lon="7.26357">
        <ele>311</ele>
        <time>2013-08-07T15:16:58.313Z</time>
      </trkpt>
      <trkpt lat="48.74072" lon="7.26343">
        <ele>313</ele>
        <time>2013-08-07T15:17:00.305Z</time>
      </trkpt>
      <trkpt lat="48.74068" lon="7.26324">
        <ele>311</ele>
        <time>2013-08-07T15:17:04.305Z</time>
      </trkpt>
      <trkpt lat="48.74065" lon="7.26301">
        <ele>307</ele>
        <time>2013-08-07T15:17:10.308Z</time>
      </trkpt>
      <trkpt lat="48.7406" lon="7.26284">
        <ele>306</ele>
        <time>2013-08-07T15:17:15.310Z</time>
      </trkpt>
      <trkpt lat="48.74062" lon="7.26271">
        <ele>307</ele>
        <time>2013-08-07T15:17:25.299Z</time>
      </trkpt>
      <trkpt lat="48.74067" lon="7.26256">
        <ele>310</ele>
        <time>2013-08-07T15:17:34.305Z</time>
      </trkpt>
      <trkpt lat="48.74072" lon="7.26244">
        <ele>311</ele>
        <time>2013-08-07T15:17:37.310Z</time>
      </trkpt>
      <trkpt lat="48.74071" lon="7.26228">
        <ele>307</ele>
        <time>2013-08-07T15:17:41.302Z</time>
      </trkpt>
      <trkpt lat="48.74077" lon="7.26217">
        <ele>307</ele>
        <time>2013-08-07T15:17:45.309Z</time>
      </trkpt>
      <trkpt lat="48.74073" lon="7.262">
        <ele>306</ele>
        <time>2013-08-07T15:17:52.313Z</time>
      </trkpt>
      <trkpt lat="48.74071" lon="7.26184">
        <ele>307</ele>
        <time>2013-08-07T15:17:58.310Z</time>
      </trkpt>
      <trkpt lat="48.74066" lon="7.26172">
        <ele>308</ele>
        <time>2013-08-07T15:19:14.314Z</time>
      </trkpt>
      <trkpt lat="48.74064" lon="7.26156">
        <ele>309</ele>
        <time>2013-08-07T15:19:29.318Z</time>
      </trkpt>
      <trkpt lat="48.74058" lon="7.26142">
        <ele>307</ele>
        <time>2013-08-07T15:19:32.326Z</time>
      </trkpt>
      <trkpt lat="48.74055" lon="7.26128">
        <ele>308</ele>
        <time>2013-08-07T15:19:45.313Z</time>
      </trkpt>
      <trkpt lat="48.74048" lon="7.26112">
        <ele>307</ele>
        <time>2013-08-07T15:19:51.300Z</time>
      </trkpt>
      <trkpt lat="48.74042" lon="7.26102">
        <ele>307</ele>
        <time>2013-08-07T15:19:55.304Z</time>
      </trkpt>
      <trkpt lat="48.74034" lon="7.2609">
        <ele>306</ele>
        <time>2013-08-07T15:20:01.313Z</time>
      </trkpt>
      <trkpt lat="48.74024" lon="7.26076">
        <ele>313</ele>
        <time>2013-08-07T15:20:06.316Z</time>
      </trkpt>
      <trkpt lat="48.74018" lon="7.26063">
        <ele>314</ele>
        <time>2013-08-07T15:20:18.316Z</time>
      </trkpt>
      <trkpt lat="48.73998" lon="7.26056">
        <ele>298</ele>
        <time>2013-08-07T15:20:33.315Z</time>
      </trkpt>
      <trkpt lat="48.73977" lon="7.26052">
        <ele>296</ele>
        <time>2013-08-07T15:20:45.318Z</time>
      </trkpt>
      <trkpt lat="48.73968" lon="7.26043">
        <ele>296</ele>
        <time>2013-08-07T15:21:16.315Z</time>
      </trkpt>
      <trkpt lat="48.73961" lon="7.26031">
        <ele>296</ele>
        <time>2013-08-07T15:21:28.314Z</time>
      </trkpt>
      <trkpt lat="48.73953" lon="7.26022">
        <ele>296</ele>
        <time>2013-08-07T15:21:33.322Z</time>
      </trkpt>
      <trkpt lat="48.73945" lon="7.26011">
        <ele>295</ele>
        <time>2013-08-07T15:21:40.315Z</time>
      </trkpt>
      <trkpt lat="48.73944" lon="7.25993">
        <ele>308</ele>
        <time>2013-08-07T15:21:48.317Z</time>
      </trkpt>
      <trkpt lat="48.7394" lon="7.2598">
        <ele>309</ele>
        <time>2013-08-07T15:22:00.306Z</time>
      </trkpt>
      <trkpt lat="48.73934" lon="7.25968">
        <ele>311</ele>
        <time>2013-08-07T15:22:06.266Z</time>
      </trkpt>
      <trkpt lat="48.73929" lon="7.25955">
        <ele>313</ele>
        <time>2013-08-07T15:22:13.316Z</time>
      </trkpt>
      <trkpt lat="48.73922" lon="7.25943">
        <ele>314</ele>
        <time>2013-08-07T15:22:21.314Z</time>
      </trkpt>
      <trkpt lat="48.73915" lon="7.25928">
        <ele>306</ele>
        <time>2013-08-07T15:22:37.317Z</time>
      </trkpt>
      <trkpt lat="48.73904" lon="7.25923">
        <ele>304</ele>
        <time>2013-08-07T15:22:47.317Z</time>
      </trkpt>
      <trkpt lat="48.73895" lon="7.25918">
        <ele>300</ele>
        <time>2013-08-07T15:23:06.314Z</time>
      </trkpt>
      <trkpt lat="48.7388" lon="7.25926">
        <ele>295</ele>
        <time>2013-08-07T15:23:48.331Z</time>
      </trkpt>
      <trkpt lat="48.73879" lon="7.2591">
        <ele>311</ele>
        <time>2013-08-07T15:24:17.309Z</time>
      </trkpt>
      <trkpt lat="48.73872" lon="7.25897">
        <ele>310</ele>
        <time>2013-08-07T15:24:42.314Z</time>
      </trkpt>
      <trkpt lat="48.73863" lon="7.25892">
        <ele>309</ele>
        <time>2013-08-07T15:24:50.310Z</time>
      </trkpt>
      <trkpt lat="48.73857" lon="7.2588">
        <ele>311</ele>
        <time>2013-08-07T15:24:59.297Z</time>
      </trkpt>
      <trkpt lat="48.7385" lon="7.25869">
        <ele>312</ele>
        <time>2013-08-07T15:25:07.304Z</time>
      </trkpt>
      <trkpt lat="48.73842" lon="7.25858">
        <ele>313</ele>
        <time>2013-08-07T15:25:14.308Z</time>
      </trkpt>
      <trkpt lat="48.73835" lon="7.25849">
        <ele>314</ele>
        <time>2013-08-07T15:25:21.309Z</time>
      </trkpt>
      <trkpt lat="48.73826" lon="7.25842">
        <ele>306</ele>
        <time>2013-08-07T15:25:28.319Z</time>
      </trkpt>
      <trkpt lat="48.73819" lon="7.25832">
        <ele>313</ele>
        <time>2013-08-07T15:25:41.307Z</time>
      </trkpt>
      <trkpt lat="48.73811" lon="7.25824">
        <ele>312</ele>
        <time>2013-08-07T15:25:45.320Z</time>
      </trkpt>
      <trkpt lat="48.73805" lon="7.25808">
        <ele>311</ele>
        <time>2013-08-07T15:26:04.306Z</time>
      </trkpt>
      <trkpt lat="48.7381" lon="7.25796">
        <ele>313</ele>
        <time>2013-08-07T15:26:33.302Z</time>
      </trkpt>
      <trkpt lat="48.7382" lon="7.25793">
        <ele>315</ele>
        <time>2013-08-07T15:26:55.309Z</time>
      </trkpt>
      <trkpt lat="48.7383" lon="7.25798">
        <ele>315</ele>
        <time>2013-08-07T15:27:02.323Z</time>
      </trkpt>
      <trkpt lat="48.7384" lon="7.25796">
        <ele>329</ele>
        <time>2013-08-07T15:27:16.320Z</time>
      </trkpt>
      <trkpt lat="48.73854" lon="7.25791">
        <ele>330</ele>
        <time>2013-08-07T15:27:24.315Z</time>
      </trkpt>
      <trkpt lat="48.73869" lon="7.25798">
        <ele>331</ele>
        <time>2013-08-07T15:27:31.320Z</time>
      </trkpt>
      <trkpt lat="48.7388" lon="7.25794">
        <ele>332</ele>
        <time>2013-08-07T15:27:48.306Z</time>
      </trkpt>
      <trkpt lat="48.73868" lon="7.25802">
        <ele>330</ele>
        <time>2013-08-07T15:29:12.288Z</time>
      </trkpt>
      <trkpt lat="48.73856" lon="7.25805">
        <ele>329</ele>
        <time>2013-08-07T15:29:15.297Z</time>
      </trkpt>
      <trkpt lat="48.73845" lon="7.25808">
        <ele>327</ele>
        <time>2013-08-07T15:29:19.291Z</time>
      </trkpt>
      <trkpt lat="48.73833" lon="7.2581">
        <ele>314</ele>
        <time>2013-08-07T15:29:22.282Z</time>
      </trkpt>
      <trkpt lat="48.7384" lon="7.25801">
        <ele>328</ele>
        <time>2013-08-07T15:29:47.302Z</time>
      </trkpt>
      <trkpt lat="48.73858" lon="7.25783">
        <ele>331</ele>
        <time>2013-08-07T15:29:59.294Z</time>
      </trkpt>
      <trkpt lat="48.73866" lon="7.25777">
        <ele>332</ele>
        <time>2013-08-07T15:30:04.289Z</time>
      </trkpt>
      <trkpt lat="48.73881" lon="7.25775">
        <ele>334</ele>
        <time>2013-08-07T15:30:08.302Z</time>
      </trkpt>
      <trkpt lat="48.73894" lon="7.25783">
        <ele>334</ele>
        <time>2013-08-07T15:30:10.300Z</time>
      </trkpt>
      <trkpt lat="48.73905" lon="7.25795">
        <ele>334</ele>
        <time>2013-08-07T15:30:33.316Z</time>
      </trkpt>
      <trkpt lat="48.73913" lon="7.25803">
        <ele>334</ele>
        <time>2013-08-07T15:30:39.312Z</time>
      </trkpt>
      <trkpt lat="48.73923" lon="7.25811">
        <ele>341</ele>
        <time>2013-08-07T15:34:33.311Z</time>
      </trkpt>
      <trkpt lat="48.73912" lon="7.25798">
        <ele>334</ele>
        <time>2013-08-07T15:35:09.295Z</time>
      </trkpt>
      <trkpt lat="48.73902" lon="7.2579">
        <ele>334</ele>
        <time>2013-08-07T15:35:15.302Z</time>
      </trkpt>
      <trkpt lat="48.73892" lon="7.25782">
        <ele>334</ele>
        <time>2013-08-07T15:35:18.292Z</time>
      </trkpt>
      <trkpt lat="48.73884" lon="7.25773">
        <ele>334</ele>
        <time>2013-08-07T15:35:21.303Z</time>
      </trkpt>
      <trkpt lat="48.73876" lon="7.25766">
        <ele>334</ele>
        <time>2013-08-07T15:35:24.289Z</time>
      </trkpt>
      <trkpt lat="48.73867" lon="7.2576">
        <ele>333</ele>
        <time>2013-08-07T15:35:28.289Z</time>
      </trkpt>
      <trkpt lat="48.73859" lon="7.25753">
        <ele>333</ele>
        <time>2013-08-07T15:35:34.290Z</time>
      </trkpt>
      <trkpt lat="48.7385" lon="7.25749">
        <ele>336</ele>
        <time>2013-08-07T15:35:39.289Z</time>
      </trkpt>
      <trkpt lat="48.73842" lon="7.25742">
        <ele>335</ele>
        <time>2013-08-07T15:35:43.292Z</time>
      </trkpt>
      <trkpt lat="48.73832" lon="7.25736">
        <ele>328</ele>
        <time>2013-08-07T15:35:47.289Z</time>
      </trkpt>
      <trkpt lat="48.7383" lon="7.2572">
        <ele>326</ele>
        <time>2013-08-07T15:35:56.290Z</time>
      </trkpt>
      <trkpt lat="48.73831" lon="7.25704">
        <ele>326</ele>
        <time>2013-08-07T15:36:01.302Z</time>
      </trkpt>
      <trkpt lat="48.73838" lon="7.25691">
        <ele>338</ele>
        <time>2013-08-07T15:36:06.304Z</time>
      </trkpt>
      <trkpt lat="48.7384" lon="7.25675">
        <ele>338</ele>
        <time>2013-08-07T15:36:11.296Z</time>
      </trkpt>
      <trkpt lat="48.73845" lon="7.25659">
        <ele>337</ele>
        <time>2013-08-07T15:36:16.301Z</time>
      </trkpt>
      <trkpt lat="48.73849" lon="7.25643">
        <ele>336</ele>
        <time>2013-08-07T15:36:20.300Z</time>
      </trkpt>
      <trkpt lat="48.7385" lon="7.2563">
        <ele>336</ele>
        <time>2013-08-07T15:36:25.300Z</time>
      </trkpt>
      <trkpt lat="48.73856" lon="7.2562">
        <ele>335</ele>
        <time>2013-08-07T15:36:29.296Z</time>
      </trkpt>
      <trkpt lat="48.73866" lon="7.25614">
        <ele>336</ele>
        <time>2013-08-07T15:36:35.312Z</time>
      </trkpt>
      <trkpt lat="48.73881" lon="7.25611">
        <ele>336</ele>
        <time>2013-08-07T15:36:44.309Z</time>
      </trkpt>
      <trkpt lat="48.7389" lon="7.25607">
        <ele>337</ele>
        <time>2013-08-07T15:36:50.311Z</time>
      </trkpt>
      <trkpt lat="48.73899" lon="7.25606">
        <ele>337</ele>
        <time>2013-08-07T15:36:56.316Z</time>
      </trkpt>
      <trkpt lat="48.73911" lon="7.25606">
        <ele>338</ele>
        <time>2013-08-07T15:37:03.316Z</time>
      </trkpt>
      <trkpt lat="48.73923" lon="7.25608">
        <ele>341</ele>
        <time>2013-08-07T15:37:09.297Z</time>
      </trkpt>
      <trkpt lat="48.73934" lon="7.2561">
        <ele>341</ele>
        <time>2013-08-07T15:37:12.293Z</time>
      </trkpt>
      <trkpt lat="48.73945" lon="7.25615">
        <ele>341</ele>
        <time>2013-08-07T15:37:18.302Z</time>
      </trkpt>
      <trkpt lat="48.73955" lon="7.25617">
        <ele>342</ele>
        <time>2013-08-07T15:37:22.299Z</time>
      </trkpt>
      <trkpt lat="48.73964" lon="7.25616">
        <ele>342</ele>
        <time>2013-08-07T15:37:30.296Z</time>
      </trkpt>
      <trkpt lat="48.73976" lon="7.25621">
        <ele>342</ele>
        <time>2013-08-07T15:37:34.297Z</time>
      </trkpt>
      <trkpt lat="48.73988" lon="7.2562">
        <ele>342</ele>
        <time>2013-08-07T15:37:37.273Z</time>
      </trkpt>
      <trkpt lat="48.73997" lon="7.25617">
        <ele>342</ele>
        <time>2013-08-07T15:37:40.298Z</time>
      </trkpt>
      <trkpt lat="48.74006" lon="7.25615">
        <ele>345</ele>
        <time>2013-08-07T15:37:44.291Z</time>
      </trkpt>
      <trkpt lat="48.74015" lon="7.25614">
        <ele>345</ele>
        <time>2013-08-07T15:37:47.302Z</time>
      </trkpt>
      <trkpt lat="48.74027" lon="7.25612">
        <ele>346</ele>
        <time>2013-08-07T15:37:50.301Z</time>
      </trkpt>
      <trkpt lat="48.74037" lon="7.25607">
        <ele>346</ele>
        <time>2013-08-07T15:37:53.304Z</time>
      </trkpt>
      <trkpt lat="48.74048" lon="7.25602">
        <ele>346</ele>
        <time>2013-08-07T15:37:58.304Z</time>
      </trkpt>
      <trkpt lat="48.74059" lon="7.25599">
        <ele>346</ele>
        <time>2013-08-07T15:38:05.302Z</time>
      </trkpt>
      <trkpt lat="48.74068" lon="7.25597">
        <ele>345</ele>
        <time>2013-08-07T15:38:09.293Z</time>
      </trkpt>
      <trkpt lat="48.74078" lon="7.25596">
        <ele>345</ele>
        <time>2013-08-07T15:38:14.291Z</time>
      </trkpt>
      <trkpt lat="48.74089" lon="7.25599">
        <ele>346</ele>
        <time>2013-08-07T15:38:20.303Z</time>
      </trkpt>
      <trkpt lat="48.74098" lon="7.25601">
        <ele>347</ele>
        <time>2013-08-07T15:38:29.297Z</time>
      </trkpt>
      <trkpt lat="48.74108" lon="7.25605">
        <ele>348</ele>
        <time>2013-08-07T15:38:37.268Z</time>
      </trkpt>
      <trkpt lat="48.74117" lon="7.25612">
        <ele>349</ele>
        <time>2013-08-07T15:38:46.277Z</time>
      </trkpt>
      <trkpt lat="48.74127" lon="7.25618">
        <ele>349</ele>
        <time>2013-08-07T15:38:51.276Z</time>
      </trkpt>
      <trkpt lat="48.74138" lon="7.25623">
        <ele>350</ele>
        <time>2013-08-07T15:38:55.307Z</time>
      </trkpt>
      <trkpt lat="48.74146" lon="7.2563">
        <ele>350</ele>
        <time>2013-08-07T15:39:00.307Z</time>
      </trkpt>
      <trkpt lat="48.74156" lon="7.25637">
        <ele>350</ele>
        <time>2013-08-07T15:39:06.312Z</time>
      </trkpt>
      <trkpt lat="48.74166" lon="7.25644">
        <ele>351</ele>
        <time>2013-08-07T15:39:12.313Z</time>
      </trkpt>
      <trkpt lat="48.74174" lon="7.25651">
        <ele>350</ele>
        <time>2013-08-07T15:39:16.273Z</time>
      </trkpt>
      <trkpt lat="48.74184" lon="7.25656">
        <ele>350</ele>
        <time>2013-08-07T15:39:20.312Z</time>
      </trkpt>
      <trkpt lat="48.74192" lon="7.25664">
        <ele>350</ele>
        <time>2013-08-07T15:39:25.319Z</time>
      </trkpt>
      <trkpt lat="48.74202" lon="7.25676">
        <ele>356</ele>
        <time>2013-08-07T15:39:29.316Z</time>
      </trkpt>
      <trkpt lat="48.7421" lon="7.25686">
        <ele>356</ele>
        <time>2013-08-07T15:39:33.310Z</time>
      </trkpt>
      <trkpt lat="48.74218" lon="7.25696">
        <ele>356</ele>
        <time>2013-08-07T15:39:38.314Z</time>
      </trkpt>
      <trkpt lat="48.74225" lon="7.25705">
        <ele>356</ele>
        <time>2013-08-07T15:39:42.308Z</time>
      </trkpt>
      <trkpt lat="48.74234" lon="7.25715">
        <ele>357</ele>
        <time>2013-08-07T15:39:46.303Z</time>
      </trkpt>
      <trkpt lat="48.74242" lon="7.25727">
        <ele>357</ele>
        <time>2013-08-07T15:39:52.309Z</time>
      </trkpt>
      <trkpt lat="48.74249" lon="7.25737">
        <ele>356</ele>
        <time>2013-08-07T15:39:57.308Z</time>
      </trkpt>
      <trkpt lat="48.74256" lon="7.25748">
        <ele>355</ele>
        <time>2013-08-07T15:40:03.318Z</time>
      </trkpt>
      <trkpt lat="48.74265" lon="7.25754">
        <ele>357</ele>
        <time>2013-08-07T15:40:07.268Z</time>
      </trkpt>
      <trkpt lat="48.74275" lon="7.25763">
        <ele>357</ele>
        <time>2013-08-07T15:40:16.301Z</time>
      </trkpt>
      <trkpt lat="48.74283" lon="7.25773">
        <ele>357</ele>
        <time>2013-08-07T15:40:21.306Z</time>
      </trkpt>
      <trkpt lat="48.7429" lon="7.25786">
        <ele>357</ele>
        <time>2013-08-07T15:40:28.305Z</time>
      </trkpt>
      <trkpt lat="48.74301" lon="7.25793">
        <ele>357</ele>
        <time>2013-08-07T15:40:36.273Z</time>
      </trkpt>
      <trkpt lat="48.74312" lon="7.25802">
        <ele>358</ele>
        <time>2013-08-07T15:40:40.302Z</time>
      </trkpt>
      <trkpt lat="48.74322" lon="7.25806">
        <ele>358</ele>
        <time>2013-08-07T15:40:46.318Z</time>
      </trkpt>
      <trkpt lat="48.7433" lon="7.25818">
        <ele>359</ele>
        <time>2013-08-07T15:40:54.272Z</time>
      </trkpt>
      <trkpt lat="48.74338" lon="7.25827">
        <ele>358</ele>
        <time>2013-08-07T15:40:56.279Z</time>
      </trkpt>
      <trkpt lat="48.74348" lon="7.25831">
        <ele>356</ele>
        <time>2013-08-07T15:41:00.312Z</time>
      </trkpt>
      <trkpt lat="48.74358" lon="7.25833">
        <ele>354</ele>
        <time>2013-08-07T15:41:06.314Z</time>
      </trkpt>
      <trkpt lat="48.74369" lon="7.25833">
        <ele>360</ele>
        <time>2013-08-07T15:41:12.318Z</time>
      </trkpt>
      <trkpt lat="48.7438" lon="7.25833">
        <ele>352</ele>
        <time>2013-08-07T15:41:15.313Z</time>
      </trkpt>
      <trkpt lat="48.7439" lon="7.25831">
        <ele>351</ele>
        <time>2013-08-07T15:41:18.315Z</time>
      </trkpt>
      <trkpt lat="48.744" lon="7.25828">
        <ele>351</ele>
        <time>2013-08-07T15:41:21.271Z</time>
      </trkpt>
      <trkpt lat="48.74412" lon="7.25825">
        <ele>351</ele>
        <time>2013-08-07T15:41:24.289Z</time>
      </trkpt>
      <trkpt lat="48.74422" lon="7.25825">
        <ele>349</ele>
        <time>2013-08-07T15:41:27.286Z</time>
      </trkpt>
      <trkpt lat="48.74432" lon="7.25823">
        <ele>349</ele>
        <time>2013-08-07T15:41:31.270Z</time>
      </trkpt>
      <trkpt lat="48.74443" lon="7.25819">
        <ele>348</ele>
        <time>2013-08-07T15:41:36.439Z</time>
      </trkpt>
      <trkpt lat="48.74455" lon="7.25818">
        <ele>348</ele>
        <time>2013-08-07T15:41:41.300Z</time>
      </trkpt>
      <trkpt lat="48.74464" lon="7.25816">
        <ele>348</ele>
        <time>2013-08-07T15:41:45.307Z</time>
      </trkpt>
      <trkpt lat="48.74474" lon="7.25816">
        <ele>348</ele>
        <time>2013-08-07T15:41:49.301Z</time>
      </trkpt>
      <trkpt lat="48.74486" lon="7.25815">
        <ele>348</ele>
        <time>2013-08-07T15:41:53.306Z</time>
      </trkpt>
      <trkpt lat="48.74497" lon="7.25815">
        <ele>348</ele>
        <time>2013-08-07T15:41:56.306Z</time>
      </trkpt>
      <trkpt lat="48.74508" lon="7.25816">
        <ele>349</ele>
        <time>2013-08-07T15:41:59.301Z</time>
      </trkpt>
      <trkpt lat="48.74518" lon="7.25819">
        <ele>349</ele>
        <time>2013-08-07T15:42:02.303Z</time>
      </trkpt>
      <trkpt lat="48.74527" lon="7.2582">
        <ele>349</ele>
        <time>2013-08-07T15:42:05.301Z</time>
      </trkpt>
      <trkpt lat="48.74537" lon="7.25823">
        <ele>349</ele>
        <time>2013-08-07T15:42:08.301Z</time>
      </trkpt>
      <trkpt lat="48.74549" lon="7.25828">
        <ele>349</ele>
        <time>2013-08-07T15:42:12.306Z</time>
      </trkpt>
      <trkpt lat="48.74559" lon="7.25829">
        <ele>349</ele>
        <time>2013-08-07T15:42:15.309Z</time>
      </trkpt>
      <trkpt lat="48.74569" lon="7.2583">
        <ele>350</ele>
        <time>2013-08-07T15:42:18.310Z</time>
      </trkpt>
      <trkpt lat="48.74578" lon="7.2583">
        <ele>351</ele>
        <time>2013-08-07T15:42:21.306Z</time>
      </trkpt>
      <trkpt lat="48.74589" lon="7.25832">
        <ele>351</ele>
        <time>2013-08-07T15:42:24.299Z</time>
      </trkpt>
      <trkpt lat="48.74601" lon="7.25833">
        <ele>349</ele>
        <time>2013-08-07T15:42:27.309Z</time>
      </trkpt>
      <trkpt lat="48.74607" lon="7.25845">
        <ele>352</ele>
        <time>2013-08-07T15:42:32.307Z</time>
      </trkpt>
      <trkpt lat="48.74605" lon="7.2586">
        <ele>353</ele>
        <time>2013-08-07T15:43:26.302Z</time>
      </trkpt>
      <trkpt lat="48.74605" lon="7.25846">
        <ele>352</ele>
        <time>2013-08-07T15:44:26.272Z</time>
      </trkpt>
      <trkpt lat="48.74604" lon="7.25845">
        <ele>352</ele>
        <time>2013-08-07T15:44:46.275Z</time>
      </trkpt>
    </trkseg>
  </trk>
</gpx>